<?xml version="1.0" encoding="UTF-8" standalone="no" ?>
<gpx xmlns="http://www.topografix.com/GPX/1/1" xmlns:xsi="http://www.w3.org/2001/XMLSchema-instance" xsi:schemaLocation="http://www.topografix.com/GPX/1/1 http://www.topografix.com/GPX/1/1/gpx.xsd" version="1.1" creator="VisuGPX - https://www.visugpx.com">
  <metadata>
    <name>J3 Lac Blanc - Grand Ballon</name>
    <desc><![CDATA[Départ Lac Blanc, cretes jusqu\'au grand ballon]]></desc>
  </metadata>
  <trk>
    <name><![CDATA[19 mai 2012 09:40:51]]></name>
    <cmt><![CDATA[19 mai 2012 09:40:51]]></cmt>
    <trkseg>
      <trkpt lat="48.13567" lon="7.09043">
        <ele>1168</ele>
        <time>2012-05-19T07:40:52Z</time>
      </trkpt>
      <trkpt lat="48.13567" lon="7.09046">
        <ele>1157</ele>
        <time>2012-05-19T07:42:34Z</time>
      </trkpt>
      <trkpt lat="48.13561" lon="7.09046">
        <ele>1155</ele>
        <time>2012-05-19T07:43:59Z</time>
      </trkpt>
      <trkpt lat="48.13555" lon="7.09038">
        <ele>1153</ele>
        <time>2012-05-19T07:44:01Z</time>
      </trkpt>
      <trkpt lat="48.13554" lon="7.09022">
        <ele>1150</ele>
        <time>2012-05-19T07:44:04Z</time>
      </trkpt>
      <trkpt lat="48.13558" lon="7.0899">
        <ele>1144</ele>
        <time>2012-05-19T07:44:13Z</time>
      </trkpt>
      <trkpt lat="48.13563" lon="7.08989">
        <ele>1144</ele>
        <time>2012-05-19T07:44:15Z</time>
      </trkpt>
      <trkpt lat="48.13584" lon="7.0896">
        <ele>1146</ele>
        <time>2012-05-19T07:44:27Z</time>
      </trkpt>
      <trkpt lat="48.13602" lon="7.08927">
        <ele>1144</ele>
        <time>2012-05-19T07:44:38Z</time>
      </trkpt>
      <trkpt lat="48.13622" lon="7.0887">
        <ele>1147</ele>
        <time>2012-05-19T07:44:59Z</time>
      </trkpt>
      <trkpt lat="48.13622" lon="7.08863">
        <ele>1146</ele>
        <time>2012-05-19T07:45:02Z</time>
      </trkpt>
      <trkpt lat="48.13623" lon="7.08851">
        <ele>1147</ele>
        <time>2012-05-19T07:45:10Z</time>
      </trkpt>
      <trkpt lat="48.13617" lon="7.08851">
        <ele>1147</ele>
        <time>2012-05-19T07:45:14Z</time>
      </trkpt>
      <trkpt lat="48.13615" lon="7.08844">
        <ele>1147</ele>
        <time>2012-05-19T07:45:44Z</time>
      </trkpt>
      <trkpt lat="48.13618" lon="7.08831">
        <ele>1147</ele>
        <time>2012-05-19T07:45:48Z</time>
      </trkpt>
      <trkpt lat="48.13617" lon="7.08823">
        <ele>1146</ele>
        <time>2012-05-19T07:45:50Z</time>
      </trkpt>
      <trkpt lat="48.13613" lon="7.08818">
        <ele>1145</ele>
        <time>2012-05-19T07:45:53Z</time>
      </trkpt>
      <trkpt lat="48.13608" lon="7.08815">
        <ele>1145</ele>
        <time>2012-05-19T07:45:56Z</time>
      </trkpt>
      <trkpt lat="48.1358" lon="7.08805">
        <ele>1146</ele>
        <time>2012-05-19T07:46:11Z</time>
      </trkpt>
      <trkpt lat="48.13575" lon="7.08805">
        <ele>1146</ele>
        <time>2012-05-19T07:46:14Z</time>
      </trkpt>
      <trkpt lat="48.13571" lon="7.08803">
        <ele>1146</ele>
        <time>2012-05-19T07:46:18Z</time>
      </trkpt>
      <trkpt lat="48.13527" lon="7.08805">
        <ele>1155</ele>
        <time>2012-05-19T07:46:47Z</time>
      </trkpt>
      <trkpt lat="48.13515" lon="7.08801">
        <ele>1155</ele>
        <time>2012-05-19T07:46:53Z</time>
      </trkpt>
      <trkpt lat="48.13489" lon="7.08794">
        <ele>1156</ele>
        <time>2012-05-19T07:47:13Z</time>
      </trkpt>
      <trkpt lat="48.13469" lon="7.08789">
        <ele>1163</ele>
        <time>2012-05-19T07:47:29Z</time>
      </trkpt>
      <trkpt lat="48.13458" lon="7.08786">
        <ele>1162</ele>
        <time>2012-05-19T07:47:43Z</time>
      </trkpt>
      <trkpt lat="48.13453" lon="7.08785">
        <ele>1162</ele>
        <time>2012-05-19T07:47:48Z</time>
      </trkpt>
      <trkpt lat="48.13448" lon="7.08784">
        <ele>1163</ele>
        <time>2012-05-19T07:47:52Z</time>
      </trkpt>
      <trkpt lat="48.13442" lon="7.08783">
        <ele>1163</ele>
        <time>2012-05-19T07:47:57Z</time>
      </trkpt>
      <trkpt lat="48.13417" lon="7.08779">
        <ele>1168</ele>
        <time>2012-05-19T07:48:19Z</time>
      </trkpt>
      <trkpt lat="48.13407" lon="7.08777">
        <ele>1168</ele>
        <time>2012-05-19T07:48:28Z</time>
      </trkpt>
      <trkpt lat="48.13387" lon="7.08771">
        <ele>1174</ele>
        <time>2012-05-19T07:48:45Z</time>
      </trkpt>
      <trkpt lat="48.13382" lon="7.08769">
        <ele>1173</ele>
        <time>2012-05-19T07:48:50Z</time>
      </trkpt>
      <trkpt lat="48.13377" lon="7.08767">
        <ele>1175</ele>
        <time>2012-05-19T07:48:55Z</time>
      </trkpt>
      <trkpt lat="48.13365" lon="7.08768">
        <ele>1171</ele>
        <time>2012-05-19T07:49:10Z</time>
      </trkpt>
      <trkpt lat="48.13355" lon="7.08768">
        <ele>1173</ele>
        <time>2012-05-19T07:49:17Z</time>
      </trkpt>
      <trkpt lat="48.1335" lon="7.08764">
        <ele>1173</ele>
        <time>2012-05-19T07:49:21Z</time>
      </trkpt>
      <trkpt lat="48.1334" lon="7.08747">
        <ele>1175</ele>
        <time>2012-05-19T07:49:31Z</time>
      </trkpt>
      <trkpt lat="48.13337" lon="7.0874">
        <ele>1175</ele>
        <time>2012-05-19T07:49:34Z</time>
      </trkpt>
      <trkpt lat="48.13332" lon="7.08727">
        <ele>1179</ele>
        <time>2012-05-19T07:49:44Z</time>
      </trkpt>
      <trkpt lat="48.1333" lon="7.08719">
        <ele>1179</ele>
        <time>2012-05-19T07:49:49Z</time>
      </trkpt>
      <trkpt lat="48.13328" lon="7.08713">
        <ele>1179</ele>
        <time>2012-05-19T07:49:53Z</time>
      </trkpt>
      <trkpt lat="48.13321" lon="7.08664">
        <ele>1186</ele>
        <time>2012-05-19T07:50:25Z</time>
      </trkpt>
      <trkpt lat="48.1332" lon="7.08657">
        <ele>1187</ele>
        <time>2012-05-19T07:50:30Z</time>
      </trkpt>
      <trkpt lat="48.13313" lon="7.08646">
        <ele>1185</ele>
        <time>2012-05-19T07:50:38Z</time>
      </trkpt>
      <trkpt lat="48.13304" lon="7.0861">
        <ele>1191</ele>
        <time>2012-05-19T07:51:02Z</time>
      </trkpt>
      <trkpt lat="48.13301" lon="7.08604">
        <ele>1190</ele>
        <time>2012-05-19T07:51:07Z</time>
      </trkpt>
      <trkpt lat="48.13288" lon="7.08571">
        <ele>1195</ele>
        <time>2012-05-19T07:51:38Z</time>
      </trkpt>
      <trkpt lat="48.13271" lon="7.08546">
        <ele>1197</ele>
        <time>2012-05-19T07:51:58Z</time>
      </trkpt>
      <trkpt lat="48.13263" lon="7.08539">
        <ele>1200</ele>
        <time>2012-05-19T07:52:09Z</time>
      </trkpt>
      <trkpt lat="48.13259" lon="7.08533">
        <ele>1200</ele>
        <time>2012-05-19T07:52:13Z</time>
      </trkpt>
      <trkpt lat="48.13256" lon="7.08527">
        <ele>1200</ele>
        <time>2012-05-19T07:52:18Z</time>
      </trkpt>
      <trkpt lat="48.13244" lon="7.08512">
        <ele>1200</ele>
        <time>2012-05-19T07:52:33Z</time>
      </trkpt>
      <trkpt lat="48.13222" lon="7.08496">
        <ele>1205</ele>
        <time>2012-05-19T07:52:53Z</time>
      </trkpt>
      <trkpt lat="48.13217" lon="7.08497">
        <ele>1208</ele>
        <time>2012-05-19T07:53:08Z</time>
      </trkpt>
      <trkpt lat="48.13212" lon="7.08495">
        <ele>1208</ele>
        <time>2012-05-19T07:53:13Z</time>
      </trkpt>
      <trkpt lat="48.13207" lon="7.08495">
        <ele>1208</ele>
        <time>2012-05-19T07:53:19Z</time>
      </trkpt>
      <trkpt lat="48.13202" lon="7.08495">
        <ele>1208</ele>
        <time>2012-05-19T07:53:22Z</time>
      </trkpt>
      <trkpt lat="48.13197" lon="7.08494">
        <ele>1209</ele>
        <time>2012-05-19T07:53:26Z</time>
      </trkpt>
      <trkpt lat="48.13184" lon="7.08501">
        <ele>1211</ele>
        <time>2012-05-19T07:53:42Z</time>
      </trkpt>
      <trkpt lat="48.13179" lon="7.08504">
        <ele>1211</ele>
        <time>2012-05-19T07:53:46Z</time>
      </trkpt>
      <trkpt lat="48.1316" lon="7.08518">
        <ele>1215</ele>
        <time>2012-05-19T07:54:00Z</time>
      </trkpt>
      <trkpt lat="48.1315" lon="7.08523">
        <ele>1214</ele>
        <time>2012-05-19T07:54:08Z</time>
      </trkpt>
      <trkpt lat="48.13145" lon="7.08522">
        <ele>1215</ele>
        <time>2012-05-19T07:54:13Z</time>
      </trkpt>
      <trkpt lat="48.13141" lon="7.08518">
        <ele>1215</ele>
        <time>2012-05-19T07:54:20Z</time>
      </trkpt>
      <trkpt lat="48.13133" lon="7.08509">
        <ele>1212</ele>
        <time>2012-05-19T07:54:31Z</time>
      </trkpt>
      <trkpt lat="48.13127" lon="7.08509">
        <ele>1211</ele>
        <time>2012-05-19T07:54:35Z</time>
      </trkpt>
      <trkpt lat="48.13106" lon="7.08511">
        <ele>1215</ele>
        <time>2012-05-19T07:54:54Z</time>
      </trkpt>
      <trkpt lat="48.13102" lon="7.08509">
        <ele>1214</ele>
        <time>2012-05-19T07:55:00Z</time>
      </trkpt>
      <trkpt lat="48.1308" lon="7.08512">
        <ele>1216</ele>
        <time>2012-05-19T07:55:26Z</time>
      </trkpt>
      <trkpt lat="48.13062" lon="7.08513">
        <ele>1218</ele>
        <time>2012-05-19T07:55:48Z</time>
      </trkpt>
      <trkpt lat="48.13062" lon="7.08511">
        <ele>1215</ele>
        <time>2012-05-19T08:01:07Z</time>
      </trkpt>
      <trkpt lat="48.13058" lon="7.08508">
        <ele>1215</ele>
        <time>2012-05-19T08:01:16Z</time>
      </trkpt>
      <trkpt lat="48.13054" lon="7.08505">
        <ele>1217</ele>
        <time>2012-05-19T08:01:22Z</time>
      </trkpt>
      <trkpt lat="48.13047" lon="7.08495">
        <ele>1220</ele>
        <time>2012-05-19T08:01:31Z</time>
      </trkpt>
      <trkpt lat="48.13026" lon="7.0848">
        <ele>1228</ele>
        <time>2012-05-19T08:02:04Z</time>
      </trkpt>
      <trkpt lat="48.13022" lon="7.08475">
        <ele>1227</ele>
        <time>2012-05-19T08:02:09Z</time>
      </trkpt>
      <trkpt lat="48.13018" lon="7.08471">
        <ele>1228</ele>
        <time>2012-05-19T08:02:15Z</time>
      </trkpt>
      <trkpt lat="48.13007" lon="7.08461">
        <ele>1235</ele>
        <time>2012-05-19T08:02:38Z</time>
      </trkpt>
      <trkpt lat="48.13003" lon="7.08456">
        <ele>1232</ele>
        <time>2012-05-19T08:02:53Z</time>
      </trkpt>
      <trkpt lat="48.12999" lon="7.08452">
        <ele>1232</ele>
        <time>2012-05-19T08:03:12Z</time>
      </trkpt>
      <trkpt lat="48.12977" lon="7.08441">
        <ele>1240</ele>
        <time>2012-05-19T08:03:38Z</time>
      </trkpt>
      <trkpt lat="48.12967" lon="7.08439">
        <ele>1239</ele>
        <time>2012-05-19T08:03:48Z</time>
      </trkpt>
      <trkpt lat="48.12957" lon="7.08434">
        <ele>1241</ele>
        <time>2012-05-19T08:03:57Z</time>
      </trkpt>
      <trkpt lat="48.12939" lon="7.08426">
        <ele>1240</ele>
        <time>2012-05-19T08:04:18Z</time>
      </trkpt>
      <trkpt lat="48.12935" lon="7.08422">
        <ele>1240</ele>
        <time>2012-05-19T08:04:24Z</time>
      </trkpt>
      <trkpt lat="48.12931" lon="7.08416">
        <ele>1240</ele>
        <time>2012-05-19T08:04:30Z</time>
      </trkpt>
      <trkpt lat="48.12928" lon="7.08412">
        <ele>1240</ele>
        <time>2012-05-19T08:04:35Z</time>
      </trkpt>
      <trkpt lat="48.12925" lon="7.0841">
        <ele>1240</ele>
        <time>2012-05-19T08:04:42Z</time>
      </trkpt>
      <trkpt lat="48.12921" lon="7.08406">
        <ele>1240</ele>
        <time>2012-05-19T08:05:11Z</time>
      </trkpt>
      <trkpt lat="48.12915" lon="7.08403">
        <ele>1240</ele>
        <time>2012-05-19T08:05:16Z</time>
      </trkpt>
      <trkpt lat="48.1291" lon="7.08402">
        <ele>1240</ele>
        <time>2012-05-19T08:05:19Z</time>
      </trkpt>
      <trkpt lat="48.12901" lon="7.08405">
        <ele>1240</ele>
        <time>2012-05-19T08:05:25Z</time>
      </trkpt>
      <trkpt lat="48.12897" lon="7.0841">
        <ele>1240</ele>
        <time>2012-05-19T08:05:29Z</time>
      </trkpt>
      <trkpt lat="48.12893" lon="7.08414">
        <ele>1240</ele>
        <time>2012-05-19T08:05:33Z</time>
      </trkpt>
      <trkpt lat="48.12872" lon="7.08415">
        <ele>1240</ele>
        <time>2012-05-19T08:05:50Z</time>
      </trkpt>
      <trkpt lat="48.1282" lon="7.08395">
        <ele>1241</ele>
        <time>2012-05-19T08:06:23Z</time>
      </trkpt>
      <trkpt lat="48.12789" lon="7.08392">
        <ele>1242</ele>
        <time>2012-05-19T08:06:41Z</time>
      </trkpt>
      <trkpt lat="48.12784" lon="7.08391">
        <ele>1242</ele>
        <time>2012-05-19T08:06:44Z</time>
      </trkpt>
      <trkpt lat="48.12751" lon="7.08381">
        <ele>1243</ele>
        <time>2012-05-19T08:07:02Z</time>
      </trkpt>
      <trkpt lat="48.12746" lon="7.08382">
        <ele>1242</ele>
        <time>2012-05-19T08:07:05Z</time>
      </trkpt>
      <trkpt lat="48.12702" lon="7.08402">
        <ele>1246</ele>
        <time>2012-05-19T08:07:37Z</time>
      </trkpt>
      <trkpt lat="48.12668" lon="7.08389">
        <ele>1249</ele>
        <time>2012-05-19T08:08:06Z</time>
      </trkpt>
      <trkpt lat="48.12659" lon="7.08386">
        <ele>1248</ele>
        <time>2012-05-19T08:08:12Z</time>
      </trkpt>
      <trkpt lat="48.12621" lon="7.08401">
        <ele>1251</ele>
        <time>2012-05-19T08:08:46Z</time>
      </trkpt>
      <trkpt lat="48.12616" lon="7.08401">
        <ele>1252</ele>
        <time>2012-05-19T08:08:54Z</time>
      </trkpt>
      <trkpt lat="48.12606" lon="7.08397">
        <ele>1252</ele>
        <time>2012-05-19T08:09:01Z</time>
      </trkpt>
      <trkpt lat="48.12601" lon="7.08397">
        <ele>1252</ele>
        <time>2012-05-19T08:09:05Z</time>
      </trkpt>
      <trkpt lat="48.12589" lon="7.08395">
        <ele>1253</ele>
        <time>2012-05-19T08:09:13Z</time>
      </trkpt>
      <trkpt lat="48.12584" lon="7.08395">
        <ele>1253</ele>
        <time>2012-05-19T08:09:17Z</time>
      </trkpt>
      <trkpt lat="48.12579" lon="7.08395">
        <ele>1253</ele>
        <time>2012-05-19T08:09:21Z</time>
      </trkpt>
      <trkpt lat="48.12576" lon="7.084">
        <ele>1254</ele>
        <time>2012-05-19T08:09:24Z</time>
      </trkpt>
      <trkpt lat="48.1257" lon="7.08402">
        <ele>1254</ele>
        <time>2012-05-19T08:09:28Z</time>
      </trkpt>
      <trkpt lat="48.12555" lon="7.08395">
        <ele>1255</ele>
        <time>2012-05-19T08:09:40Z</time>
      </trkpt>
      <trkpt lat="48.1255" lon="7.08393">
        <ele>1255</ele>
        <time>2012-05-19T08:09:44Z</time>
      </trkpt>
      <trkpt lat="48.12545" lon="7.08394">
        <ele>1255</ele>
        <time>2012-05-19T08:09:48Z</time>
      </trkpt>
      <trkpt lat="48.12537" lon="7.08406">
        <ele>1256</ele>
        <time>2012-05-19T08:09:55Z</time>
      </trkpt>
      <trkpt lat="48.12532" lon="7.08407">
        <ele>1257</ele>
        <time>2012-05-19T08:09:59Z</time>
      </trkpt>
      <trkpt lat="48.1253" lon="7.08407">
        <ele>1258</ele>
        <time>2012-05-19T08:10:05Z</time>
      </trkpt>
      <trkpt lat="48.12522" lon="7.08406">
        <ele>1259</ele>
        <time>2012-05-19T08:10:14Z</time>
      </trkpt>
      <trkpt lat="48.125" lon="7.08409">
        <ele>1260</ele>
        <time>2012-05-19T08:10:28Z</time>
      </trkpt>
      <trkpt lat="48.12485" lon="7.08409">
        <ele>1262</ele>
        <time>2012-05-19T08:10:39Z</time>
      </trkpt>
      <trkpt lat="48.12479" lon="7.08403">
        <ele>1263</ele>
        <time>2012-05-19T08:10:44Z</time>
      </trkpt>
      <trkpt lat="48.12474" lon="7.084">
        <ele>1263</ele>
        <time>2012-05-19T08:10:48Z</time>
      </trkpt>
      <trkpt lat="48.1247" lon="7.08396">
        <ele>1263</ele>
        <time>2012-05-19T08:10:52Z</time>
      </trkpt>
      <trkpt lat="48.12451" lon="7.08382">
        <ele>1264</ele>
        <time>2012-05-19T08:11:08Z</time>
      </trkpt>
      <trkpt lat="48.1244" lon="7.08379">
        <ele>1266</ele>
        <time>2012-05-19T08:11:17Z</time>
      </trkpt>
      <trkpt lat="48.12436" lon="7.0838">
        <ele>1268</ele>
        <time>2012-05-19T08:11:27Z</time>
      </trkpt>
      <trkpt lat="48.12431" lon="7.08379">
        <ele>1268</ele>
        <time>2012-05-19T08:11:31Z</time>
      </trkpt>
      <trkpt lat="48.12426" lon="7.08372">
        <ele>1268</ele>
        <time>2012-05-19T08:11:35Z</time>
      </trkpt>
      <trkpt lat="48.12422" lon="7.08367">
        <ele>1268</ele>
        <time>2012-05-19T08:11:37Z</time>
      </trkpt>
      <trkpt lat="48.12418" lon="7.08364">
        <ele>1268</ele>
        <time>2012-05-19T08:11:40Z</time>
      </trkpt>
      <trkpt lat="48.12412" lon="7.08361">
        <ele>1268</ele>
        <time>2012-05-19T08:11:43Z</time>
      </trkpt>
      <trkpt lat="48.12408" lon="7.08359">
        <ele>1269</ele>
        <time>2012-05-19T08:11:46Z</time>
      </trkpt>
      <trkpt lat="48.12403" lon="7.08359">
        <ele>1269</ele>
        <time>2012-05-19T08:11:50Z</time>
      </trkpt>
      <trkpt lat="48.12393" lon="7.08354">
        <ele>1269</ele>
        <time>2012-05-19T08:11:56Z</time>
      </trkpt>
      <trkpt lat="48.12389" lon="7.08351">
        <ele>1269</ele>
        <time>2012-05-19T08:12:00Z</time>
      </trkpt>
      <trkpt lat="48.12379" lon="7.08349">
        <ele>1271</ele>
        <time>2012-05-19T08:12:07Z</time>
      </trkpt>
      <trkpt lat="48.12333" lon="7.0835">
        <ele>1276</ele>
        <time>2012-05-19T08:12:40Z</time>
      </trkpt>
      <trkpt lat="48.12293" lon="7.08352">
        <ele>1280</ele>
        <time>2012-05-19T08:13:07Z</time>
      </trkpt>
      <trkpt lat="48.1229" lon="7.08346">
        <ele>1280</ele>
        <time>2012-05-19T08:13:11Z</time>
      </trkpt>
      <trkpt lat="48.12286" lon="7.08342">
        <ele>1280</ele>
        <time>2012-05-19T08:13:14Z</time>
      </trkpt>
      <trkpt lat="48.1224" lon="7.08334">
        <ele>1284</ele>
        <time>2012-05-19T08:13:45Z</time>
      </trkpt>
      <trkpt lat="48.12219" lon="7.08326">
        <ele>1286</ele>
        <time>2012-05-19T08:14:00Z</time>
      </trkpt>
      <trkpt lat="48.12214" lon="7.08324">
        <ele>1287</ele>
        <time>2012-05-19T08:14:13Z</time>
      </trkpt>
      <trkpt lat="48.12209" lon="7.08322">
        <ele>1288</ele>
        <time>2012-05-19T08:14:19Z</time>
      </trkpt>
      <trkpt lat="48.12204" lon="7.0832">
        <ele>1288</ele>
        <time>2012-05-19T08:14:22Z</time>
      </trkpt>
      <trkpt lat="48.12193" lon="7.08319">
        <ele>1289</ele>
        <time>2012-05-19T08:14:29Z</time>
      </trkpt>
      <trkpt lat="48.12182" lon="7.08319">
        <ele>1289</ele>
        <time>2012-05-19T08:14:36Z</time>
      </trkpt>
      <trkpt lat="48.12133" lon="7.08318">
        <ele>1294</ele>
        <time>2012-05-19T08:15:09Z</time>
      </trkpt>
      <trkpt lat="48.12116" lon="7.08316">
        <ele>1295</ele>
        <time>2012-05-19T08:15:21Z</time>
      </trkpt>
      <trkpt lat="48.12111" lon="7.08314">
        <ele>1295</ele>
        <time>2012-05-19T08:15:25Z</time>
      </trkpt>
      <trkpt lat="48.12101" lon="7.0831">
        <ele>1296</ele>
        <time>2012-05-19T08:15:32Z</time>
      </trkpt>
      <trkpt lat="48.12095" lon="7.08307">
        <ele>1296</ele>
        <time>2012-05-19T08:15:36Z</time>
      </trkpt>
      <trkpt lat="48.12064" lon="7.08293">
        <ele>1299</ele>
        <time>2012-05-19T08:16:00Z</time>
      </trkpt>
      <trkpt lat="48.12058" lon="7.0829">
        <ele>1299</ele>
        <time>2012-05-19T08:16:04Z</time>
      </trkpt>
      <trkpt lat="48.12054" lon="7.08287">
        <ele>1299</ele>
        <time>2012-05-19T08:16:07Z</time>
      </trkpt>
      <trkpt lat="48.1205" lon="7.08283">
        <ele>1299</ele>
        <time>2012-05-19T08:16:11Z</time>
      </trkpt>
      <trkpt lat="48.12045" lon="7.08279">
        <ele>1298</ele>
        <time>2012-05-19T08:16:14Z</time>
      </trkpt>
      <trkpt lat="48.1204" lon="7.08275">
        <ele>1299</ele>
        <time>2012-05-19T08:16:17Z</time>
      </trkpt>
      <trkpt lat="48.12036" lon="7.08273">
        <ele>1300</ele>
        <time>2012-05-19T08:16:20Z</time>
      </trkpt>
      <trkpt lat="48.12027" lon="7.08268">
        <ele>1300</ele>
        <time>2012-05-19T08:16:26Z</time>
      </trkpt>
      <trkpt lat="48.12002" lon="7.08244">
        <ele>1302</ele>
        <time>2012-05-19T08:16:47Z</time>
      </trkpt>
      <trkpt lat="48.11992" lon="7.08238">
        <ele>1302</ele>
        <time>2012-05-19T08:16:53Z</time>
      </trkpt>
      <trkpt lat="48.11967" lon="7.08228">
        <ele>1303</ele>
        <time>2012-05-19T08:17:08Z</time>
      </trkpt>
      <trkpt lat="48.11957" lon="7.08213">
        <ele>1302</ele>
        <time>2012-05-19T08:17:18Z</time>
      </trkpt>
      <trkpt lat="48.11954" lon="7.08214">
        <ele>1303</ele>
        <time>2012-05-19T08:17:24Z</time>
      </trkpt>
      <trkpt lat="48.11944" lon="7.08213">
        <ele>1303</ele>
        <time>2012-05-19T08:17:32Z</time>
      </trkpt>
      <trkpt lat="48.11942" lon="7.08216">
        <ele>1303</ele>
        <time>2012-05-19T08:17:48Z</time>
      </trkpt>
      <trkpt lat="48.11938" lon="7.08215">
        <ele>1301</ele>
        <time>2012-05-19T08:18:03Z</time>
      </trkpt>
      <trkpt lat="48.11932" lon="7.08212">
        <ele>1301</ele>
        <time>2012-05-19T08:18:19Z</time>
      </trkpt>
      <trkpt lat="48.11927" lon="7.08212">
        <ele>1302</ele>
        <time>2012-05-19T08:18:22Z</time>
      </trkpt>
      <trkpt lat="48.11921" lon="7.08211">
        <ele>1302</ele>
        <time>2012-05-19T08:18:26Z</time>
      </trkpt>
      <trkpt lat="48.11915" lon="7.08211">
        <ele>1304</ele>
        <time>2012-05-19T08:19:46Z</time>
      </trkpt>
      <trkpt lat="48.11901" lon="7.08201">
        <ele>1305</ele>
        <time>2012-05-19T08:19:56Z</time>
      </trkpt>
      <trkpt lat="48.1187" lon="7.08178">
        <ele>1305</ele>
        <time>2012-05-19T08:20:14Z</time>
      </trkpt>
      <trkpt lat="48.11847" lon="7.08167">
        <ele>1303</ele>
        <time>2012-05-19T08:20:26Z</time>
      </trkpt>
      <trkpt lat="48.11832" lon="7.08161">
        <ele>1303</ele>
        <time>2012-05-19T08:20:35Z</time>
      </trkpt>
      <trkpt lat="48.11815" lon="7.08161">
        <ele>1303</ele>
        <time>2012-05-19T08:20:45Z</time>
      </trkpt>
      <trkpt lat="48.1181" lon="7.08161">
        <ele>1303</ele>
        <time>2012-05-19T08:20:48Z</time>
      </trkpt>
      <trkpt lat="48.11801" lon="7.08155">
        <ele>1303</ele>
        <time>2012-05-19T08:20:54Z</time>
      </trkpt>
      <trkpt lat="48.11791" lon="7.08153">
        <ele>1302</ele>
        <time>2012-05-19T08:21:00Z</time>
      </trkpt>
      <trkpt lat="48.11781" lon="7.08146">
        <ele>1302</ele>
        <time>2012-05-19T08:21:06Z</time>
      </trkpt>
      <trkpt lat="48.11762" lon="7.08135">
        <ele>1301</ele>
        <time>2012-05-19T08:21:16Z</time>
      </trkpt>
      <trkpt lat="48.11711" lon="7.08103">
        <ele>1301</ele>
        <time>2012-05-19T08:21:38Z</time>
      </trkpt>
      <trkpt lat="48.11701" lon="7.08095">
        <ele>1300</ele>
        <time>2012-05-19T08:21:44Z</time>
      </trkpt>
      <trkpt lat="48.11691" lon="7.08088">
        <ele>1300</ele>
        <time>2012-05-19T08:21:49Z</time>
      </trkpt>
      <trkpt lat="48.1168" lon="7.08082">
        <ele>1299</ele>
        <time>2012-05-19T08:21:54Z</time>
      </trkpt>
      <trkpt lat="48.11652" lon="7.08063">
        <ele>1299</ele>
        <time>2012-05-19T08:22:10Z</time>
      </trkpt>
      <trkpt lat="48.11648" lon="7.08065">
        <ele>1298</ele>
        <time>2012-05-19T08:22:12Z</time>
      </trkpt>
      <trkpt lat="48.11642" lon="7.08062">
        <ele>1298</ele>
        <time>2012-05-19T08:22:15Z</time>
      </trkpt>
      <trkpt lat="48.11635" lon="7.08051">
        <ele>1298</ele>
        <time>2012-05-19T08:22:20Z</time>
      </trkpt>
      <trkpt lat="48.11632" lon="7.08045">
        <ele>1297</ele>
        <time>2012-05-19T08:22:23Z</time>
      </trkpt>
      <trkpt lat="48.11627" lon="7.08041">
        <ele>1297</ele>
        <time>2012-05-19T08:22:27Z</time>
      </trkpt>
      <trkpt lat="48.11624" lon="7.08035">
        <ele>1297</ele>
        <time>2012-05-19T08:22:31Z</time>
      </trkpt>
      <trkpt lat="48.11589" lon="7.08008">
        <ele>1298</ele>
        <time>2012-05-19T08:22:50Z</time>
      </trkpt>
      <trkpt lat="48.11542" lon="7.08009">
        <ele>1299</ele>
        <time>2012-05-19T08:23:13Z</time>
      </trkpt>
      <trkpt lat="48.11537" lon="7.08004">
        <ele>1300</ele>
        <time>2012-05-19T08:23:16Z</time>
      </trkpt>
      <trkpt lat="48.11496" lon="7.07982">
        <ele>1300</ele>
        <time>2012-05-19T08:23:45Z</time>
      </trkpt>
      <trkpt lat="48.11487" lon="7.07979">
        <ele>1301</ele>
        <time>2012-05-19T08:23:51Z</time>
      </trkpt>
      <trkpt lat="48.11462" lon="7.07966">
        <ele>1302</ele>
        <time>2012-05-19T08:24:13Z</time>
      </trkpt>
      <trkpt lat="48.11457" lon="7.07963">
        <ele>1303</ele>
        <time>2012-05-19T08:24:19Z</time>
      </trkpt>
      <trkpt lat="48.11453" lon="7.07961">
        <ele>1303</ele>
        <time>2012-05-19T08:24:22Z</time>
      </trkpt>
      <trkpt lat="48.11436" lon="7.07956">
        <ele>1304</ele>
        <time>2012-05-19T08:24:38Z</time>
      </trkpt>
      <trkpt lat="48.11432" lon="7.07952">
        <ele>1304</ele>
        <time>2012-05-19T08:24:45Z</time>
      </trkpt>
      <trkpt lat="48.11428" lon="7.07948">
        <ele>1305</ele>
        <time>2012-05-19T08:24:51Z</time>
      </trkpt>
      <trkpt lat="48.11418" lon="7.07945">
        <ele>1306</ele>
        <time>2012-05-19T08:25:00Z</time>
      </trkpt>
      <trkpt lat="48.11412" lon="7.07943">
        <ele>1306</ele>
        <time>2012-05-19T08:25:04Z</time>
      </trkpt>
      <trkpt lat="48.11408" lon="7.07944">
        <ele>1306</ele>
        <time>2012-05-19T08:25:08Z</time>
      </trkpt>
      <trkpt lat="48.11393" lon="7.07939">
        <ele>1306</ele>
        <time>2012-05-19T08:25:22Z</time>
      </trkpt>
      <trkpt lat="48.11384" lon="7.07931">
        <ele>1307</ele>
        <time>2012-05-19T08:25:30Z</time>
      </trkpt>
      <trkpt lat="48.11369" lon="7.07924">
        <ele>1307</ele>
        <time>2012-05-19T08:25:44Z</time>
      </trkpt>
      <trkpt lat="48.11365" lon="7.0792">
        <ele>1305</ele>
        <time>2012-05-19T08:25:51Z</time>
      </trkpt>
      <trkpt lat="48.11361" lon="7.07917">
        <ele>1305</ele>
        <time>2012-05-19T08:25:58Z</time>
      </trkpt>
      <trkpt lat="48.11346" lon="7.07911">
        <ele>1306</ele>
        <time>2012-05-19T08:26:13Z</time>
      </trkpt>
      <trkpt lat="48.11339" lon="7.07909">
        <ele>1306</ele>
        <time>2012-05-19T08:26:17Z</time>
      </trkpt>
      <trkpt lat="48.1127" lon="7.07867">
        <ele>1304</ele>
        <time>2012-05-19T08:26:47Z</time>
      </trkpt>
      <trkpt lat="48.11137" lon="7.0781">
        <ele>1297</ele>
        <time>2012-05-19T08:27:18Z</time>
      </trkpt>
      <trkpt lat="48.11073" lon="7.07797">
        <ele>1293</ele>
        <time>2012-05-19T08:27:41Z</time>
      </trkpt>
      <trkpt lat="48.1107" lon="7.07791">
        <ele>1293</ele>
        <time>2012-05-19T08:27:44Z</time>
      </trkpt>
      <trkpt lat="48.11068" lon="7.07784">
        <ele>1293</ele>
        <time>2012-05-19T08:27:47Z</time>
      </trkpt>
      <trkpt lat="48.11049" lon="7.07773">
        <ele>1293</ele>
        <time>2012-05-19T08:27:56Z</time>
      </trkpt>
      <trkpt lat="48.10978" lon="7.07738">
        <ele>1295</ele>
        <time>2012-05-19T08:28:26Z</time>
      </trkpt>
      <trkpt lat="48.10916" lon="7.07711">
        <ele>1300</ele>
        <time>2012-05-19T08:28:57Z</time>
      </trkpt>
      <trkpt lat="48.10887" lon="7.07711">
        <ele>1301</ele>
        <time>2012-05-19T08:29:16Z</time>
      </trkpt>
      <trkpt lat="48.1087" lon="7.07732">
        <ele>1302</ele>
        <time>2012-05-19T08:29:26Z</time>
      </trkpt>
      <trkpt lat="48.10865" lon="7.07732">
        <ele>1302</ele>
        <time>2012-05-19T08:29:29Z</time>
      </trkpt>
      <trkpt lat="48.10863" lon="7.07724">
        <ele>1302</ele>
        <time>2012-05-19T08:29:33Z</time>
      </trkpt>
      <trkpt lat="48.10856" lon="7.07696">
        <ele>1303</ele>
        <time>2012-05-19T08:29:49Z</time>
      </trkpt>
      <trkpt lat="48.10857" lon="7.07683">
        <ele>1305</ele>
        <time>2012-05-19T08:30:02Z</time>
      </trkpt>
      <trkpt lat="48.10854" lon="7.07677">
        <ele>1304</ele>
        <time>2012-05-19T08:30:10Z</time>
      </trkpt>
      <trkpt lat="48.10852" lon="7.07669">
        <ele>1304</ele>
        <time>2012-05-19T08:30:16Z</time>
      </trkpt>
      <trkpt lat="48.10852" lon="7.07663">
        <ele>1304</ele>
        <time>2012-05-19T08:30:25Z</time>
      </trkpt>
      <trkpt lat="48.10856" lon="7.07659">
        <ele>1303</ele>
        <time>2012-05-19T08:30:37Z</time>
      </trkpt>
      <trkpt lat="48.10861" lon="7.07655">
        <ele>1304</ele>
        <time>2012-05-19T08:30:42Z</time>
      </trkpt>
      <trkpt lat="48.10863" lon="7.07649">
        <ele>1304</ele>
        <time>2012-05-19T08:30:45Z</time>
      </trkpt>
      <trkpt lat="48.10864" lon="7.07634">
        <ele>1303</ele>
        <time>2012-05-19T08:30:51Z</time>
      </trkpt>
      <trkpt lat="48.10852" lon="7.07504">
        <ele>1294</ele>
        <time>2012-05-19T08:31:24Z</time>
      </trkpt>
      <trkpt lat="48.10823" lon="7.07301">
        <ele>1285</ele>
        <time>2012-05-19T08:31:55Z</time>
      </trkpt>
      <trkpt lat="48.10817" lon="7.07296">
        <ele>1285</ele>
        <time>2012-05-19T08:31:57Z</time>
      </trkpt>
      <trkpt lat="48.10816" lon="7.07288">
        <ele>1284</ele>
        <time>2012-05-19T08:32:00Z</time>
      </trkpt>
      <trkpt lat="48.10817" lon="7.07279">
        <ele>1284</ele>
        <time>2012-05-19T08:32:02Z</time>
      </trkpt>
      <trkpt lat="48.1082" lon="7.07255">
        <ele>1284</ele>
        <time>2012-05-19T08:32:09Z</time>
      </trkpt>
      <trkpt lat="48.10819" lon="7.07247">
        <ele>1284</ele>
        <time>2012-05-19T08:32:12Z</time>
      </trkpt>
      <trkpt lat="48.10817" lon="7.07239">
        <ele>1285</ele>
        <time>2012-05-19T08:32:16Z</time>
      </trkpt>
      <trkpt lat="48.10815" lon="7.07232">
        <ele>1285</ele>
        <time>2012-05-19T08:32:25Z</time>
      </trkpt>
      <trkpt lat="48.10793" lon="7.0719">
        <ele>1287</ele>
        <time>2012-05-19T08:32:56Z</time>
      </trkpt>
      <trkpt lat="48.1079" lon="7.07184">
        <ele>1288</ele>
        <time>2012-05-19T08:33:00Z</time>
      </trkpt>
      <trkpt lat="48.10788" lon="7.07171">
        <ele>1289</ele>
        <time>2012-05-19T08:33:10Z</time>
      </trkpt>
      <trkpt lat="48.10784" lon="7.07166">
        <ele>1289</ele>
        <time>2012-05-19T08:33:17Z</time>
      </trkpt>
      <trkpt lat="48.10783" lon="7.07153">
        <ele>1290</ele>
        <time>2012-05-19T08:33:27Z</time>
      </trkpt>
      <trkpt lat="48.1078" lon="7.07147">
        <ele>1290</ele>
        <time>2012-05-19T08:33:32Z</time>
      </trkpt>
      <trkpt lat="48.10777" lon="7.07141">
        <ele>1290</ele>
        <time>2012-05-19T08:33:36Z</time>
      </trkpt>
      <trkpt lat="48.10776" lon="7.07134">
        <ele>1290</ele>
        <time>2012-05-19T08:33:41Z</time>
      </trkpt>
      <trkpt lat="48.10772" lon="7.07131">
        <ele>1289</ele>
        <time>2012-05-19T08:33:46Z</time>
      </trkpt>
      <trkpt lat="48.10739" lon="7.07116">
        <ele>1295</ele>
        <time>2012-05-19T08:34:16Z</time>
      </trkpt>
      <trkpt lat="48.10734" lon="7.07113">
        <ele>1296</ele>
        <time>2012-05-19T08:34:20Z</time>
      </trkpt>
      <trkpt lat="48.10725" lon="7.07106">
        <ele>1296</ele>
        <time>2012-05-19T08:34:29Z</time>
      </trkpt>
      <trkpt lat="48.10719" lon="7.07106">
        <ele>1296</ele>
        <time>2012-05-19T08:34:33Z</time>
      </trkpt>
      <trkpt lat="48.10702" lon="7.07091">
        <ele>1297</ele>
        <time>2012-05-19T08:34:51Z</time>
      </trkpt>
      <trkpt lat="48.10699" lon="7.0709">
        <ele>1298</ele>
        <time>2012-05-19T08:34:59Z</time>
      </trkpt>
      <trkpt lat="48.10694" lon="7.07086">
        <ele>1299</ele>
        <time>2012-05-19T08:35:04Z</time>
      </trkpt>
      <trkpt lat="48.10686" lon="7.07075">
        <ele>1298</ele>
        <time>2012-05-19T08:35:13Z</time>
      </trkpt>
      <trkpt lat="48.10684" lon="7.07069">
        <ele>1298</ele>
        <time>2012-05-19T08:35:17Z</time>
      </trkpt>
      <trkpt lat="48.10666" lon="7.07043">
        <ele>1300</ele>
        <time>2012-05-19T08:35:38Z</time>
      </trkpt>
      <trkpt lat="48.10662" lon="7.07039">
        <ele>1300</ele>
        <time>2012-05-19T08:35:42Z</time>
      </trkpt>
      <trkpt lat="48.10655" lon="7.07029">
        <ele>1301</ele>
        <time>2012-05-19T08:35:50Z</time>
      </trkpt>
      <trkpt lat="48.10651" lon="7.07027">
        <ele>1301</ele>
        <time>2012-05-19T08:35:58Z</time>
      </trkpt>
      <trkpt lat="48.10649" lon="7.07035">
        <ele>1302</ele>
        <time>2012-05-19T08:37:21Z</time>
      </trkpt>
      <trkpt lat="48.10646" lon="7.07037">
        <ele>1303</ele>
        <time>2012-05-19T08:37:29Z</time>
      </trkpt>
      <trkpt lat="48.10642" lon="7.07037">
        <ele>1301</ele>
        <time>2012-05-19T08:40:33Z</time>
      </trkpt>
      <trkpt lat="48.10641" lon="7.07028">
        <ele>1301</ele>
        <time>2012-05-19T08:41:05Z</time>
      </trkpt>
      <trkpt lat="48.10639" lon="7.07022">
        <ele>1301</ele>
        <time>2012-05-19T08:41:10Z</time>
      </trkpt>
      <trkpt lat="48.10636" lon="7.07016">
        <ele>1301</ele>
        <time>2012-05-19T08:41:14Z</time>
      </trkpt>
      <trkpt lat="48.10633" lon="7.07013">
        <ele>1300</ele>
        <time>2012-05-19T08:41:23Z</time>
      </trkpt>
      <trkpt lat="48.10628" lon="7.07011">
        <ele>1300</ele>
        <time>2012-05-19T08:41:32Z</time>
      </trkpt>
      <trkpt lat="48.10618" lon="7.07006">
        <ele>1300</ele>
        <time>2012-05-19T08:41:37Z</time>
      </trkpt>
      <trkpt lat="48.10613" lon="7.07001">
        <ele>1300</ele>
        <time>2012-05-19T08:41:40Z</time>
      </trkpt>
      <trkpt lat="48.10602" lon="7.07001">
        <ele>1299</ele>
        <time>2012-05-19T08:41:46Z</time>
      </trkpt>
      <trkpt lat="48.10598" lon="7.06996">
        <ele>1299</ele>
        <time>2012-05-19T08:41:48Z</time>
      </trkpt>
      <trkpt lat="48.10591" lon="7.06988">
        <ele>1298</ele>
        <time>2012-05-19T08:41:56Z</time>
      </trkpt>
      <trkpt lat="48.10584" lon="7.06989">
        <ele>1298</ele>
        <time>2012-05-19T08:42:07Z</time>
      </trkpt>
      <trkpt lat="48.10579" lon="7.06986">
        <ele>1298</ele>
        <time>2012-05-19T08:42:14Z</time>
      </trkpt>
      <trkpt lat="48.10569" lon="7.06979">
        <ele>1297</ele>
        <time>2012-05-19T08:42:20Z</time>
      </trkpt>
      <trkpt lat="48.10565" lon="7.06976">
        <ele>1297</ele>
        <time>2012-05-19T08:42:22Z</time>
      </trkpt>
      <trkpt lat="48.10536" lon="7.06954">
        <ele>1294</ele>
        <time>2012-05-19T08:42:32Z</time>
      </trkpt>
      <trkpt lat="48.10482" lon="7.06903">
        <ele>1290</ele>
        <time>2012-05-19T08:42:48Z</time>
      </trkpt>
      <trkpt lat="48.10431" lon="7.06851">
        <ele>1290</ele>
        <time>2012-05-19T08:43:10Z</time>
      </trkpt>
      <trkpt lat="48.10429" lon="7.06844">
        <ele>1290</ele>
        <time>2012-05-19T08:43:15Z</time>
      </trkpt>
      <trkpt lat="48.10425" lon="7.0684">
        <ele>1290</ele>
        <time>2012-05-19T08:43:20Z</time>
      </trkpt>
      <trkpt lat="48.10419" lon="7.06838">
        <ele>1290</ele>
        <time>2012-05-19T08:43:24Z</time>
      </trkpt>
      <trkpt lat="48.10385" lon="7.06825">
        <ele>1290</ele>
        <time>2012-05-19T08:43:38Z</time>
      </trkpt>
      <trkpt lat="48.10364" lon="7.06814">
        <ele>1289</ele>
        <time>2012-05-19T08:43:46Z</time>
      </trkpt>
      <trkpt lat="48.10312" lon="7.06833">
        <ele>1289</ele>
        <time>2012-05-19T08:44:15Z</time>
      </trkpt>
      <trkpt lat="48.10308" lon="7.06836">
        <ele>1288</ele>
        <time>2012-05-19T08:44:21Z</time>
      </trkpt>
      <trkpt lat="48.10307" lon="7.06844">
        <ele>1289</ele>
        <time>2012-05-19T08:44:25Z</time>
      </trkpt>
      <trkpt lat="48.10302" lon="7.06858">
        <ele>1291</ele>
        <time>2012-05-19T08:44:34Z</time>
      </trkpt>
      <trkpt lat="48.10298" lon="7.06861">
        <ele>1292</ele>
        <time>2012-05-19T08:44:40Z</time>
      </trkpt>
      <trkpt lat="48.10295" lon="7.06867">
        <ele>1293</ele>
        <time>2012-05-19T08:44:46Z</time>
      </trkpt>
      <trkpt lat="48.10293" lon="7.06875">
        <ele>1294</ele>
        <time>2012-05-19T08:44:50Z</time>
      </trkpt>
      <trkpt lat="48.10288" lon="7.06886">
        <ele>1296</ele>
        <time>2012-05-19T08:45:00Z</time>
      </trkpt>
      <trkpt lat="48.10283" lon="7.06884">
        <ele>1297</ele>
        <time>2012-05-19T08:45:05Z</time>
      </trkpt>
      <trkpt lat="48.10265" lon="7.0686">
        <ele>1303</ele>
        <time>2012-05-19T08:45:33Z</time>
      </trkpt>
      <trkpt lat="48.1026" lon="7.06856">
        <ele>1303</ele>
        <time>2012-05-19T08:45:44Z</time>
      </trkpt>
      <trkpt lat="48.10256" lon="7.06855">
        <ele>1303</ele>
        <time>2012-05-19T08:45:51Z</time>
      </trkpt>
      <trkpt lat="48.10247" lon="7.06846">
        <ele>1304</ele>
        <time>2012-05-19T08:46:01Z</time>
      </trkpt>
      <trkpt lat="48.10242" lon="7.06844">
        <ele>1304</ele>
        <time>2012-05-19T08:46:04Z</time>
      </trkpt>
      <trkpt lat="48.10225" lon="7.06832">
        <ele>1305</ele>
        <time>2012-05-19T08:46:11Z</time>
      </trkpt>
      <trkpt lat="48.10203" lon="7.06815">
        <ele>1304</ele>
        <time>2012-05-19T08:46:21Z</time>
      </trkpt>
      <trkpt lat="48.1019" lon="7.06814">
        <ele>1305</ele>
        <time>2012-05-19T08:46:25Z</time>
      </trkpt>
      <trkpt lat="48.10183" lon="7.06811">
        <ele>1305</ele>
        <time>2012-05-19T08:46:27Z</time>
      </trkpt>
      <trkpt lat="48.10135" lon="7.06781">
        <ele>1303</ele>
        <time>2012-05-19T08:46:38Z</time>
      </trkpt>
      <trkpt lat="48.10105" lon="7.06757">
        <ele>1305</ele>
        <time>2012-05-19T08:46:48Z</time>
      </trkpt>
      <trkpt lat="48.10094" lon="7.06749">
        <ele>1305</ele>
        <time>2012-05-19T08:46:52Z</time>
      </trkpt>
      <trkpt lat="48.10003" lon="7.06618">
        <ele>1299</ele>
        <time>2012-05-19T08:47:22Z</time>
      </trkpt>
      <trkpt lat="48.0996" lon="7.06568">
        <ele>1298</ele>
        <time>2012-05-19T08:47:36Z</time>
      </trkpt>
      <trkpt lat="48.09956" lon="7.06563">
        <ele>1298</ele>
        <time>2012-05-19T08:47:38Z</time>
      </trkpt>
      <trkpt lat="48.09951" lon="7.06556">
        <ele>1298</ele>
        <time>2012-05-19T08:47:41Z</time>
      </trkpt>
      <trkpt lat="48.0989" lon="7.06492">
        <ele>1303</ele>
        <time>2012-05-19T08:48:12Z</time>
      </trkpt>
      <trkpt lat="48.0986" lon="7.06464">
        <ele>1304</ele>
        <time>2012-05-19T08:48:24Z</time>
      </trkpt>
      <trkpt lat="48.09775" lon="7.06402">
        <ele>1296</ele>
        <time>2012-05-19T08:48:57Z</time>
      </trkpt>
      <trkpt lat="48.09718" lon="7.06354">
        <ele>1285</ele>
        <time>2012-05-19T08:49:20Z</time>
      </trkpt>
      <trkpt lat="48.09713" lon="7.06354">
        <ele>1284</ele>
        <time>2012-05-19T08:49:22Z</time>
      </trkpt>
      <trkpt lat="48.09639" lon="7.06304">
        <ele>1270</ele>
        <time>2012-05-19T08:49:54Z</time>
      </trkpt>
      <trkpt lat="48.09556" lon="7.06257">
        <ele>1255</ele>
        <time>2012-05-19T08:50:24Z</time>
      </trkpt>
      <trkpt lat="48.09433" lon="7.06183">
        <ele>1241</ele>
        <time>2012-05-19T08:50:56Z</time>
      </trkpt>
      <trkpt lat="48.09341" lon="7.06137">
        <ele>1232</ele>
        <time>2012-05-19T08:51:15Z</time>
      </trkpt>
      <trkpt lat="48.09339" lon="7.06133">
        <ele>1230</ele>
        <time>2012-05-19T08:51:29Z</time>
      </trkpt>
      <trkpt lat="48.09336" lon="7.06128">
        <ele>1231</ele>
        <time>2012-05-19T08:51:34Z</time>
      </trkpt>
      <trkpt lat="48.09329" lon="7.06122">
        <ele>1230</ele>
        <time>2012-05-19T08:51:37Z</time>
      </trkpt>
      <trkpt lat="48.09325" lon="7.06118">
        <ele>1230</ele>
        <time>2012-05-19T08:51:39Z</time>
      </trkpt>
      <trkpt lat="48.09315" lon="7.06101">
        <ele>1229</ele>
        <time>2012-05-19T08:51:46Z</time>
      </trkpt>
      <trkpt lat="48.09309" lon="7.061">
        <ele>1227</ele>
        <time>2012-05-19T08:51:49Z</time>
      </trkpt>
      <trkpt lat="48.09303" lon="7.06098">
        <ele>1227</ele>
        <time>2012-05-19T08:51:52Z</time>
      </trkpt>
      <trkpt lat="48.09295" lon="7.06083">
        <ele>1226</ele>
        <time>2012-05-19T08:51:57Z</time>
      </trkpt>
      <trkpt lat="48.09293" lon="7.06074">
        <ele>1226</ele>
        <time>2012-05-19T08:52:01Z</time>
      </trkpt>
      <trkpt lat="48.09289" lon="7.06069">
        <ele>1226</ele>
        <time>2012-05-19T08:52:04Z</time>
      </trkpt>
      <trkpt lat="48.09284" lon="7.06063">
        <ele>1226</ele>
        <time>2012-05-19T08:52:07Z</time>
      </trkpt>
      <trkpt lat="48.09276" lon="7.06055">
        <ele>1227</ele>
        <time>2012-05-19T08:52:11Z</time>
      </trkpt>
      <trkpt lat="48.09272" lon="7.06052">
        <ele>1227</ele>
        <time>2012-05-19T08:52:14Z</time>
      </trkpt>
      <trkpt lat="48.09265" lon="7.06048">
        <ele>1227</ele>
        <time>2012-05-19T08:52:18Z</time>
      </trkpt>
      <trkpt lat="48.09244" lon="7.06036">
        <ele>1229</ele>
        <time>2012-05-19T08:52:27Z</time>
      </trkpt>
      <trkpt lat="48.09209" lon="7.05995">
        <ele>1225</ele>
        <time>2012-05-19T08:52:48Z</time>
      </trkpt>
      <trkpt lat="48.09195" lon="7.05979">
        <ele>1229</ele>
        <time>2012-05-19T08:52:57Z</time>
      </trkpt>
      <trkpt lat="48.09094" lon="7.05888">
        <ele>1215</ele>
        <time>2012-05-19T08:53:24Z</time>
      </trkpt>
      <trkpt lat="48.09086" lon="7.05879">
        <ele>1215</ele>
        <time>2012-05-19T08:53:26Z</time>
      </trkpt>
      <trkpt lat="48.09055" lon="7.05848">
        <ele>1220</ele>
        <time>2012-05-19T08:53:34Z</time>
      </trkpt>
      <trkpt lat="48.09045" lon="7.0584">
        <ele>1220</ele>
        <time>2012-05-19T08:53:37Z</time>
      </trkpt>
      <trkpt lat="48.09037" lon="7.05833">
        <ele>1221</ele>
        <time>2012-05-19T08:53:40Z</time>
      </trkpt>
      <trkpt lat="48.08996" lon="7.05812">
        <ele>1232</ele>
        <time>2012-05-19T08:54:12Z</time>
      </trkpt>
      <trkpt lat="48.0899" lon="7.05809">
        <ele>1233</ele>
        <time>2012-05-19T08:54:16Z</time>
      </trkpt>
      <trkpt lat="48.08977" lon="7.05803">
        <ele>1233</ele>
        <time>2012-05-19T08:54:23Z</time>
      </trkpt>
      <trkpt lat="48.08955" lon="7.0579">
        <ele>1238</ele>
        <time>2012-05-19T08:54:42Z</time>
      </trkpt>
      <trkpt lat="48.08946" lon="7.05785">
        <ele>1237</ele>
        <time>2012-05-19T08:54:54Z</time>
      </trkpt>
      <trkpt lat="48.08941" lon="7.05783">
        <ele>1237</ele>
        <time>2012-05-19T08:54:56Z</time>
      </trkpt>
      <trkpt lat="48.0892" lon="7.05773">
        <ele>1241</ele>
        <time>2012-05-19T08:55:14Z</time>
      </trkpt>
      <trkpt lat="48.0891" lon="7.05769">
        <ele>1241</ele>
        <time>2012-05-19T08:55:23Z</time>
      </trkpt>
      <trkpt lat="48.08907" lon="7.05764">
        <ele>1245</ele>
        <time>2012-05-19T08:55:44Z</time>
      </trkpt>
      <trkpt lat="48.08901" lon="7.05762">
        <ele>1246</ele>
        <time>2012-05-19T08:55:47Z</time>
      </trkpt>
      <trkpt lat="48.08896" lon="7.0576">
        <ele>1246</ele>
        <time>2012-05-19T08:55:50Z</time>
      </trkpt>
      <trkpt lat="48.08885" lon="7.05753">
        <ele>1244</ele>
        <time>2012-05-19T08:55:56Z</time>
      </trkpt>
      <trkpt lat="48.08806" lon="7.05681">
        <ele>1234</ele>
        <time>2012-05-19T08:56:19Z</time>
      </trkpt>
      <trkpt lat="48.08803" lon="7.05673">
        <ele>1249</ele>
        <time>2012-05-19T08:56:39Z</time>
      </trkpt>
      <trkpt lat="48.08804" lon="7.05668">
        <ele>1252</ele>
        <time>2012-05-19T08:56:55Z</time>
      </trkpt>
      <trkpt lat="48.088" lon="7.05665">
        <ele>1250</ele>
        <time>2012-05-19T08:57:23Z</time>
      </trkpt>
      <trkpt lat="48.0879" lon="7.05666">
        <ele>1245</ele>
        <time>2012-05-19T08:57:32Z</time>
      </trkpt>
      <trkpt lat="48.08785" lon="7.05662">
        <ele>1243</ele>
        <time>2012-05-19T08:57:37Z</time>
      </trkpt>
      <trkpt lat="48.08775" lon="7.05658">
        <ele>1241</ele>
        <time>2012-05-19T08:57:41Z</time>
      </trkpt>
      <trkpt lat="48.08768" lon="7.05652">
        <ele>1240</ele>
        <time>2012-05-19T08:57:45Z</time>
      </trkpt>
      <trkpt lat="48.08764" lon="7.05647">
        <ele>1241</ele>
        <time>2012-05-19T08:57:48Z</time>
      </trkpt>
      <trkpt lat="48.08747" lon="7.05635">
        <ele>1238</ele>
        <time>2012-05-19T08:57:56Z</time>
      </trkpt>
      <trkpt lat="48.08743" lon="7.05632">
        <ele>1238</ele>
        <time>2012-05-19T08:57:59Z</time>
      </trkpt>
      <trkpt lat="48.08737" lon="7.05628">
        <ele>1238</ele>
        <time>2012-05-19T08:58:03Z</time>
      </trkpt>
      <trkpt lat="48.08733" lon="7.05623">
        <ele>1238</ele>
        <time>2012-05-19T08:58:08Z</time>
      </trkpt>
      <trkpt lat="48.0873" lon="7.05615">
        <ele>1238</ele>
        <time>2012-05-19T08:58:12Z</time>
      </trkpt>
      <trkpt lat="48.08727" lon="7.05607">
        <ele>1239</ele>
        <time>2012-05-19T08:58:16Z</time>
      </trkpt>
      <trkpt lat="48.08721" lon="7.05596">
        <ele>1240</ele>
        <time>2012-05-19T08:58:21Z</time>
      </trkpt>
      <trkpt lat="48.08721" lon="7.05588">
        <ele>1240</ele>
        <time>2012-05-19T08:58:24Z</time>
      </trkpt>
      <trkpt lat="48.08722" lon="7.05579">
        <ele>1238</ele>
        <time>2012-05-19T08:58:33Z</time>
      </trkpt>
      <trkpt lat="48.08725" lon="7.05556">
        <ele>1238</ele>
        <time>2012-05-19T08:58:42Z</time>
      </trkpt>
      <trkpt lat="48.08726" lon="7.05549">
        <ele>1239</ele>
        <time>2012-05-19T08:58:45Z</time>
      </trkpt>
      <trkpt lat="48.08728" lon="7.05541">
        <ele>1239</ele>
        <time>2012-05-19T08:58:49Z</time>
      </trkpt>
      <trkpt lat="48.08728" lon="7.05433">
        <ele>1234</ele>
        <time>2012-05-19T08:59:13Z</time>
      </trkpt>
      <trkpt lat="48.08712" lon="7.05399">
        <ele>1232</ele>
        <time>2012-05-19T08:59:19Z</time>
      </trkpt>
      <trkpt lat="48.08681" lon="7.0535">
        <ele>1231</ele>
        <time>2012-05-19T08:59:31Z</time>
      </trkpt>
      <trkpt lat="48.08661" lon="7.05323">
        <ele>1238</ele>
        <time>2012-05-19T08:59:52Z</time>
      </trkpt>
      <trkpt lat="48.08647" lon="7.05317">
        <ele>1242</ele>
        <time>2012-05-19T09:00:05Z</time>
      </trkpt>
      <trkpt lat="48.08641" lon="7.05313">
        <ele>1243</ele>
        <time>2012-05-19T09:00:09Z</time>
      </trkpt>
      <trkpt lat="48.0864" lon="7.05307">
        <ele>1243</ele>
        <time>2012-05-19T09:00:12Z</time>
      </trkpt>
      <trkpt lat="48.08636" lon="7.05297">
        <ele>1244</ele>
        <time>2012-05-19T09:00:16Z</time>
      </trkpt>
      <trkpt lat="48.08632" lon="7.05292">
        <ele>1245</ele>
        <time>2012-05-19T09:00:20Z</time>
      </trkpt>
      <trkpt lat="48.08618" lon="7.05284">
        <ele>1246</ele>
        <time>2012-05-19T09:00:35Z</time>
      </trkpt>
      <trkpt lat="48.08614" lon="7.05279">
        <ele>1246</ele>
        <time>2012-05-19T09:00:39Z</time>
      </trkpt>
      <trkpt lat="48.08609" lon="7.05277">
        <ele>1246</ele>
        <time>2012-05-19T09:00:42Z</time>
      </trkpt>
      <trkpt lat="48.08603" lon="7.05273">
        <ele>1246</ele>
        <time>2012-05-19T09:00:45Z</time>
      </trkpt>
      <trkpt lat="48.08598" lon="7.05268">
        <ele>1248</ele>
        <time>2012-05-19T09:00:57Z</time>
      </trkpt>
      <trkpt lat="48.08587" lon="7.05253">
        <ele>1249</ele>
        <time>2012-05-19T09:01:14Z</time>
      </trkpt>
      <trkpt lat="48.08584" lon="7.05249">
        <ele>1251</ele>
        <time>2012-05-19T09:01:24Z</time>
      </trkpt>
      <trkpt lat="48.08558" lon="7.05245">
        <ele>1259</ele>
        <time>2012-05-19T09:01:59Z</time>
      </trkpt>
      <trkpt lat="48.08534" lon="7.05235">
        <ele>1265</ele>
        <time>2012-05-19T09:02:36Z</time>
      </trkpt>
      <trkpt lat="48.0853" lon="7.05233">
        <ele>1266</ele>
        <time>2012-05-19T09:02:41Z</time>
      </trkpt>
      <trkpt lat="48.08515" lon="7.05234">
        <ele>1271</ele>
        <time>2012-05-19T09:03:11Z</time>
      </trkpt>
      <trkpt lat="48.08507" lon="7.0523">
        <ele>1272</ele>
        <time>2012-05-19T09:03:24Z</time>
      </trkpt>
      <trkpt lat="48.08503" lon="7.05236">
        <ele>1274</ele>
        <time>2012-05-19T09:03:32Z</time>
      </trkpt>
      <trkpt lat="48.0848" lon="7.05243">
        <ele>1281</ele>
        <time>2012-05-19T09:04:04Z</time>
      </trkpt>
      <trkpt lat="48.08462" lon="7.05234">
        <ele>1287</ele>
        <time>2012-05-19T09:04:32Z</time>
      </trkpt>
      <trkpt lat="48.08456" lon="7.05227">
        <ele>1288</ele>
        <time>2012-05-19T09:04:44Z</time>
      </trkpt>
      <trkpt lat="48.08449" lon="7.05225">
        <ele>1289</ele>
        <time>2012-05-19T09:06:45Z</time>
      </trkpt>
      <trkpt lat="48.08438" lon="7.05223">
        <ele>1289</ele>
        <time>2012-05-19T09:06:50Z</time>
      </trkpt>
      <trkpt lat="48.08412" lon="7.05215">
        <ele>1290</ele>
        <time>2012-05-19T09:07:02Z</time>
      </trkpt>
      <trkpt lat="48.08399" lon="7.05215">
        <ele>1290</ele>
        <time>2012-05-19T09:07:08Z</time>
      </trkpt>
      <trkpt lat="48.08376" lon="7.05213">
        <ele>1291</ele>
        <time>2012-05-19T09:07:27Z</time>
      </trkpt>
      <trkpt lat="48.08372" lon="7.05218">
        <ele>1291</ele>
        <time>2012-05-19T09:07:31Z</time>
      </trkpt>
      <trkpt lat="48.08367" lon="7.05218">
        <ele>1292</ele>
        <time>2012-05-19T09:07:38Z</time>
      </trkpt>
      <trkpt lat="48.08358" lon="7.05216">
        <ele>1292</ele>
        <time>2012-05-19T09:07:57Z</time>
      </trkpt>
      <trkpt lat="48.08346" lon="7.05212">
        <ele>1292</ele>
        <time>2012-05-19T09:08:19Z</time>
      </trkpt>
      <trkpt lat="48.08344" lon="7.05214">
        <ele>1293</ele>
        <time>2012-05-19T09:08:30Z</time>
      </trkpt>
      <trkpt lat="48.0834" lon="7.05208">
        <ele>1294</ele>
        <time>2012-05-19T09:08:48Z</time>
      </trkpt>
      <trkpt lat="48.08335" lon="7.05206">
        <ele>1294</ele>
        <time>2012-05-19T09:08:54Z</time>
      </trkpt>
      <trkpt lat="48.08331" lon="7.05203">
        <ele>1294</ele>
        <time>2012-05-19T09:09:03Z</time>
      </trkpt>
      <trkpt lat="48.08309" lon="7.05195">
        <ele>1288</ele>
        <time>2012-05-19T09:09:36Z</time>
      </trkpt>
      <trkpt lat="48.08304" lon="7.05192">
        <ele>1288</ele>
        <time>2012-05-19T09:09:41Z</time>
      </trkpt>
      <trkpt lat="48.08295" lon="7.05185">
        <ele>1285</ele>
        <time>2012-05-19T09:09:54Z</time>
      </trkpt>
      <trkpt lat="48.08286" lon="7.05173">
        <ele>1281</ele>
        <time>2012-05-19T09:10:11Z</time>
      </trkpt>
      <trkpt lat="48.08264" lon="7.05162">
        <ele>1277</ele>
        <time>2012-05-19T09:10:39Z</time>
      </trkpt>
      <trkpt lat="48.0826" lon="7.05157">
        <ele>1277</ele>
        <time>2012-05-19T09:10:42Z</time>
      </trkpt>
      <trkpt lat="48.08259" lon="7.0515">
        <ele>1276</ele>
        <time>2012-05-19T09:10:50Z</time>
      </trkpt>
      <trkpt lat="48.08257" lon="7.05148">
        <ele>1276</ele>
        <time>2012-05-19T09:10:56Z</time>
      </trkpt>
      <trkpt lat="48.08252" lon="7.05149">
        <ele>1276</ele>
        <time>2012-05-19T09:11:01Z</time>
      </trkpt>
      <trkpt lat="48.08246" lon="7.05145">
        <ele>1275</ele>
        <time>2012-05-19T09:11:07Z</time>
      </trkpt>
      <trkpt lat="48.08172" lon="7.05028">
        <ele>1266</ele>
        <time>2012-05-19T09:11:37Z</time>
      </trkpt>
      <trkpt lat="48.08147" lon="7.04986">
        <ele>1264</ele>
        <time>2012-05-19T09:11:47Z</time>
      </trkpt>
      <trkpt lat="48.08138" lon="7.04977">
        <ele>1264</ele>
        <time>2012-05-19T09:11:51Z</time>
      </trkpt>
      <trkpt lat="48.08134" lon="7.04971">
        <ele>1265</ele>
        <time>2012-05-19T09:11:54Z</time>
      </trkpt>
      <trkpt lat="48.08131" lon="7.04964">
        <ele>1265</ele>
        <time>2012-05-19T09:11:57Z</time>
      </trkpt>
      <trkpt lat="48.08127" lon="7.04958">
        <ele>1265</ele>
        <time>2012-05-19T09:12:00Z</time>
      </trkpt>
      <trkpt lat="48.08123" lon="7.04951">
        <ele>1265</ele>
        <time>2012-05-19T09:12:03Z</time>
      </trkpt>
      <trkpt lat="48.08116" lon="7.0494">
        <ele>1267</ele>
        <time>2012-05-19T09:12:09Z</time>
      </trkpt>
      <trkpt lat="48.08106" lon="7.04919">
        <ele>1269</ele>
        <time>2012-05-19T09:12:18Z</time>
      </trkpt>
      <trkpt lat="48.08082" lon="7.04881">
        <ele>1272</ele>
        <time>2012-05-19T09:12:42Z</time>
      </trkpt>
      <trkpt lat="48.08075" lon="7.04869">
        <ele>1273</ele>
        <time>2012-05-19T09:12:50Z</time>
      </trkpt>
      <trkpt lat="48.08048" lon="7.04816">
        <ele>1276</ele>
        <time>2012-05-19T09:13:20Z</time>
      </trkpt>
      <trkpt lat="48.08013" lon="7.04761">
        <ele>1280</ele>
        <time>2012-05-19T09:13:53Z</time>
      </trkpt>
      <trkpt lat="48.0801" lon="7.04755">
        <ele>1281</ele>
        <time>2012-05-19T09:13:57Z</time>
      </trkpt>
      <trkpt lat="48.07991" lon="7.04683">
        <ele>1286</ele>
        <time>2012-05-19T09:14:29Z</time>
      </trkpt>
      <trkpt lat="48.07984" lon="7.0466">
        <ele>1286</ele>
        <time>2012-05-19T09:14:38Z</time>
      </trkpt>
      <trkpt lat="48.07977" lon="7.04617">
        <ele>1289</ele>
        <time>2012-05-19T09:15:08Z</time>
      </trkpt>
      <trkpt lat="48.07973" lon="7.04613">
        <ele>1289</ele>
        <time>2012-05-19T09:15:16Z</time>
      </trkpt>
      <trkpt lat="48.07972" lon="7.04609">
        <ele>1290</ele>
        <time>2012-05-19T09:15:23Z</time>
      </trkpt>
      <trkpt lat="48.07975" lon="7.04601">
        <ele>1290</ele>
        <time>2012-05-19T09:16:45Z</time>
      </trkpt>
      <trkpt lat="48.07974" lon="7.04592">
        <ele>1290</ele>
        <time>2012-05-19T09:16:48Z</time>
      </trkpt>
      <trkpt lat="48.07974" lon="7.04586">
        <ele>1290</ele>
        <time>2012-05-19T09:16:56Z</time>
      </trkpt>
      <trkpt lat="48.07967" lon="7.04567">
        <ele>1288</ele>
        <time>2012-05-19T09:17:14Z</time>
      </trkpt>
      <trkpt lat="48.07962" lon="7.04561">
        <ele>1287</ele>
        <time>2012-05-19T09:17:21Z</time>
      </trkpt>
      <trkpt lat="48.07963" lon="7.04554">
        <ele>1288</ele>
        <time>2012-05-19T09:17:27Z</time>
      </trkpt>
      <trkpt lat="48.07965" lon="7.04547">
        <ele>1288</ele>
        <time>2012-05-19T09:17:32Z</time>
      </trkpt>
      <trkpt lat="48.07969" lon="7.04542">
        <ele>1287</ele>
        <time>2012-05-19T09:17:38Z</time>
      </trkpt>
      <trkpt lat="48.07967" lon="7.04536">
        <ele>1285</ele>
        <time>2012-05-19T09:17:45Z</time>
      </trkpt>
      <trkpt lat="48.07962" lon="7.04516">
        <ele>1282</ele>
        <time>2012-05-19T09:17:59Z</time>
      </trkpt>
      <trkpt lat="48.07959" lon="7.04507">
        <ele>1282</ele>
        <time>2012-05-19T09:18:08Z</time>
      </trkpt>
      <trkpt lat="48.07956" lon="7.04449">
        <ele>1281</ele>
        <time>2012-05-19T09:18:23Z</time>
      </trkpt>
      <trkpt lat="48.07955" lon="7.04441">
        <ele>1280</ele>
        <time>2012-05-19T09:18:25Z</time>
      </trkpt>
      <trkpt lat="48.07952" lon="7.04411">
        <ele>1280</ele>
        <time>2012-05-19T09:18:31Z</time>
      </trkpt>
      <trkpt lat="48.07952" lon="7.04404">
        <ele>1279</ele>
        <time>2012-05-19T09:18:33Z</time>
      </trkpt>
      <trkpt lat="48.07952" lon="7.04396">
        <ele>1279</ele>
        <time>2012-05-19T09:18:35Z</time>
      </trkpt>
      <trkpt lat="48.07931" lon="7.04201">
        <ele>1269</ele>
        <time>2012-05-19T09:19:07Z</time>
      </trkpt>
      <trkpt lat="48.0792" lon="7.04129">
        <ele>1266</ele>
        <time>2012-05-19T09:19:22Z</time>
      </trkpt>
      <trkpt lat="48.07918" lon="7.04114">
        <ele>1267</ele>
        <time>2012-05-19T09:19:29Z</time>
      </trkpt>
      <trkpt lat="48.07916" lon="7.04105">
        <ele>1266</ele>
        <time>2012-05-19T09:19:33Z</time>
      </trkpt>
      <trkpt lat="48.07917" lon="7.04099">
        <ele>1266</ele>
        <time>2012-05-19T09:19:37Z</time>
      </trkpt>
      <trkpt lat="48.07917" lon="7.04091">
        <ele>1269</ele>
        <time>2012-05-19T09:19:47Z</time>
      </trkpt>
      <trkpt lat="48.07915" lon="7.04088">
        <ele>1267</ele>
        <time>2012-05-19T09:19:59Z</time>
      </trkpt>
      <trkpt lat="48.07913" lon="7.04079">
        <ele>1267</ele>
        <time>2012-05-19T09:20:03Z</time>
      </trkpt>
      <trkpt lat="48.07912" lon="7.04065">
        <ele>1267</ele>
        <time>2012-05-19T09:20:08Z</time>
      </trkpt>
      <trkpt lat="48.07908" lon="7.0405">
        <ele>1268</ele>
        <time>2012-05-19T09:20:12Z</time>
      </trkpt>
      <trkpt lat="48.07907" lon="7.04033">
        <ele>1268</ele>
        <time>2012-05-19T09:20:18Z</time>
      </trkpt>
      <trkpt lat="48.07906" lon="7.04024">
        <ele>1267</ele>
        <time>2012-05-19T09:20:21Z</time>
      </trkpt>
      <trkpt lat="48.0791" lon="7.03976">
        <ele>1264</ele>
        <time>2012-05-19T09:20:33Z</time>
      </trkpt>
      <trkpt lat="48.07903" lon="7.03949">
        <ele>1263</ele>
        <time>2012-05-19T09:20:39Z</time>
      </trkpt>
      <trkpt lat="48.07899" lon="7.03939">
        <ele>1263</ele>
        <time>2012-05-19T09:20:42Z</time>
      </trkpt>
      <trkpt lat="48.07887" lon="7.03922">
        <ele>1263</ele>
        <time>2012-05-19T09:20:50Z</time>
      </trkpt>
      <trkpt lat="48.07871" lon="7.03897">
        <ele>1264</ele>
        <time>2012-05-19T09:21:01Z</time>
      </trkpt>
      <trkpt lat="48.07867" lon="7.03884">
        <ele>1264</ele>
        <time>2012-05-19T09:21:06Z</time>
      </trkpt>
      <trkpt lat="48.07853" lon="7.03853">
        <ele>1266</ele>
        <time>2012-05-19T09:21:17Z</time>
      </trkpt>
      <trkpt lat="48.07844" lon="7.03828">
        <ele>1265</ele>
        <time>2012-05-19T09:21:24Z</time>
      </trkpt>
      <trkpt lat="48.07833" lon="7.03811">
        <ele>1266</ele>
        <time>2012-05-19T09:21:28Z</time>
      </trkpt>
      <trkpt lat="48.07831" lon="7.03799">
        <ele>1266</ele>
        <time>2012-05-19T09:21:30Z</time>
      </trkpt>
      <trkpt lat="48.07825" lon="7.03769">
        <ele>1265</ele>
        <time>2012-05-19T09:21:35Z</time>
      </trkpt>
      <trkpt lat="48.07813" lon="7.03741">
        <ele>1266</ele>
        <time>2012-05-19T09:21:41Z</time>
      </trkpt>
      <trkpt lat="48.07807" lon="7.03736">
        <ele>1266</ele>
        <time>2012-05-19T09:21:43Z</time>
      </trkpt>
      <trkpt lat="48.07801" lon="7.03731">
        <ele>1266</ele>
        <time>2012-05-19T09:21:45Z</time>
      </trkpt>
      <trkpt lat="48.07795" lon="7.03727">
        <ele>1266</ele>
        <time>2012-05-19T09:21:47Z</time>
      </trkpt>
      <trkpt lat="48.07791" lon="7.03722">
        <ele>1267</ele>
        <time>2012-05-19T09:21:54Z</time>
      </trkpt>
      <trkpt lat="48.07788" lon="7.03715">
        <ele>1266</ele>
        <time>2012-05-19T09:22:00Z</time>
      </trkpt>
      <trkpt lat="48.07784" lon="7.03711">
        <ele>1267</ele>
        <time>2012-05-19T09:22:07Z</time>
      </trkpt>
      <trkpt lat="48.07781" lon="7.03706">
        <ele>1267</ele>
        <time>2012-05-19T09:22:13Z</time>
      </trkpt>
      <trkpt lat="48.07777" lon="7.03703">
        <ele>1267</ele>
        <time>2012-05-19T09:22:17Z</time>
      </trkpt>
      <trkpt lat="48.07757" lon="7.0368">
        <ele>1270</ele>
        <time>2012-05-19T09:22:46Z</time>
      </trkpt>
      <trkpt lat="48.07752" lon="7.03678">
        <ele>1270</ele>
        <time>2012-05-19T09:22:53Z</time>
      </trkpt>
      <trkpt lat="48.07747" lon="7.03677">
        <ele>1271</ele>
        <time>2012-05-19T09:22:59Z</time>
      </trkpt>
      <trkpt lat="48.07734" lon="7.03665">
        <ele>1273</ele>
        <time>2012-05-19T09:23:17Z</time>
      </trkpt>
      <trkpt lat="48.07729" lon="7.03664">
        <ele>1275</ele>
        <time>2012-05-19T09:23:23Z</time>
      </trkpt>
      <trkpt lat="48.07715" lon="7.03664">
        <ele>1274</ele>
        <time>2012-05-19T09:23:36Z</time>
      </trkpt>
      <trkpt lat="48.0771" lon="7.03664">
        <ele>1274</ele>
        <time>2012-05-19T09:23:39Z</time>
      </trkpt>
      <trkpt lat="48.07705" lon="7.03663">
        <ele>1273</ele>
        <time>2012-05-19T09:23:43Z</time>
      </trkpt>
      <trkpt lat="48.07702" lon="7.03658">
        <ele>1273</ele>
        <time>2012-05-19T09:23:46Z</time>
      </trkpt>
      <trkpt lat="48.07696" lon="7.03655">
        <ele>1273</ele>
        <time>2012-05-19T09:23:50Z</time>
      </trkpt>
      <trkpt lat="48.07689" lon="7.03654">
        <ele>1274</ele>
        <time>2012-05-19T09:23:53Z</time>
      </trkpt>
      <trkpt lat="48.07682" lon="7.03654">
        <ele>1274</ele>
        <time>2012-05-19T09:23:55Z</time>
      </trkpt>
      <trkpt lat="48.0766" lon="7.03632">
        <ele>1273</ele>
        <time>2012-05-19T09:24:02Z</time>
      </trkpt>
      <trkpt lat="48.07661" lon="7.03624">
        <ele>1273</ele>
        <time>2012-05-19T09:24:05Z</time>
      </trkpt>
      <trkpt lat="48.07662" lon="7.03616">
        <ele>1273</ele>
        <time>2012-05-19T09:24:07Z</time>
      </trkpt>
      <trkpt lat="48.07665" lon="7.03611">
        <ele>1273</ele>
        <time>2012-05-19T09:24:10Z</time>
      </trkpt>
      <trkpt lat="48.07664" lon="7.03603">
        <ele>1273</ele>
        <time>2012-05-19T09:24:13Z</time>
      </trkpt>
      <trkpt lat="48.0766" lon="7.03597">
        <ele>1272</ele>
        <time>2012-05-19T09:24:17Z</time>
      </trkpt>
      <trkpt lat="48.07656" lon="7.03592">
        <ele>1271</ele>
        <time>2012-05-19T09:24:19Z</time>
      </trkpt>
      <trkpt lat="48.0765" lon="7.03591">
        <ele>1271</ele>
        <time>2012-05-19T09:24:21Z</time>
      </trkpt>
      <trkpt lat="48.0764" lon="7.03575">
        <ele>1269</ele>
        <time>2012-05-19T09:24:25Z</time>
      </trkpt>
      <trkpt lat="48.07562" lon="7.03452">
        <ele>1263</ele>
        <time>2012-05-19T09:24:56Z</time>
      </trkpt>
      <trkpt lat="48.07558" lon="7.03444">
        <ele>1263</ele>
        <time>2012-05-19T09:24:58Z</time>
      </trkpt>
      <trkpt lat="48.07524" lon="7.03389">
        <ele>1260</ele>
        <time>2012-05-19T09:25:10Z</time>
      </trkpt>
      <trkpt lat="48.0751" lon="7.03363">
        <ele>1261</ele>
        <time>2012-05-19T09:25:16Z</time>
      </trkpt>
      <trkpt lat="48.07436" lon="7.0323">
        <ele>1244</ele>
        <time>2012-05-19T09:25:48Z</time>
      </trkpt>
      <trkpt lat="48.07384" lon="7.03156">
        <ele>1232</ele>
        <time>2012-05-19T09:26:19Z</time>
      </trkpt>
      <trkpt lat="48.0738" lon="7.03152">
        <ele>1231</ele>
        <time>2012-05-19T09:26:21Z</time>
      </trkpt>
      <trkpt lat="48.0734" lon="7.03117">
        <ele>1232</ele>
        <time>2012-05-19T09:26:39Z</time>
      </trkpt>
      <trkpt lat="48.07328" lon="7.03098">
        <ele>1235</ele>
        <time>2012-05-19T09:26:50Z</time>
      </trkpt>
      <trkpt lat="48.07306" lon="7.03085">
        <ele>1236</ele>
        <time>2012-05-19T09:27:01Z</time>
      </trkpt>
      <trkpt lat="48.07293" lon="7.03073">
        <ele>1240</ele>
        <time>2012-05-19T09:27:11Z</time>
      </trkpt>
      <trkpt lat="48.07289" lon="7.0307">
        <ele>1240</ele>
        <time>2012-05-19T09:27:14Z</time>
      </trkpt>
      <trkpt lat="48.07249" lon="7.03026">
        <ele>1250</ele>
        <time>2012-05-19T09:27:47Z</time>
      </trkpt>
      <trkpt lat="48.07247" lon="7.0302">
        <ele>1250</ele>
        <time>2012-05-19T09:27:51Z</time>
      </trkpt>
      <trkpt lat="48.07223" lon="7.03006">
        <ele>1256</ele>
        <time>2012-05-19T09:28:10Z</time>
      </trkpt>
      <trkpt lat="48.07219" lon="7.03003">
        <ele>1256</ele>
        <time>2012-05-19T09:28:13Z</time>
      </trkpt>
      <trkpt lat="48.07211" lon="7.02993">
        <ele>1256</ele>
        <time>2012-05-19T09:28:21Z</time>
      </trkpt>
      <trkpt lat="48.07206" lon="7.02987">
        <ele>1255</ele>
        <time>2012-05-19T09:28:25Z</time>
      </trkpt>
      <trkpt lat="48.07201" lon="7.02987">
        <ele>1254</ele>
        <time>2012-05-19T09:28:30Z</time>
      </trkpt>
      <trkpt lat="48.07196" lon="7.02989">
        <ele>1254</ele>
        <time>2012-05-19T09:28:34Z</time>
      </trkpt>
      <trkpt lat="48.07191" lon="7.02991">
        <ele>1254</ele>
        <time>2012-05-19T09:28:40Z</time>
      </trkpt>
      <trkpt lat="48.07187" lon="7.02986">
        <ele>1254</ele>
        <time>2012-05-19T09:28:45Z</time>
      </trkpt>
      <trkpt lat="48.07183" lon="7.02982">
        <ele>1254</ele>
        <time>2012-05-19T09:28:49Z</time>
      </trkpt>
      <trkpt lat="48.07177" lon="7.02977">
        <ele>1254</ele>
        <time>2012-05-19T09:28:51Z</time>
      </trkpt>
      <trkpt lat="48.07167" lon="7.02972">
        <ele>1254</ele>
        <time>2012-05-19T09:28:55Z</time>
      </trkpt>
      <trkpt lat="48.07156" lon="7.02971">
        <ele>1255</ele>
        <time>2012-05-19T09:28:59Z</time>
      </trkpt>
      <trkpt lat="48.0715" lon="7.02972">
        <ele>1254</ele>
        <time>2012-05-19T09:29:01Z</time>
      </trkpt>
      <trkpt lat="48.0712" lon="7.02982">
        <ele>1255</ele>
        <time>2012-05-19T09:29:11Z</time>
      </trkpt>
      <trkpt lat="48.07115" lon="7.02985">
        <ele>1254</ele>
        <time>2012-05-19T09:29:13Z</time>
      </trkpt>
      <trkpt lat="48.07106" lon="7.02979">
        <ele>1254</ele>
        <time>2012-05-19T09:29:17Z</time>
      </trkpt>
      <trkpt lat="48.07034" lon="7.02979">
        <ele>1255</ele>
        <time>2012-05-19T09:29:48Z</time>
      </trkpt>
      <trkpt lat="48.07024" lon="7.02983">
        <ele>1255</ele>
        <time>2012-05-19T09:29:53Z</time>
      </trkpt>
      <trkpt lat="48.07012" lon="7.02983">
        <ele>1256</ele>
        <time>2012-05-19T09:29:59Z</time>
      </trkpt>
      <trkpt lat="48.06992" lon="7.02998">
        <ele>1258</ele>
        <time>2012-05-19T09:30:09Z</time>
      </trkpt>
      <trkpt lat="48.06985" lon="7.02995">
        <ele>1258</ele>
        <time>2012-05-19T09:30:12Z</time>
      </trkpt>
      <trkpt lat="48.06974" lon="7.02986">
        <ele>1258</ele>
        <time>2012-05-19T09:30:18Z</time>
      </trkpt>
      <trkpt lat="48.06969" lon="7.02982">
        <ele>1258</ele>
        <time>2012-05-19T09:30:21Z</time>
      </trkpt>
      <trkpt lat="48.06944" lon="7.02979">
        <ele>1261</ele>
        <time>2012-05-19T09:30:34Z</time>
      </trkpt>
      <trkpt lat="48.06934" lon="7.02978">
        <ele>1261</ele>
        <time>2012-05-19T09:30:38Z</time>
      </trkpt>
      <trkpt lat="48.06915" lon="7.02985">
        <ele>1261</ele>
        <time>2012-05-19T09:30:48Z</time>
      </trkpt>
      <trkpt lat="48.06898" lon="7.02985">
        <ele>1261</ele>
        <time>2012-05-19T09:30:55Z</time>
      </trkpt>
      <trkpt lat="48.06892" lon="7.02986">
        <ele>1261</ele>
        <time>2012-05-19T09:30:57Z</time>
      </trkpt>
      <trkpt lat="48.06867" lon="7.02985">
        <ele>1260</ele>
        <time>2012-05-19T09:31:05Z</time>
      </trkpt>
      <trkpt lat="48.06859" lon="7.02987">
        <ele>1261</ele>
        <time>2012-05-19T09:31:07Z</time>
      </trkpt>
      <trkpt lat="48.06852" lon="7.02987">
        <ele>1260</ele>
        <time>2012-05-19T09:31:09Z</time>
      </trkpt>
      <trkpt lat="48.06823" lon="7.02979">
        <ele>1261</ele>
        <time>2012-05-19T09:31:15Z</time>
      </trkpt>
      <trkpt lat="48.06763" lon="7.02982">
        <ele>1256</ele>
        <time>2012-05-19T09:31:33Z</time>
      </trkpt>
      <trkpt lat="48.06757" lon="7.02983">
        <ele>1256</ele>
        <time>2012-05-19T09:31:35Z</time>
      </trkpt>
      <trkpt lat="48.06751" lon="7.02986">
        <ele>1257</ele>
        <time>2012-05-19T09:31:37Z</time>
      </trkpt>
      <trkpt lat="48.06747" lon="7.0299">
        <ele>1257</ele>
        <time>2012-05-19T09:31:39Z</time>
      </trkpt>
      <trkpt lat="48.0674" lon="7.02986">
        <ele>1256</ele>
        <time>2012-05-19T09:31:42Z</time>
      </trkpt>
      <trkpt lat="48.06736" lon="7.02983">
        <ele>1257</ele>
        <time>2012-05-19T09:31:46Z</time>
      </trkpt>
      <trkpt lat="48.06731" lon="7.02985">
        <ele>1257</ele>
        <time>2012-05-19T09:31:50Z</time>
      </trkpt>
      <trkpt lat="48.06722" lon="7.02988">
        <ele>1259</ele>
        <time>2012-05-19T09:32:02Z</time>
      </trkpt>
      <trkpt lat="48.06711" lon="7.02987">
        <ele>1258</ele>
        <time>2012-05-19T09:32:13Z</time>
      </trkpt>
      <trkpt lat="48.06704" lon="7.02989">
        <ele>1258</ele>
        <time>2012-05-19T09:32:22Z</time>
      </trkpt>
      <trkpt lat="48.06701" lon="7.02993">
        <ele>1255</ele>
        <time>2012-05-19T09:33:36Z</time>
      </trkpt>
      <trkpt lat="48.06696" lon="7.02996">
        <ele>1257</ele>
        <time>2012-05-19T09:34:03Z</time>
      </trkpt>
      <trkpt lat="48.06687" lon="7.02994">
        <ele>1255</ele>
        <time>2012-05-19T09:34:11Z</time>
      </trkpt>
      <trkpt lat="48.06675" lon="7.02993">
        <ele>1256</ele>
        <time>2012-05-19T09:34:17Z</time>
      </trkpt>
      <trkpt lat="48.0667" lon="7.02994">
        <ele>1256</ele>
        <time>2012-05-19T09:34:20Z</time>
      </trkpt>
      <trkpt lat="48.06659" lon="7.02999">
        <ele>1256</ele>
        <time>2012-05-19T09:34:25Z</time>
      </trkpt>
      <trkpt lat="48.06636" lon="7.02996">
        <ele>1258</ele>
        <time>2012-05-19T09:34:34Z</time>
      </trkpt>
      <trkpt lat="48.06621" lon="7.02997">
        <ele>1261</ele>
        <time>2012-05-19T09:34:47Z</time>
      </trkpt>
      <trkpt lat="48.06611" lon="7.02989">
        <ele>1259</ele>
        <time>2012-05-19T09:34:55Z</time>
      </trkpt>
      <trkpt lat="48.06597" lon="7.02931">
        <ele>1255</ele>
        <time>2012-05-19T09:35:11Z</time>
      </trkpt>
      <trkpt lat="48.06594" lon="7.02913">
        <ele>1253</ele>
        <time>2012-05-19T09:35:16Z</time>
      </trkpt>
      <trkpt lat="48.06583" lon="7.02893">
        <ele>1252</ele>
        <time>2012-05-19T09:35:20Z</time>
      </trkpt>
      <trkpt lat="48.06583" lon="7.02889">
        <ele>1250</ele>
        <time>2012-05-19T09:35:26Z</time>
      </trkpt>
      <trkpt lat="48.06584" lon="7.02881">
        <ele>1249</ele>
        <time>2012-05-19T09:35:31Z</time>
      </trkpt>
      <trkpt lat="48.06577" lon="7.02857">
        <ele>1245</ele>
        <time>2012-05-19T09:35:51Z</time>
      </trkpt>
      <trkpt lat="48.06575" lon="7.0285">
        <ele>1245</ele>
        <time>2012-05-19T09:35:55Z</time>
      </trkpt>
      <trkpt lat="48.06561" lon="7.02779">
        <ele>1231</ele>
        <time>2012-05-19T09:36:27Z</time>
      </trkpt>
      <trkpt lat="48.06557" lon="7.02774">
        <ele>1230</ele>
        <time>2012-05-19T09:36:29Z</time>
      </trkpt>
      <trkpt lat="48.06547" lon="7.02764">
        <ele>1230</ele>
        <time>2012-05-19T09:36:33Z</time>
      </trkpt>
      <trkpt lat="48.06545" lon="7.02755">
        <ele>1230</ele>
        <time>2012-05-19T09:36:35Z</time>
      </trkpt>
      <trkpt lat="48.06546" lon="7.02748">
        <ele>1229</ele>
        <time>2012-05-19T09:36:37Z</time>
      </trkpt>
      <trkpt lat="48.06553" lon="7.02739">
        <ele>1226</ele>
        <time>2012-05-19T09:36:43Z</time>
      </trkpt>
      <trkpt lat="48.06555" lon="7.02732">
        <ele>1226</ele>
        <time>2012-05-19T09:36:45Z</time>
      </trkpt>
      <trkpt lat="48.06549" lon="7.0272">
        <ele>1224</ele>
        <time>2012-05-19T09:36:49Z</time>
      </trkpt>
      <trkpt lat="48.06542" lon="7.02714">
        <ele>1222</ele>
        <time>2012-05-19T09:36:58Z</time>
      </trkpt>
      <trkpt lat="48.06541" lon="7.02707">
        <ele>1222</ele>
        <time>2012-05-19T09:37:06Z</time>
      </trkpt>
      <trkpt lat="48.06538" lon="7.02698">
        <ele>1221</ele>
        <time>2012-05-19T09:37:11Z</time>
      </trkpt>
      <trkpt lat="48.06534" lon="7.02695">
        <ele>1220</ele>
        <time>2012-05-19T09:37:15Z</time>
      </trkpt>
      <trkpt lat="48.06532" lon="7.0268">
        <ele>1212</ele>
        <time>2012-05-19T09:37:33Z</time>
      </trkpt>
      <trkpt lat="48.06526" lon="7.02664">
        <ele>1211</ele>
        <time>2012-05-19T09:37:36Z</time>
      </trkpt>
      <trkpt lat="48.06484" lon="7.02544">
        <ele>1194</ele>
        <time>2012-05-19T09:38:09Z</time>
      </trkpt>
      <trkpt lat="48.06433" lon="7.02431">
        <ele>1171</ele>
        <time>2012-05-19T09:38:39Z</time>
      </trkpt>
      <trkpt lat="48.06414" lon="7.02392">
        <ele>1166</ele>
        <time>2012-05-19T09:38:46Z</time>
      </trkpt>
      <trkpt lat="48.06404" lon="7.0239">
        <ele>1162</ele>
        <time>2012-05-19T09:38:51Z</time>
      </trkpt>
      <trkpt lat="48.064" lon="7.02386">
        <ele>1159</ele>
        <time>2012-05-19T09:38:54Z</time>
      </trkpt>
      <trkpt lat="48.06403" lon="7.02381">
        <ele>1157</ele>
        <time>2012-05-19T09:38:59Z</time>
      </trkpt>
      <trkpt lat="48.06405" lon="7.02377">
        <ele>1155</ele>
        <time>2012-05-19T09:39:07Z</time>
      </trkpt>
      <trkpt lat="48.064" lon="7.02375">
        <ele>1148</ele>
        <time>2012-05-19T09:39:27Z</time>
      </trkpt>
      <trkpt lat="48.06392" lon="7.02372">
        <ele>1147</ele>
        <time>2012-05-19T09:39:32Z</time>
      </trkpt>
      <trkpt lat="48.0639" lon="7.02364">
        <ele>1146</ele>
        <time>2012-05-19T09:39:35Z</time>
      </trkpt>
      <trkpt lat="48.06391" lon="7.02342">
        <ele>1143</ele>
        <time>2012-05-19T09:39:39Z</time>
      </trkpt>
      <trkpt lat="48.06384" lon="7.0233">
        <ele>1142</ele>
        <time>2012-05-19T09:40:46Z</time>
      </trkpt>
      <trkpt lat="48.0638" lon="7.02325">
        <ele>1141</ele>
        <time>2012-05-19T09:40:49Z</time>
      </trkpt>
      <trkpt lat="48.06378" lon="7.02312">
        <ele>1141</ele>
        <time>2012-05-19T09:40:53Z</time>
      </trkpt>
      <trkpt lat="48.06384" lon="7.02255">
        <ele>1140</ele>
        <time>2012-05-19T09:41:13Z</time>
      </trkpt>
      <trkpt lat="48.0638" lon="7.02253">
        <ele>1139</ele>
        <time>2012-05-19T09:41:17Z</time>
      </trkpt>
      <trkpt lat="48.06374" lon="7.02252">
        <ele>1138</ele>
        <time>2012-05-19T09:41:20Z</time>
      </trkpt>
      <trkpt lat="48.06369" lon="7.0225">
        <ele>1139</ele>
        <time>2012-05-19T09:41:22Z</time>
      </trkpt>
      <trkpt lat="48.06356" lon="7.02242">
        <ele>1141</ele>
        <time>2012-05-19T09:41:33Z</time>
      </trkpt>
      <trkpt lat="48.06348" lon="7.02235">
        <ele>1141</ele>
        <time>2012-05-19T09:41:38Z</time>
      </trkpt>
      <trkpt lat="48.06343" lon="7.02233">
        <ele>1142</ele>
        <time>2012-05-19T09:41:41Z</time>
      </trkpt>
      <trkpt lat="48.06337" lon="7.02233">
        <ele>1142</ele>
        <time>2012-05-19T09:41:45Z</time>
      </trkpt>
      <trkpt lat="48.06336" lon="7.0224">
        <ele>1142</ele>
        <time>2012-05-19T09:41:49Z</time>
      </trkpt>
      <trkpt lat="48.06328" lon="7.02256">
        <ele>1147</ele>
        <time>2012-05-19T09:42:01Z</time>
      </trkpt>
      <trkpt lat="48.06328" lon="7.02251">
        <ele>1143</ele>
        <time>2012-05-19T09:42:47Z</time>
      </trkpt>
      <trkpt lat="48.06333" lon="7.02264">
        <ele>1140</ele>
        <time>2012-05-19T09:43:56Z</time>
      </trkpt>
      <trkpt lat="48.06335" lon="7.02294">
        <ele>1146</ele>
        <time>2012-05-19T09:44:15Z</time>
      </trkpt>
      <trkpt lat="48.06332" lon="7.02298">
        <ele>1149</ele>
        <time>2012-05-19T09:44:24Z</time>
      </trkpt>
      <trkpt lat="48.06312" lon="7.02311">
        <ele>1159</ele>
        <time>2012-05-19T09:44:55Z</time>
      </trkpt>
      <trkpt lat="48.06309" lon="7.02316">
        <ele>1161</ele>
        <time>2012-05-19T09:45:01Z</time>
      </trkpt>
      <trkpt lat="48.06307" lon="7.02323">
        <ele>1161</ele>
        <time>2012-05-19T09:45:05Z</time>
      </trkpt>
      <trkpt lat="48.06296" lon="7.02329">
        <ele>1163</ele>
        <time>2012-05-19T09:45:19Z</time>
      </trkpt>
      <trkpt lat="48.06283" lon="7.02337">
        <ele>1175</ele>
        <time>2012-05-19T09:46:46Z</time>
      </trkpt>
      <trkpt lat="48.06273" lon="7.02341">
        <ele>1174</ele>
        <time>2012-05-19T09:46:50Z</time>
      </trkpt>
      <trkpt lat="48.06239" lon="7.02361">
        <ele>1168</ele>
        <time>2012-05-19T09:47:06Z</time>
      </trkpt>
      <trkpt lat="48.06234" lon="7.02365">
        <ele>1169</ele>
        <time>2012-05-19T09:47:09Z</time>
      </trkpt>
      <trkpt lat="48.06223" lon="7.02373">
        <ele>1169</ele>
        <time>2012-05-19T09:47:15Z</time>
      </trkpt>
      <trkpt lat="48.06222" lon="7.0238">
        <ele>1169</ele>
        <time>2012-05-19T09:47:18Z</time>
      </trkpt>
      <trkpt lat="48.06221" lon="7.02389">
        <ele>1169</ele>
        <time>2012-05-19T09:47:21Z</time>
      </trkpt>
      <trkpt lat="48.06222" lon="7.02398">
        <ele>1170</ele>
        <time>2012-05-19T09:47:25Z</time>
      </trkpt>
      <trkpt lat="48.06218" lon="7.02411">
        <ele>1170</ele>
        <time>2012-05-19T09:47:30Z</time>
      </trkpt>
      <trkpt lat="48.06213" lon="7.02414">
        <ele>1171</ele>
        <time>2012-05-19T09:47:33Z</time>
      </trkpt>
      <trkpt lat="48.06205" lon="7.02407">
        <ele>1172</ele>
        <time>2012-05-19T09:47:39Z</time>
      </trkpt>
      <trkpt lat="48.062" lon="7.024">
        <ele>1173</ele>
        <time>2012-05-19T09:47:42Z</time>
      </trkpt>
      <trkpt lat="48.06195" lon="7.02396">
        <ele>1174</ele>
        <time>2012-05-19T09:47:45Z</time>
      </trkpt>
      <trkpt lat="48.06188" lon="7.02395">
        <ele>1176</ele>
        <time>2012-05-19T09:47:48Z</time>
      </trkpt>
      <trkpt lat="48.06183" lon="7.02398">
        <ele>1178</ele>
        <time>2012-05-19T09:47:53Z</time>
      </trkpt>
      <trkpt lat="48.06174" lon="7.02408">
        <ele>1181</ele>
        <time>2012-05-19T09:48:02Z</time>
      </trkpt>
      <trkpt lat="48.06163" lon="7.02434">
        <ele>1177</ele>
        <time>2012-05-19T09:48:18Z</time>
      </trkpt>
      <trkpt lat="48.06152" lon="7.02457">
        <ele>1176</ele>
        <time>2012-05-19T09:48:32Z</time>
      </trkpt>
      <trkpt lat="48.06149" lon="7.02465">
        <ele>1174</ele>
        <time>2012-05-19T09:48:35Z</time>
      </trkpt>
      <trkpt lat="48.06132" lon="7.02486">
        <ele>1172</ele>
        <time>2012-05-19T09:48:50Z</time>
      </trkpt>
      <trkpt lat="48.06115" lon="7.02493">
        <ele>1173</ele>
        <time>2012-05-19T09:49:01Z</time>
      </trkpt>
      <trkpt lat="48.06081" lon="7.02495">
        <ele>1182</ele>
        <time>2012-05-19T09:49:22Z</time>
      </trkpt>
      <trkpt lat="48.0607" lon="7.02485">
        <ele>1185</ele>
        <time>2012-05-19T09:49:33Z</time>
      </trkpt>
      <trkpt lat="48.06063" lon="7.02476">
        <ele>1185</ele>
        <time>2012-05-19T09:49:39Z</time>
      </trkpt>
      <trkpt lat="48.06057" lon="7.02464">
        <ele>1188</ele>
        <time>2012-05-19T09:49:46Z</time>
      </trkpt>
      <trkpt lat="48.06048" lon="7.02452">
        <ele>1189</ele>
        <time>2012-05-19T09:49:55Z</time>
      </trkpt>
      <trkpt lat="48.06026" lon="7.0242">
        <ele>1195</ele>
        <time>2012-05-19T09:50:20Z</time>
      </trkpt>
      <trkpt lat="48.06017" lon="7.02413">
        <ele>1195</ele>
        <time>2012-05-19T09:50:26Z</time>
      </trkpt>
      <trkpt lat="48.05992" lon="7.024">
        <ele>1198</ele>
        <time>2012-05-19T09:50:45Z</time>
      </trkpt>
      <trkpt lat="48.05981" lon="7.02399">
        <ele>1200</ele>
        <time>2012-05-19T09:50:53Z</time>
      </trkpt>
      <trkpt lat="48.05966" lon="7.02392">
        <ele>1201</ele>
        <time>2012-05-19T09:51:05Z</time>
      </trkpt>
      <trkpt lat="48.05957" lon="7.02384">
        <ele>1201</ele>
        <time>2012-05-19T09:51:12Z</time>
      </trkpt>
      <trkpt lat="48.05921" lon="7.02342">
        <ele>1207</ele>
        <time>2012-05-19T09:51:43Z</time>
      </trkpt>
      <trkpt lat="48.05916" lon="7.02341">
        <ele>1208</ele>
        <time>2012-05-19T09:51:46Z</time>
      </trkpt>
      <trkpt lat="48.05911" lon="7.02334">
        <ele>1201</ele>
        <time>2012-05-19T09:52:43Z</time>
      </trkpt>
      <trkpt lat="48.05873" lon="7.02306">
        <ele>1208</ele>
        <time>2012-05-19T09:53:03Z</time>
      </trkpt>
      <trkpt lat="48.05868" lon="7.02304">
        <ele>1208</ele>
        <time>2012-05-19T09:53:06Z</time>
      </trkpt>
      <trkpt lat="48.05862" lon="7.02305">
        <ele>1208</ele>
        <time>2012-05-19T09:53:09Z</time>
      </trkpt>
      <trkpt lat="48.05855" lon="7.02307">
        <ele>1209</ele>
        <time>2012-05-19T09:53:12Z</time>
      </trkpt>
      <trkpt lat="48.05841" lon="7.02299">
        <ele>1212</ele>
        <time>2012-05-19T09:53:20Z</time>
      </trkpt>
      <trkpt lat="48.05835" lon="7.023">
        <ele>1213</ele>
        <time>2012-05-19T09:53:23Z</time>
      </trkpt>
      <trkpt lat="48.05825" lon="7.02301">
        <ele>1213</ele>
        <time>2012-05-19T09:53:28Z</time>
      </trkpt>
      <trkpt lat="48.05806" lon="7.02298">
        <ele>1216</ele>
        <time>2012-05-19T09:53:41Z</time>
      </trkpt>
      <trkpt lat="48.0579" lon="7.02306">
        <ele>1222</ele>
        <time>2012-05-19T09:53:54Z</time>
      </trkpt>
      <trkpt lat="48.05783" lon="7.02317">
        <ele>1225</ele>
        <time>2012-05-19T09:54:02Z</time>
      </trkpt>
      <trkpt lat="48.05779" lon="7.02321">
        <ele>1225</ele>
        <time>2012-05-19T09:54:05Z</time>
      </trkpt>
      <trkpt lat="48.05772" lon="7.02342">
        <ele>1224</ele>
        <time>2012-05-19T09:54:18Z</time>
      </trkpt>
      <trkpt lat="48.05768" lon="7.02348">
        <ele>1224</ele>
        <time>2012-05-19T09:54:21Z</time>
      </trkpt>
      <trkpt lat="48.05766" lon="7.02355">
        <ele>1225</ele>
        <time>2012-05-19T09:54:24Z</time>
      </trkpt>
      <trkpt lat="48.05763" lon="7.0236">
        <ele>1224</ele>
        <time>2012-05-19T09:54:28Z</time>
      </trkpt>
      <trkpt lat="48.05757" lon="7.02363">
        <ele>1224</ele>
        <time>2012-05-19T09:54:30Z</time>
      </trkpt>
      <trkpt lat="48.05741" lon="7.02385">
        <ele>1227</ele>
        <time>2012-05-19T09:54:43Z</time>
      </trkpt>
      <trkpt lat="48.05736" lon="7.02389">
        <ele>1228</ele>
        <time>2012-05-19T09:54:46Z</time>
      </trkpt>
      <trkpt lat="48.05727" lon="7.02396">
        <ele>1229</ele>
        <time>2012-05-19T09:54:52Z</time>
      </trkpt>
      <trkpt lat="48.05715" lon="7.02399">
        <ele>1232</ele>
        <time>2012-05-19T09:55:01Z</time>
      </trkpt>
      <trkpt lat="48.05711" lon="7.02402">
        <ele>1232</ele>
        <time>2012-05-19T09:55:04Z</time>
      </trkpt>
      <trkpt lat="48.05691" lon="7.02408">
        <ele>1236</ele>
        <time>2012-05-19T09:55:18Z</time>
      </trkpt>
      <trkpt lat="48.05688" lon="7.02413">
        <ele>1236</ele>
        <time>2012-05-19T09:55:22Z</time>
      </trkpt>
      <trkpt lat="48.05681" lon="7.02424">
        <ele>1237</ele>
        <time>2012-05-19T09:55:28Z</time>
      </trkpt>
      <trkpt lat="48.05675" lon="7.02425">
        <ele>1237</ele>
        <time>2012-05-19T09:55:31Z</time>
      </trkpt>
      <trkpt lat="48.05664" lon="7.02429">
        <ele>1238</ele>
        <time>2012-05-19T09:55:38Z</time>
      </trkpt>
      <trkpt lat="48.0566" lon="7.02426">
        <ele>1238</ele>
        <time>2012-05-19T09:55:41Z</time>
      </trkpt>
      <trkpt lat="48.05607" lon="7.02399">
        <ele>1250</ele>
        <time>2012-05-19T09:56:14Z</time>
      </trkpt>
      <trkpt lat="48.05603" lon="7.02401">
        <ele>1252</ele>
        <time>2012-05-19T09:56:30Z</time>
      </trkpt>
      <trkpt lat="48.05605" lon="7.02412">
        <ele>1258</ele>
        <time>2012-05-19T09:57:51Z</time>
      </trkpt>
      <trkpt lat="48.05608" lon="7.02418">
        <ele>1258</ele>
        <time>2012-05-19T09:57:53Z</time>
      </trkpt>
      <trkpt lat="48.05611" lon="7.02426">
        <ele>1258</ele>
        <time>2012-05-19T09:57:56Z</time>
      </trkpt>
      <trkpt lat="48.05612" lon="7.02464">
        <ele>1252</ele>
        <time>2012-05-19T09:58:08Z</time>
      </trkpt>
      <trkpt lat="48.05605" lon="7.02483">
        <ele>1252</ele>
        <time>2012-05-19T09:58:11Z</time>
      </trkpt>
      <trkpt lat="48.05591" lon="7.02495">
        <ele>1251</ele>
        <time>2012-05-19T09:58:14Z</time>
      </trkpt>
      <trkpt lat="48.05583" lon="7.02496">
        <ele>1251</ele>
        <time>2012-05-19T09:58:16Z</time>
      </trkpt>
      <trkpt lat="48.05555" lon="7.02478">
        <ele>1248</ele>
        <time>2012-05-19T09:58:24Z</time>
      </trkpt>
      <trkpt lat="48.05549" lon="7.0248">
        <ele>1247</ele>
        <time>2012-05-19T09:58:26Z</time>
      </trkpt>
      <trkpt lat="48.05411" lon="7.02533">
        <ele>1236</ele>
        <time>2012-05-19T09:58:58Z</time>
      </trkpt>
      <trkpt lat="48.05392" lon="7.02542">
        <ele>1233</ele>
        <time>2012-05-19T09:59:06Z</time>
      </trkpt>
      <trkpt lat="48.05387" lon="7.02549">
        <ele>1233</ele>
        <time>2012-05-19T09:59:09Z</time>
      </trkpt>
      <trkpt lat="48.05383" lon="7.02567">
        <ele>1230</ele>
        <time>2012-05-19T09:59:21Z</time>
      </trkpt>
      <trkpt lat="48.05381" lon="7.02558">
        <ele>1229</ele>
        <time>2012-05-19T09:59:28Z</time>
      </trkpt>
      <trkpt lat="48.05337" lon="7.02491">
        <ele>1223</ele>
        <time>2012-05-19T10:00:00Z</time>
      </trkpt>
      <trkpt lat="48.05333" lon="7.02486">
        <ele>1223</ele>
        <time>2012-05-19T10:00:05Z</time>
      </trkpt>
      <trkpt lat="48.05328" lon="7.02482">
        <ele>1222</ele>
        <time>2012-05-19T10:00:09Z</time>
      </trkpt>
      <trkpt lat="48.05323" lon="7.02481">
        <ele>1222</ele>
        <time>2012-05-19T10:00:13Z</time>
      </trkpt>
      <trkpt lat="48.05324" lon="7.02487">
        <ele>1219</ele>
        <time>2012-05-19T10:27:15Z</time>
      </trkpt>
      <trkpt lat="48.05322" lon="7.02485">
        <ele>1219</ele>
        <time>2012-05-19T10:28:43Z</time>
      </trkpt>
      <trkpt lat="47.95365" lon="7.01586">
        <ele>1177.7</ele>
        <time>2012-05-19T12:50:33Z</time>
      </trkpt>
      <trkpt lat="47.95371" lon="7.0158">
        <ele>1179</ele>
        <time>2012-05-19T12:50:45Z</time>
      </trkpt>
      <trkpt lat="47.95366" lon="7.01577">
        <ele>1177</ele>
        <time>2012-05-19T12:51:03Z</time>
      </trkpt>
      <trkpt lat="47.95361" lon="7.01578">
        <ele>1176</ele>
        <time>2012-05-19T12:51:08Z</time>
      </trkpt>
      <trkpt lat="47.95358" lon="7.01575">
        <ele>1176</ele>
        <time>2012-05-19T12:51:35Z</time>
      </trkpt>
      <trkpt lat="47.95359" lon="7.01577">
        <ele>1179</ele>
        <time>2012-05-19T12:56:03Z</time>
      </trkpt>
      <trkpt lat="47.95358" lon="7.01575">
        <ele>1177</ele>
        <time>2012-05-19T13:01:29Z</time>
      </trkpt>
      <trkpt lat="47.95358" lon="7.01583">
        <ele>1177</ele>
        <time>2012-05-19T13:03:09Z</time>
      </trkpt>
      <trkpt lat="47.95355" lon="7.0159">
        <ele>1177</ele>
        <time>2012-05-19T13:03:11Z</time>
      </trkpt>
      <trkpt lat="47.95352" lon="7.01596">
        <ele>1177</ele>
        <time>2012-05-19T13:03:13Z</time>
      </trkpt>
      <trkpt lat="47.95343" lon="7.01605">
        <ele>1179</ele>
        <time>2012-05-19T13:03:20Z</time>
      </trkpt>
      <trkpt lat="47.95342" lon="7.01625">
        <ele>1180</ele>
        <time>2012-05-19T13:03:26Z</time>
      </trkpt>
      <trkpt lat="47.95311" lon="7.01738">
        <ele>1182</ele>
        <time>2012-05-19T13:03:56Z</time>
      </trkpt>
      <trkpt lat="47.95305" lon="7.01752">
        <ele>1181</ele>
        <time>2012-05-19T13:04:00Z</time>
      </trkpt>
      <trkpt lat="47.95298" lon="7.01768">
        <ele>1180</ele>
        <time>2012-05-19T13:04:04Z</time>
      </trkpt>
      <trkpt lat="47.95223" lon="7.01899">
        <ele>1184</ele>
        <time>2012-05-19T13:04:36Z</time>
      </trkpt>
      <trkpt lat="47.95149" lon="7.01963">
        <ele>1187</ele>
        <time>2012-05-19T13:05:06Z</time>
      </trkpt>
      <trkpt lat="47.95139" lon="7.01967">
        <ele>1188</ele>
        <time>2012-05-19T13:05:10Z</time>
      </trkpt>
      <trkpt lat="47.95112" lon="7.01969">
        <ele>1187</ele>
        <time>2012-05-19T13:05:20Z</time>
      </trkpt>
      <trkpt lat="47.95075" lon="7.01975">
        <ele>1190</ele>
        <time>2012-05-19T13:05:43Z</time>
      </trkpt>
      <trkpt lat="47.95068" lon="7.01976">
        <ele>1193</ele>
        <time>2012-05-19T13:06:01Z</time>
      </trkpt>
      <trkpt lat="47.95063" lon="7.01978">
        <ele>1192</ele>
        <time>2012-05-19T13:06:07Z</time>
      </trkpt>
      <trkpt lat="47.95047" lon="7.01982">
        <ele>1192</ele>
        <time>2012-05-19T13:06:17Z</time>
      </trkpt>
      <trkpt lat="47.95043" lon="7.01984">
        <ele>1193</ele>
        <time>2012-05-19T13:06:20Z</time>
      </trkpt>
      <trkpt lat="47.95018" lon="7.01995">
        <ele>1198</ele>
        <time>2012-05-19T13:06:40Z</time>
      </trkpt>
      <trkpt lat="47.95013" lon="7.01998">
        <ele>1197</ele>
        <time>2012-05-19T13:06:44Z</time>
      </trkpt>
      <trkpt lat="47.95008" lon="7.02">
        <ele>1198</ele>
        <time>2012-05-19T13:06:48Z</time>
      </trkpt>
      <trkpt lat="47.9498" lon="7.02012">
        <ele>1202</ele>
        <time>2012-05-19T13:07:08Z</time>
      </trkpt>
      <trkpt lat="47.94976" lon="7.02015">
        <ele>1202</ele>
        <time>2012-05-19T13:07:11Z</time>
      </trkpt>
      <trkpt lat="47.94971" lon="7.02017">
        <ele>1201</ele>
        <time>2012-05-19T13:07:15Z</time>
      </trkpt>
      <trkpt lat="47.94965" lon="7.02019">
        <ele>1202</ele>
        <time>2012-05-19T13:07:19Z</time>
      </trkpt>
      <trkpt lat="47.9496" lon="7.02022">
        <ele>1202</ele>
        <time>2012-05-19T13:07:23Z</time>
      </trkpt>
      <trkpt lat="47.94915" lon="7.02043">
        <ele>1208</ele>
        <time>2012-05-19T13:07:54Z</time>
      </trkpt>
      <trkpt lat="47.94895" lon="7.02051">
        <ele>1210</ele>
        <time>2012-05-19T13:08:10Z</time>
      </trkpt>
      <trkpt lat="47.94885" lon="7.02056">
        <ele>1212</ele>
        <time>2012-05-19T13:08:19Z</time>
      </trkpt>
      <trkpt lat="47.94881" lon="7.02058">
        <ele>1212</ele>
        <time>2012-05-19T13:08:23Z</time>
      </trkpt>
      <trkpt lat="47.94867" lon="7.02064">
        <ele>1215</ele>
        <time>2012-05-19T13:08:37Z</time>
      </trkpt>
      <trkpt lat="47.94862" lon="7.02065">
        <ele>1215</ele>
        <time>2012-05-19T13:08:41Z</time>
      </trkpt>
      <trkpt lat="47.94842" lon="7.02074">
        <ele>1218</ele>
        <time>2012-05-19T13:08:57Z</time>
      </trkpt>
      <trkpt lat="47.94819" lon="7.02087">
        <ele>1220</ele>
        <time>2012-05-19T13:09:16Z</time>
      </trkpt>
      <trkpt lat="47.94813" lon="7.02089">
        <ele>1221</ele>
        <time>2012-05-19T13:09:21Z</time>
      </trkpt>
      <trkpt lat="47.94809" lon="7.02094">
        <ele>1221</ele>
        <time>2012-05-19T13:09:26Z</time>
      </trkpt>
      <trkpt lat="47.94805" lon="7.02098">
        <ele>1221</ele>
        <time>2012-05-19T13:09:29Z</time>
      </trkpt>
      <trkpt lat="47.94796" lon="7.02107">
        <ele>1224</ele>
        <time>2012-05-19T13:09:38Z</time>
      </trkpt>
      <trkpt lat="47.94791" lon="7.02111">
        <ele>1224</ele>
        <time>2012-05-19T13:09:42Z</time>
      </trkpt>
      <trkpt lat="47.94755" lon="7.02142">
        <ele>1234</ele>
        <time>2012-05-19T13:10:15Z</time>
      </trkpt>
      <trkpt lat="47.94747" lon="7.02151">
        <ele>1238</ele>
        <time>2012-05-19T13:10:24Z</time>
      </trkpt>
      <trkpt lat="47.94739" lon="7.02161">
        <ele>1238</ele>
        <time>2012-05-19T13:10:32Z</time>
      </trkpt>
      <trkpt lat="47.94736" lon="7.02165">
        <ele>1239</ele>
        <time>2012-05-19T13:10:36Z</time>
      </trkpt>
      <trkpt lat="47.94728" lon="7.02172">
        <ele>1240</ele>
        <time>2012-05-19T13:10:45Z</time>
      </trkpt>
      <trkpt lat="47.94714" lon="7.02184">
        <ele>1239</ele>
        <time>2012-05-19T13:10:58Z</time>
      </trkpt>
      <trkpt lat="47.94684" lon="7.02214">
        <ele>1251</ele>
        <time>2012-05-19T13:11:32Z</time>
      </trkpt>
      <trkpt lat="47.94672" lon="7.02227">
        <ele>1255</ele>
        <time>2012-05-19T13:11:46Z</time>
      </trkpt>
      <trkpt lat="47.94667" lon="7.0223">
        <ele>1255</ele>
        <time>2012-05-19T13:11:51Z</time>
      </trkpt>
      <trkpt lat="47.94663" lon="7.02233">
        <ele>1256</ele>
        <time>2012-05-19T13:11:57Z</time>
      </trkpt>
      <trkpt lat="47.94656" lon="7.02239">
        <ele>1255</ele>
        <time>2012-05-19T13:12:01Z</time>
      </trkpt>
      <trkpt lat="47.94648" lon="7.0225">
        <ele>1256</ele>
        <time>2012-05-19T13:12:09Z</time>
      </trkpt>
      <trkpt lat="47.94644" lon="7.02256">
        <ele>1256</ele>
        <time>2012-05-19T13:12:13Z</time>
      </trkpt>
      <trkpt lat="47.94633" lon="7.0227">
        <ele>1256</ele>
        <time>2012-05-19T13:12:23Z</time>
      </trkpt>
      <trkpt lat="47.94632" lon="7.02277">
        <ele>1256</ele>
        <time>2012-05-19T13:12:25Z</time>
      </trkpt>
      <trkpt lat="47.94629" lon="7.02283">
        <ele>1256</ele>
        <time>2012-05-19T13:12:29Z</time>
      </trkpt>
      <trkpt lat="47.94601" lon="7.02314">
        <ele>1263</ele>
        <time>2012-05-19T13:12:52Z</time>
      </trkpt>
      <trkpt lat="47.94594" lon="7.02315">
        <ele>1263</ele>
        <time>2012-05-19T13:12:55Z</time>
      </trkpt>
      <trkpt lat="47.94575" lon="7.02311">
        <ele>1261</ele>
        <time>2012-05-19T13:13:01Z</time>
      </trkpt>
      <trkpt lat="47.94569" lon="7.02311">
        <ele>1262</ele>
        <time>2012-05-19T13:13:04Z</time>
      </trkpt>
      <trkpt lat="47.94563" lon="7.02312">
        <ele>1262</ele>
        <time>2012-05-19T13:13:07Z</time>
      </trkpt>
      <trkpt lat="47.94553" lon="7.02312">
        <ele>1262</ele>
        <time>2012-05-19T13:13:11Z</time>
      </trkpt>
      <trkpt lat="47.94539" lon="7.0231">
        <ele>1261</ele>
        <time>2012-05-19T13:13:17Z</time>
      </trkpt>
      <trkpt lat="47.94529" lon="7.02312">
        <ele>1261</ele>
        <time>2012-05-19T13:13:22Z</time>
      </trkpt>
      <trkpt lat="47.94524" lon="7.02313">
        <ele>1261</ele>
        <time>2012-05-19T13:13:25Z</time>
      </trkpt>
      <trkpt lat="47.94512" lon="7.02317">
        <ele>1263</ele>
        <time>2012-05-19T13:17:57Z</time>
      </trkpt>
      <trkpt lat="47.94508" lon="7.02321">
        <ele>1265</ele>
        <time>2012-05-19T13:17:59Z</time>
      </trkpt>
      <trkpt lat="47.94498" lon="7.02326">
        <ele>1266</ele>
        <time>2012-05-19T13:18:02Z</time>
      </trkpt>
      <trkpt lat="47.94487" lon="7.02325">
        <ele>1266</ele>
        <time>2012-05-19T13:18:04Z</time>
      </trkpt>
      <trkpt lat="47.94465" lon="7.02318">
        <ele>1265</ele>
        <time>2012-05-19T13:18:08Z</time>
      </trkpt>
      <trkpt lat="47.94411" lon="7.02341">
        <ele>1262</ele>
        <time>2012-05-19T13:18:15Z</time>
      </trkpt>
      <trkpt lat="47.94194" lon="7.02343">
        <ele>1233</ele>
        <time>2012-05-19T13:18:45Z</time>
      </trkpt>
      <trkpt lat="47.94093" lon="7.02334">
        <ele>1218</ele>
        <time>2012-05-19T13:19:03Z</time>
      </trkpt>
      <trkpt lat="47.94087" lon="7.02332">
        <ele>1218</ele>
        <time>2012-05-19T13:19:05Z</time>
      </trkpt>
      <trkpt lat="47.94065" lon="7.02328">
        <ele>1217</ele>
        <time>2012-05-19T13:19:12Z</time>
      </trkpt>
      <trkpt lat="47.94034" lon="7.02324">
        <ele>1220</ele>
        <time>2012-05-19T13:19:22Z</time>
      </trkpt>
      <trkpt lat="47.94026" lon="7.02325">
        <ele>1220</ele>
        <time>2012-05-19T13:19:25Z</time>
      </trkpt>
      <trkpt lat="47.9402" lon="7.02325">
        <ele>1222</ele>
        <time>2012-05-19T13:19:27Z</time>
      </trkpt>
      <trkpt lat="47.93962" lon="7.02316">
        <ele>1228</ele>
        <time>2012-05-19T13:19:43Z</time>
      </trkpt>
      <trkpt lat="47.93933" lon="7.02307">
        <ele>1227</ele>
        <time>2012-05-19T13:19:48Z</time>
      </trkpt>
      <trkpt lat="47.93911" lon="7.02301">
        <ele>1225</ele>
        <time>2012-05-19T13:19:52Z</time>
      </trkpt>
      <trkpt lat="47.93872" lon="7.02284">
        <ele>1223</ele>
        <time>2012-05-19T13:19:59Z</time>
      </trkpt>
      <trkpt lat="47.93762" lon="7.02239">
        <ele>1212</ele>
        <time>2012-05-19T13:20:18Z</time>
      </trkpt>
      <trkpt lat="47.93753" lon="7.02234">
        <ele>1212</ele>
        <time>2012-05-19T13:20:20Z</time>
      </trkpt>
      <trkpt lat="47.93726" lon="7.02226">
        <ele>1212</ele>
        <time>2012-05-19T13:20:26Z</time>
      </trkpt>
      <trkpt lat="47.93713" lon="7.02219">
        <ele>1210</ele>
        <time>2012-05-19T13:20:30Z</time>
      </trkpt>
      <trkpt lat="47.93654" lon="7.02189">
        <ele>1214</ele>
        <time>2012-05-19T13:20:51Z</time>
      </trkpt>
      <trkpt lat="47.93648" lon="7.02185">
        <ele>1213</ele>
        <time>2012-05-19T13:20:53Z</time>
      </trkpt>
      <trkpt lat="47.93642" lon="7.0218">
        <ele>1213</ele>
        <time>2012-05-19T13:20:55Z</time>
      </trkpt>
      <trkpt lat="47.93631" lon="7.0217">
        <ele>1212</ele>
        <time>2012-05-19T13:21:00Z</time>
      </trkpt>
      <trkpt lat="47.93625" lon="7.02164">
        <ele>1213</ele>
        <time>2012-05-19T13:21:02Z</time>
      </trkpt>
      <trkpt lat="47.93615" lon="7.0215">
        <ele>1212</ele>
        <time>2012-05-19T13:21:06Z</time>
      </trkpt>
      <trkpt lat="47.93611" lon="7.02143">
        <ele>1212</ele>
        <time>2012-05-19T13:21:08Z</time>
      </trkpt>
      <trkpt lat="47.93563" lon="7.0209">
        <ele>1211</ele>
        <time>2012-05-19T13:21:22Z</time>
      </trkpt>
      <trkpt lat="47.93553" lon="7.02081">
        <ele>1211</ele>
        <time>2012-05-19T13:21:26Z</time>
      </trkpt>
      <trkpt lat="47.9353" lon="7.02057">
        <ele>1212</ele>
        <time>2012-05-19T13:21:35Z</time>
      </trkpt>
      <trkpt lat="47.9352" lon="7.0205">
        <ele>1210</ele>
        <time>2012-05-19T13:21:39Z</time>
      </trkpt>
      <trkpt lat="47.93515" lon="7.0205">
        <ele>1211</ele>
        <time>2012-05-19T13:21:41Z</time>
      </trkpt>
      <trkpt lat="47.93503" lon="7.02052">
        <ele>1211</ele>
        <time>2012-05-19T13:21:45Z</time>
      </trkpt>
      <trkpt lat="47.93497" lon="7.02052">
        <ele>1213</ele>
        <time>2012-05-19T13:21:48Z</time>
      </trkpt>
      <trkpt lat="47.93491" lon="7.02056">
        <ele>1213</ele>
        <time>2012-05-19T13:21:51Z</time>
      </trkpt>
      <trkpt lat="47.93471" lon="7.02049">
        <ele>1218</ele>
        <time>2012-05-19T13:22:01Z</time>
      </trkpt>
      <trkpt lat="47.93466" lon="7.02044">
        <ele>1218</ele>
        <time>2012-05-19T13:22:04Z</time>
      </trkpt>
      <trkpt lat="47.93463" lon="7.0204">
        <ele>1218</ele>
        <time>2012-05-19T13:22:07Z</time>
      </trkpt>
      <trkpt lat="47.93454" lon="7.0203">
        <ele>1217</ele>
        <time>2012-05-19T13:22:12Z</time>
      </trkpt>
      <trkpt lat="47.93441" lon="7.02011">
        <ele>1217</ele>
        <time>2012-05-19T13:22:19Z</time>
      </trkpt>
      <trkpt lat="47.93427" lon="7.02006">
        <ele>1219</ele>
        <time>2012-05-19T13:22:24Z</time>
      </trkpt>
      <trkpt lat="47.93416" lon="7.02002">
        <ele>1219</ele>
        <time>2012-05-19T13:22:27Z</time>
      </trkpt>
      <trkpt lat="47.93411" lon="7.01999">
        <ele>1219</ele>
        <time>2012-05-19T13:22:29Z</time>
      </trkpt>
      <trkpt lat="47.934" lon="7.01995">
        <ele>1219</ele>
        <time>2012-05-19T13:22:33Z</time>
      </trkpt>
      <trkpt lat="47.93391" lon="7.0199">
        <ele>1219</ele>
        <time>2012-05-19T13:22:36Z</time>
      </trkpt>
      <trkpt lat="47.93385" lon="7.01988">
        <ele>1219</ele>
        <time>2012-05-19T13:22:38Z</time>
      </trkpt>
      <trkpt lat="47.9338" lon="7.01986">
        <ele>1220</ele>
        <time>2012-05-19T13:22:40Z</time>
      </trkpt>
      <trkpt lat="47.93373" lon="7.01984">
        <ele>1221</ele>
        <time>2012-05-19T13:22:43Z</time>
      </trkpt>
      <trkpt lat="47.93359" lon="7.01979">
        <ele>1223</ele>
        <time>2012-05-19T13:22:47Z</time>
      </trkpt>
      <trkpt lat="47.93322" lon="7.01978">
        <ele>1219</ele>
        <time>2012-05-19T13:22:55Z</time>
      </trkpt>
      <trkpt lat="47.93311" lon="7.01977">
        <ele>1219</ele>
        <time>2012-05-19T13:22:57Z</time>
      </trkpt>
      <trkpt lat="47.93306" lon="7.01977">
        <ele>1219</ele>
        <time>2012-05-19T13:22:58Z</time>
      </trkpt>
      <trkpt lat="47.93229" lon="7.01995">
        <ele>1210</ele>
        <time>2012-05-19T13:23:11Z</time>
      </trkpt>
      <trkpt lat="47.93214" lon="7.01999">
        <ele>1211</ele>
        <time>2012-05-19T13:23:15Z</time>
      </trkpt>
      <trkpt lat="47.93207" lon="7.01998">
        <ele>1213</ele>
        <time>2012-05-19T13:23:23Z</time>
      </trkpt>
      <trkpt lat="47.93205" lon="7.01991">
        <ele>1211</ele>
        <time>2012-05-19T13:23:29Z</time>
      </trkpt>
      <trkpt lat="47.932" lon="7.01968">
        <ele>1206</ele>
        <time>2012-05-19T13:23:39Z</time>
      </trkpt>
      <trkpt lat="47.93195" lon="7.01969">
        <ele>1207</ele>
        <time>2012-05-19T13:23:52Z</time>
      </trkpt>
      <trkpt lat="47.93189" lon="7.01964">
        <ele>1210</ele>
        <time>2012-05-19T13:25:03Z</time>
      </trkpt>
      <trkpt lat="47.93182" lon="7.01965">
        <ele>1210</ele>
        <time>2012-05-19T13:25:07Z</time>
      </trkpt>
      <trkpt lat="47.9314" lon="7.01997">
        <ele>1214</ele>
        <time>2012-05-19T13:25:21Z</time>
      </trkpt>
      <trkpt lat="47.93126" lon="7.02003">
        <ele>1213</ele>
        <time>2012-05-19T13:25:24Z</time>
      </trkpt>
      <trkpt lat="47.93113" lon="7.02008">
        <ele>1214</ele>
        <time>2012-05-19T13:25:27Z</time>
      </trkpt>
      <trkpt lat="47.93097" lon="7.02012">
        <ele>1214</ele>
        <time>2012-05-19T13:25:31Z</time>
      </trkpt>
      <trkpt lat="47.93089" lon="7.02013">
        <ele>1214</ele>
        <time>2012-05-19T13:25:33Z</time>
      </trkpt>
      <trkpt lat="47.93074" lon="7.02014">
        <ele>1214</ele>
        <time>2012-05-19T13:25:37Z</time>
      </trkpt>
      <trkpt lat="47.92932" lon="7.02">
        <ele>1217</ele>
        <time>2012-05-19T13:26:08Z</time>
      </trkpt>
      <trkpt lat="47.92923" lon="7.01996">
        <ele>1217</ele>
        <time>2012-05-19T13:26:10Z</time>
      </trkpt>
      <trkpt lat="47.92913" lon="7.01992">
        <ele>1217</ele>
        <time>2012-05-19T13:26:12Z</time>
      </trkpt>
      <trkpt lat="47.92892" lon="7.01983">
        <ele>1217</ele>
        <time>2012-05-19T13:26:16Z</time>
      </trkpt>
      <trkpt lat="47.92874" lon="7.01976">
        <ele>1217</ele>
        <time>2012-05-19T13:26:19Z</time>
      </trkpt>
      <trkpt lat="47.92805" lon="7.0197">
        <ele>1219</ele>
        <time>2012-05-19T13:26:31Z</time>
      </trkpt>
      <trkpt lat="47.92795" lon="7.01983">
        <ele>1220</ele>
        <time>2012-05-19T13:26:33Z</time>
      </trkpt>
      <trkpt lat="47.92787" lon="7.02023">
        <ele>1220</ele>
        <time>2012-05-19T13:26:37Z</time>
      </trkpt>
      <trkpt lat="47.92835" lon="7.02381">
        <ele>1217</ele>
        <time>2012-05-19T13:27:07Z</time>
      </trkpt>
      <trkpt lat="47.92741" lon="7.02796">
        <ele>1210</ele>
        <time>2012-05-19T13:27:37Z</time>
      </trkpt>
      <trkpt lat="47.92714" lon="7.02908">
        <ele>1207</ele>
        <time>2012-05-19T13:27:44Z</time>
      </trkpt>
      <trkpt lat="47.92407" lon="7.03027">
        <ele>1196</ele>
        <time>2012-05-19T13:28:14Z</time>
      </trkpt>
      <trkpt lat="47.92395" lon="7.03039">
        <ele>1195</ele>
        <time>2012-05-19T13:28:16Z</time>
      </trkpt>
      <trkpt lat="47.92383" lon="7.03042">
        <ele>1193</ele>
        <time>2012-05-19T13:28:19Z</time>
      </trkpt>
      <trkpt lat="47.92378" lon="7.0304">
        <ele>1192</ele>
        <time>2012-05-19T13:28:23Z</time>
      </trkpt>
      <trkpt lat="47.92381" lon="7.03039">
        <ele>1189</ele>
        <time>2012-05-19T13:28:44Z</time>
      </trkpt>
      <trkpt lat="47.92386" lon="7.03034">
        <ele>1189</ele>
        <time>2012-05-19T13:28:55Z</time>
      </trkpt>
      <trkpt lat="47.92391" lon="7.03029">
        <ele>1190</ele>
        <time>2012-05-19T13:29:00Z</time>
      </trkpt>
      <trkpt lat="47.92388" lon="7.03032">
        <ele>1192</ele>
        <time>2012-05-19T13:55:23Z</time>
      </trkpt>
      <trkpt lat="47.92381" lon="7.03043">
        <ele>1191</ele>
        <time>2012-05-19T13:55:28Z</time>
      </trkpt>
      <trkpt lat="47.92377" lon="7.03059">
        <ele>1190</ele>
        <time>2012-05-19T13:55:33Z</time>
      </trkpt>
      <trkpt lat="47.92368" lon="7.03071">
        <ele>1190</ele>
        <time>2012-05-19T13:55:38Z</time>
      </trkpt>
      <trkpt lat="47.92304" lon="7.0323">
        <ele>1184</ele>
        <time>2012-05-19T13:56:09Z</time>
      </trkpt>
      <trkpt lat="47.92274" lon="7.03506">
        <ele>1175</ele>
        <time>2012-05-19T13:56:38Z</time>
      </trkpt>
      <trkpt lat="47.92278" lon="7.03514">
        <ele>1175</ele>
        <time>2012-05-19T13:56:39Z</time>
      </trkpt>
      <trkpt lat="47.92286" lon="7.03527">
        <ele>1173</ele>
        <time>2012-05-19T13:56:43Z</time>
      </trkpt>
      <trkpt lat="47.92289" lon="7.03564">
        <ele>1174</ele>
        <time>2012-05-19T13:56:51Z</time>
      </trkpt>
      <trkpt lat="47.92291" lon="7.03586">
        <ele>1176</ele>
        <time>2012-05-19T13:56:56Z</time>
      </trkpt>
      <trkpt lat="47.92293" lon="7.03606">
        <ele>1176</ele>
        <time>2012-05-19T13:57:00Z</time>
      </trkpt>
      <trkpt lat="47.92292" lon="7.03615">
        <ele>1176</ele>
        <time>2012-05-19T13:57:02Z</time>
      </trkpt>
      <trkpt lat="47.92292" lon="7.03622">
        <ele>1176</ele>
        <time>2012-05-19T13:57:04Z</time>
      </trkpt>
      <trkpt lat="47.92292" lon="7.03638">
        <ele>1176</ele>
        <time>2012-05-19T13:57:08Z</time>
      </trkpt>
      <trkpt lat="47.92289" lon="7.03663">
        <ele>1178</ele>
        <time>2012-05-19T13:57:16Z</time>
      </trkpt>
      <trkpt lat="47.92282" lon="7.03678">
        <ele>1180</ele>
        <time>2012-05-19T13:57:22Z</time>
      </trkpt>
      <trkpt lat="47.92254" lon="7.03738">
        <ele>1182</ele>
        <time>2012-05-19T13:57:43Z</time>
      </trkpt>
      <trkpt lat="47.92249" lon="7.03752">
        <ele>1183</ele>
        <time>2012-05-19T13:57:48Z</time>
      </trkpt>
      <trkpt lat="47.92246" lon="7.03759">
        <ele>1183</ele>
        <time>2012-05-19T13:57:50Z</time>
      </trkpt>
      <trkpt lat="47.92243" lon="7.03766">
        <ele>1184</ele>
        <time>2012-05-19T13:57:53Z</time>
      </trkpt>
      <trkpt lat="47.92234" lon="7.03792">
        <ele>1186</ele>
        <time>2012-05-19T13:58:01Z</time>
      </trkpt>
      <trkpt lat="47.92222" lon="7.0381">
        <ele>1186</ele>
        <time>2012-05-19T13:58:07Z</time>
      </trkpt>
      <trkpt lat="47.92218" lon="7.03815">
        <ele>1186</ele>
        <time>2012-05-19T13:58:09Z</time>
      </trkpt>
      <trkpt lat="47.92212" lon="7.03824">
        <ele>1186</ele>
        <time>2012-05-19T13:58:12Z</time>
      </trkpt>
      <trkpt lat="47.92201" lon="7.03835">
        <ele>1185</ele>
        <time>2012-05-19T13:58:17Z</time>
      </trkpt>
      <trkpt lat="47.92195" lon="7.03841">
        <ele>1185</ele>
        <time>2012-05-19T13:58:19Z</time>
      </trkpt>
      <trkpt lat="47.9219" lon="7.03845">
        <ele>1185</ele>
        <time>2012-05-19T13:58:21Z</time>
      </trkpt>
      <trkpt lat="47.92186" lon="7.0385">
        <ele>1185</ele>
        <time>2012-05-19T13:58:23Z</time>
      </trkpt>
      <trkpt lat="47.92176" lon="7.03867">
        <ele>1186</ele>
        <time>2012-05-19T13:58:28Z</time>
      </trkpt>
      <trkpt lat="47.92153" lon="7.03894">
        <ele>1186</ele>
        <time>2012-05-19T13:58:37Z</time>
      </trkpt>
      <trkpt lat="47.9215" lon="7.039">
        <ele>1186</ele>
        <time>2012-05-19T13:58:39Z</time>
      </trkpt>
      <trkpt lat="47.92146" lon="7.03905">
        <ele>1186</ele>
        <time>2012-05-19T13:58:41Z</time>
      </trkpt>
      <trkpt lat="47.9214" lon="7.03914">
        <ele>1188</ele>
        <time>2012-05-19T13:58:45Z</time>
      </trkpt>
      <trkpt lat="47.92107" lon="7.03973">
        <ele>1190</ele>
        <time>2012-05-19T13:59:02Z</time>
      </trkpt>
      <trkpt lat="47.92101" lon="7.03978">
        <ele>1189</ele>
        <time>2012-05-19T13:59:04Z</time>
      </trkpt>
      <trkpt lat="47.92086" lon="7.03988">
        <ele>1190</ele>
        <time>2012-05-19T13:59:08Z</time>
      </trkpt>
      <trkpt lat="47.92071" lon="7.03994">
        <ele>1189</ele>
        <time>2012-05-19T13:59:15Z</time>
      </trkpt>
      <trkpt lat="47.92061" lon="7.04002">
        <ele>1190</ele>
        <time>2012-05-19T13:59:20Z</time>
      </trkpt>
      <trkpt lat="47.92056" lon="7.04003">
        <ele>1191</ele>
        <time>2012-05-19T13:59:23Z</time>
      </trkpt>
      <trkpt lat="47.92049" lon="7.04003">
        <ele>1191</ele>
        <time>2012-05-19T13:59:25Z</time>
      </trkpt>
      <trkpt lat="47.92044" lon="7.04005">
        <ele>1191</ele>
        <time>2012-05-19T13:59:27Z</time>
      </trkpt>
      <trkpt lat="47.92041" lon="7.04009">
        <ele>1190</ele>
        <time>2012-05-19T13:59:36Z</time>
      </trkpt>
      <trkpt lat="47.92037" lon="7.04013">
        <ele>1190</ele>
        <time>2012-05-19T13:59:46Z</time>
      </trkpt>
      <trkpt lat="47.92033" lon="7.04016">
        <ele>1190</ele>
        <time>2012-05-19T13:59:48Z</time>
      </trkpt>
      <trkpt lat="47.91987" lon="7.04044">
        <ele>1201</ele>
        <time>2012-05-19T14:00:09Z</time>
      </trkpt>
      <trkpt lat="47.91971" lon="7.0405">
        <ele>1201</ele>
        <time>2012-05-19T14:00:13Z</time>
      </trkpt>
      <trkpt lat="47.91961" lon="7.04056">
        <ele>1201</ele>
        <time>2012-05-19T14:00:15Z</time>
      </trkpt>
      <trkpt lat="47.91858" lon="7.04122">
        <ele>1191</ele>
        <time>2012-05-19T14:00:45Z</time>
      </trkpt>
      <trkpt lat="47.91829" lon="7.04135">
        <ele>1190</ele>
        <time>2012-05-19T14:00:52Z</time>
      </trkpt>
      <trkpt lat="47.91801" lon="7.04153">
        <ele>1190</ele>
        <time>2012-05-19T14:01:01Z</time>
      </trkpt>
      <trkpt lat="47.91777" lon="7.04176">
        <ele>1188</ele>
        <time>2012-05-19T14:01:06Z</time>
      </trkpt>
      <trkpt lat="47.9172" lon="7.04239">
        <ele>1186</ele>
        <time>2012-05-19T14:01:25Z</time>
      </trkpt>
      <trkpt lat="47.91705" lon="7.04264">
        <ele>1192</ele>
        <time>2012-05-19T14:01:40Z</time>
      </trkpt>
      <trkpt lat="47.91696" lon="7.04272">
        <ele>1192</ele>
        <time>2012-05-19T14:01:46Z</time>
      </trkpt>
      <trkpt lat="47.91692" lon="7.04276">
        <ele>1192</ele>
        <time>2012-05-19T14:01:49Z</time>
      </trkpt>
      <trkpt lat="47.91687" lon="7.04279">
        <ele>1192</ele>
        <time>2012-05-19T14:01:52Z</time>
      </trkpt>
      <trkpt lat="47.91679" lon="7.04299">
        <ele>1194</ele>
        <time>2012-05-19T14:02:00Z</time>
      </trkpt>
      <trkpt lat="47.91678" lon="7.04308">
        <ele>1195</ele>
        <time>2012-05-19T14:02:03Z</time>
      </trkpt>
      <trkpt lat="47.91676" lon="7.04314">
        <ele>1195</ele>
        <time>2012-05-19T14:02:05Z</time>
      </trkpt>
      <trkpt lat="47.91674" lon="7.04321">
        <ele>1195</ele>
        <time>2012-05-19T14:02:09Z</time>
      </trkpt>
      <trkpt lat="47.91653" lon="7.04349">
        <ele>1199</ele>
        <time>2012-05-19T14:02:24Z</time>
      </trkpt>
      <trkpt lat="47.91641" lon="7.04362">
        <ele>1197</ele>
        <time>2012-05-19T14:02:30Z</time>
      </trkpt>
      <trkpt lat="47.91623" lon="7.04374">
        <ele>1198</ele>
        <time>2012-05-19T14:02:39Z</time>
      </trkpt>
      <trkpt lat="47.9161" lon="7.04381">
        <ele>1201</ele>
        <time>2012-05-19T14:04:14Z</time>
      </trkpt>
      <trkpt lat="47.91468" lon="7.04426">
        <ele>1194</ele>
        <time>2012-05-19T14:04:45Z</time>
      </trkpt>
      <trkpt lat="47.91448" lon="7.04427">
        <ele>1193</ele>
        <time>2012-05-19T14:04:48Z</time>
      </trkpt>
      <trkpt lat="47.91418" lon="7.04439">
        <ele>1193</ele>
        <time>2012-05-19T14:04:53Z</time>
      </trkpt>
      <trkpt lat="47.91413" lon="7.04441">
        <ele>1193</ele>
        <time>2012-05-19T14:04:54Z</time>
      </trkpt>
      <trkpt lat="47.91391" lon="7.04468">
        <ele>1191</ele>
        <time>2012-05-19T14:04:59Z</time>
      </trkpt>
      <trkpt lat="47.91372" lon="7.04496">
        <ele>1190</ele>
        <time>2012-05-19T14:05:03Z</time>
      </trkpt>
      <trkpt lat="47.91343" lon="7.04558">
        <ele>1192</ele>
        <time>2012-05-19T14:05:12Z</time>
      </trkpt>
      <trkpt lat="47.91332" lon="7.04586">
        <ele>1190</ele>
        <time>2012-05-19T14:05:16Z</time>
      </trkpt>
      <trkpt lat="47.91294" lon="7.04693">
        <ele>1190</ele>
        <time>2012-05-19T14:05:39Z</time>
      </trkpt>
      <trkpt lat="47.91289" lon="7.04707">
        <ele>1191</ele>
        <time>2012-05-19T14:05:43Z</time>
      </trkpt>
      <trkpt lat="47.91284" lon="7.04707">
        <ele>1191</ele>
        <time>2012-05-19T14:05:46Z</time>
      </trkpt>
      <trkpt lat="47.91284" lon="7.04706">
        <ele>1193</ele>
        <time>2012-05-19T14:06:36Z</time>
      </trkpt>
      <trkpt lat="47.91284" lon="7.04718">
        <ele>1193</ele>
        <time>2012-05-19T14:07:10Z</time>
      </trkpt>
      <trkpt lat="47.91257" lon="7.04834">
        <ele>1185</ele>
        <time>2012-05-19T14:07:23Z</time>
      </trkpt>
      <trkpt lat="47.91238" lon="7.04857">
        <ele>1183</ele>
        <time>2012-05-19T14:07:26Z</time>
      </trkpt>
      <trkpt lat="47.91211" lon="7.04891">
        <ele>1182</ele>
        <time>2012-05-19T14:07:31Z</time>
      </trkpt>
      <trkpt lat="47.91203" lon="7.04905">
        <ele>1180</ele>
        <time>2012-05-19T14:07:33Z</time>
      </trkpt>
      <trkpt lat="47.91202" lon="7.04922">
        <ele>1179</ele>
        <time>2012-05-19T14:07:36Z</time>
      </trkpt>
      <trkpt lat="47.91196" lon="7.04927">
        <ele>1178</ele>
        <time>2012-05-19T14:07:38Z</time>
      </trkpt>
      <trkpt lat="47.91181" lon="7.04935">
        <ele>1177</ele>
        <time>2012-05-19T14:07:44Z</time>
      </trkpt>
      <trkpt lat="47.91131" lon="7.04999">
        <ele>1180</ele>
        <time>2012-05-19T14:08:14Z</time>
      </trkpt>
      <trkpt lat="47.91128" lon="7.05007">
        <ele>1181</ele>
        <time>2012-05-19T14:08:17Z</time>
      </trkpt>
      <trkpt lat="47.91116" lon="7.0502">
        <ele>1182</ele>
        <time>2012-05-19T14:08:25Z</time>
      </trkpt>
      <trkpt lat="47.91081" lon="7.05072">
        <ele>1190</ele>
        <time>2012-05-19T14:08:54Z</time>
      </trkpt>
      <trkpt lat="47.91076" lon="7.05079">
        <ele>1191</ele>
        <time>2012-05-19T14:08:57Z</time>
      </trkpt>
      <trkpt lat="47.91074" lon="7.05088">
        <ele>1191</ele>
        <time>2012-05-19T14:09:01Z</time>
      </trkpt>
      <trkpt lat="47.91072" lon="7.05094">
        <ele>1191</ele>
        <time>2012-05-19T14:09:04Z</time>
      </trkpt>
      <trkpt lat="47.9107" lon="7.05107">
        <ele>1191</ele>
        <time>2012-05-19T14:09:50Z</time>
      </trkpt>
      <trkpt lat="47.91068" lon="7.0515">
        <ele>1191</ele>
        <time>2012-05-19T14:09:57Z</time>
      </trkpt>
      <trkpt lat="47.91065" lon="7.05265">
        <ele>1184</ele>
        <time>2012-05-19T14:10:12Z</time>
      </trkpt>
      <trkpt lat="47.91066" lon="7.05281">
        <ele>1185</ele>
        <time>2012-05-19T14:10:17Z</time>
      </trkpt>
      <trkpt lat="47.9107" lon="7.05286">
        <ele>1187</ele>
        <time>2012-05-19T14:10:20Z</time>
      </trkpt>
      <trkpt lat="47.9107" lon="7.05293">
        <ele>1188</ele>
        <time>2012-05-19T14:10:24Z</time>
      </trkpt>
      <trkpt lat="47.91071" lon="7.05318">
        <ele>1190</ele>
        <time>2012-05-19T14:10:42Z</time>
      </trkpt>
      <trkpt lat="47.91074" lon="7.05324">
        <ele>1190</ele>
        <time>2012-05-19T14:10:46Z</time>
      </trkpt>
      <trkpt lat="47.91072" lon="7.05331">
        <ele>1190</ele>
        <time>2012-05-19T14:10:51Z</time>
      </trkpt>
      <trkpt lat="47.9107" lon="7.05337">
        <ele>1192</ele>
        <time>2012-05-19T14:10:54Z</time>
      </trkpt>
      <trkpt lat="47.91071" lon="7.05345">
        <ele>1195</ele>
        <time>2012-05-19T14:10:59Z</time>
      </trkpt>
      <trkpt lat="47.91074" lon="7.05351">
        <ele>1195</ele>
        <time>2012-05-19T14:11:04Z</time>
      </trkpt>
      <trkpt lat="47.91073" lon="7.05409">
        <ele>1203</ele>
        <time>2012-05-19T14:11:37Z</time>
      </trkpt>
      <trkpt lat="47.91078" lon="7.05441">
        <ele>1207</ele>
        <time>2012-05-19T14:11:55Z</time>
      </trkpt>
      <trkpt lat="47.91079" lon="7.0545">
        <ele>1207</ele>
        <time>2012-05-19T14:11:59Z</time>
      </trkpt>
      <trkpt lat="47.91079" lon="7.05458">
        <ele>1207</ele>
        <time>2012-05-19T14:12:03Z</time>
      </trkpt>
      <trkpt lat="47.91082" lon="7.05479">
        <ele>1211</ele>
        <time>2012-05-19T14:13:14Z</time>
      </trkpt>
      <trkpt lat="47.91083" lon="7.05506">
        <ele>1211</ele>
        <time>2012-05-19T14:13:22Z</time>
      </trkpt>
      <trkpt lat="47.91085" lon="7.05681">
        <ele>1212</ele>
        <time>2012-05-19T14:13:57Z</time>
      </trkpt>
      <trkpt lat="47.91084" lon="7.05689">
        <ele>1212</ele>
        <time>2012-05-19T14:14:00Z</time>
      </trkpt>
      <trkpt lat="47.91084" lon="7.05719">
        <ele>1212</ele>
        <time>2012-05-19T14:14:09Z</time>
      </trkpt>
      <trkpt lat="47.91088" lon="7.0575">
        <ele>1211</ele>
        <time>2012-05-19T14:14:15Z</time>
      </trkpt>
      <trkpt lat="47.911" lon="7.05794">
        <ele>1215</ele>
        <time>2012-05-19T14:14:28Z</time>
      </trkpt>
      <trkpt lat="47.91102" lon="7.05826">
        <ele>1214</ele>
        <time>2012-05-19T14:14:32Z</time>
      </trkpt>
      <trkpt lat="47.9112" lon="7.05889">
        <ele>1211</ele>
        <time>2012-05-19T14:14:43Z</time>
      </trkpt>
      <trkpt lat="47.91158" lon="7.0601">
        <ele>1204</ele>
        <time>2012-05-19T14:14:54Z</time>
      </trkpt>
      <trkpt lat="47.91157" lon="7.06017">
        <ele>1202</ele>
        <time>2012-05-19T14:14:56Z</time>
      </trkpt>
      <trkpt lat="47.91161" lon="7.06025">
        <ele>1200</ele>
        <time>2012-05-19T14:15:03Z</time>
      </trkpt>
      <trkpt lat="47.91161" lon="7.06033">
        <ele>1200</ele>
        <time>2012-05-19T14:15:08Z</time>
      </trkpt>
      <trkpt lat="47.91159" lon="7.06052">
        <ele>1200</ele>
        <time>2012-05-19T14:15:13Z</time>
      </trkpt>
      <trkpt lat="47.91158" lon="7.06067">
        <ele>1200</ele>
        <time>2012-05-19T14:15:18Z</time>
      </trkpt>
      <trkpt lat="47.91147" lon="7.06107">
        <ele>1204</ele>
        <time>2012-05-19T14:15:29Z</time>
      </trkpt>
      <trkpt lat="47.91137" lon="7.06152">
        <ele>1202</ele>
        <time>2012-05-19T14:15:38Z</time>
      </trkpt>
      <trkpt lat="47.91135" lon="7.06166">
        <ele>1203</ele>
        <time>2012-05-19T14:15:42Z</time>
      </trkpt>
      <trkpt lat="47.91127" lon="7.06189">
        <ele>1206</ele>
        <time>2012-05-19T14:15:48Z</time>
      </trkpt>
      <trkpt lat="47.91122" lon="7.06205">
        <ele>1207</ele>
        <time>2012-05-19T14:15:52Z</time>
      </trkpt>
      <trkpt lat="47.91121" lon="7.06213">
        <ele>1207</ele>
        <time>2012-05-19T14:15:54Z</time>
      </trkpt>
      <trkpt lat="47.91113" lon="7.0624">
        <ele>1206</ele>
        <time>2012-05-19T14:15:58Z</time>
      </trkpt>
      <trkpt lat="47.91115" lon="7.06261">
        <ele>1206</ele>
        <time>2012-05-19T14:16:03Z</time>
      </trkpt>
      <trkpt lat="47.91114" lon="7.06271">
        <ele>1205</ele>
        <time>2012-05-19T14:16:05Z</time>
      </trkpt>
      <trkpt lat="47.91117" lon="7.063">
        <ele>1204</ele>
        <time>2012-05-19T14:16:11Z</time>
      </trkpt>
      <trkpt lat="47.91117" lon="7.06308">
        <ele>1205</ele>
        <time>2012-05-19T14:16:13Z</time>
      </trkpt>
      <trkpt lat="47.91116" lon="7.06315">
        <ele>1205</ele>
        <time>2012-05-19T14:16:15Z</time>
      </trkpt>
      <trkpt lat="47.91115" lon="7.06333">
        <ele>1204</ele>
        <time>2012-05-19T14:16:19Z</time>
      </trkpt>
      <trkpt lat="47.91112" lon="7.06346">
        <ele>1204</ele>
        <time>2012-05-19T14:16:21Z</time>
      </trkpt>
      <trkpt lat="47.911" lon="7.06389">
        <ele>1205</ele>
        <time>2012-05-19T14:16:30Z</time>
      </trkpt>
      <trkpt lat="47.91091" lon="7.06402">
        <ele>1208</ele>
        <time>2012-05-19T14:17:45Z</time>
      </trkpt>
      <trkpt lat="47.91085" lon="7.06415">
        <ele>1208</ele>
        <time>2012-05-19T14:17:47Z</time>
      </trkpt>
      <trkpt lat="47.91066" lon="7.06463">
        <ele>1207</ele>
        <time>2012-05-19T14:17:57Z</time>
      </trkpt>
      <trkpt lat="47.91066" lon="7.06471">
        <ele>1207</ele>
        <time>2012-05-19T14:17:59Z</time>
      </trkpt>
      <trkpt lat="47.91058" lon="7.06483">
        <ele>1205</ele>
        <time>2012-05-19T14:18:03Z</time>
      </trkpt>
      <trkpt lat="47.90982" lon="7.0662">
        <ele>1202</ele>
        <time>2012-05-19T14:18:33Z</time>
      </trkpt>
      <trkpt lat="47.90979" lon="7.06626">
        <ele>1201</ele>
        <time>2012-05-19T14:18:34Z</time>
      </trkpt>
      <trkpt lat="47.90952" lon="7.06656">
        <ele>1200</ele>
        <time>2012-05-19T14:18:47Z</time>
      </trkpt>
      <trkpt lat="47.90945" lon="7.0667">
        <ele>1198</ele>
        <time>2012-05-19T14:18:54Z</time>
      </trkpt>
      <trkpt lat="47.90915" lon="7.0671">
        <ele>1198</ele>
        <time>2012-05-19T14:19:04Z</time>
      </trkpt>
      <trkpt lat="47.90898" lon="7.06724">
        <ele>1196</ele>
        <time>2012-05-19T14:19:10Z</time>
      </trkpt>
      <trkpt lat="47.90891" lon="7.06728">
        <ele>1196</ele>
        <time>2012-05-19T14:19:12Z</time>
      </trkpt>
      <trkpt lat="47.90886" lon="7.0673">
        <ele>1196</ele>
        <time>2012-05-19T14:19:14Z</time>
      </trkpt>
      <trkpt lat="47.9088" lon="7.06734">
        <ele>1195</ele>
        <time>2012-05-19T14:19:17Z</time>
      </trkpt>
      <trkpt lat="47.90841" lon="7.06766">
        <ele>1193</ele>
        <time>2012-05-19T14:19:32Z</time>
      </trkpt>
      <trkpt lat="47.9083" lon="7.06786">
        <ele>1195</ele>
        <time>2012-05-19T14:19:38Z</time>
      </trkpt>
      <trkpt lat="47.90824" lon="7.06792">
        <ele>1195</ele>
        <time>2012-05-19T14:19:40Z</time>
      </trkpt>
      <trkpt lat="47.9082" lon="7.06797">
        <ele>1195</ele>
        <time>2012-05-19T14:19:42Z</time>
      </trkpt>
      <trkpt lat="47.90812" lon="7.0681">
        <ele>1195</ele>
        <time>2012-05-19T14:19:48Z</time>
      </trkpt>
      <trkpt lat="47.90795" lon="7.0684">
        <ele>1196</ele>
        <time>2012-05-19T14:20:00Z</time>
      </trkpt>
      <trkpt lat="47.90789" lon="7.06855">
        <ele>1196</ele>
        <time>2012-05-19T14:20:06Z</time>
      </trkpt>
      <trkpt lat="47.90787" lon="7.06861">
        <ele>1196</ele>
        <time>2012-05-19T14:20:09Z</time>
      </trkpt>
      <trkpt lat="47.90779" lon="7.06881">
        <ele>1195</ele>
        <time>2012-05-19T14:20:17Z</time>
      </trkpt>
      <trkpt lat="47.90773" lon="7.06907">
        <ele>1196</ele>
        <time>2012-05-19T14:20:25Z</time>
      </trkpt>
      <trkpt lat="47.90771" lon="7.06916">
        <ele>1196</ele>
        <time>2012-05-19T14:20:29Z</time>
      </trkpt>
      <trkpt lat="47.90764" lon="7.06961">
        <ele>1195</ele>
        <time>2012-05-19T14:20:42Z</time>
      </trkpt>
      <trkpt lat="47.90762" lon="7.06972">
        <ele>1195</ele>
        <time>2012-05-19T14:20:44Z</time>
      </trkpt>
      <trkpt lat="47.9076" lon="7.0699">
        <ele>1197</ele>
        <time>2012-05-19T14:20:48Z</time>
      </trkpt>
      <trkpt lat="47.90758" lon="7.07001">
        <ele>1197</ele>
        <time>2012-05-19T14:20:51Z</time>
      </trkpt>
      <trkpt lat="47.90755" lon="7.07019">
        <ele>1198</ele>
        <time>2012-05-19T14:20:55Z</time>
      </trkpt>
      <trkpt lat="47.90753" lon="7.0703">
        <ele>1198</ele>
        <time>2012-05-19T14:20:57Z</time>
      </trkpt>
      <trkpt lat="47.90752" lon="7.07037">
        <ele>1198</ele>
        <time>2012-05-19T14:20:59Z</time>
      </trkpt>
      <trkpt lat="47.90749" lon="7.07048">
        <ele>1197</ele>
        <time>2012-05-19T14:21:02Z</time>
      </trkpt>
      <trkpt lat="47.90743" lon="7.07069">
        <ele>1199</ele>
        <time>2012-05-19T14:21:06Z</time>
      </trkpt>
      <trkpt lat="47.90741" lon="7.07077">
        <ele>1198</ele>
        <time>2012-05-19T14:21:08Z</time>
      </trkpt>
      <trkpt lat="47.90736" lon="7.07095">
        <ele>1199</ele>
        <time>2012-05-19T14:21:12Z</time>
      </trkpt>
      <trkpt lat="47.90732" lon="7.07112">
        <ele>1199</ele>
        <time>2012-05-19T14:21:16Z</time>
      </trkpt>
      <trkpt lat="47.90728" lon="7.07155">
        <ele>1201</ele>
        <time>2012-05-19T14:21:26Z</time>
      </trkpt>
      <trkpt lat="47.90728" lon="7.07197">
        <ele>1202</ele>
        <time>2012-05-19T14:21:33Z</time>
      </trkpt>
      <trkpt lat="47.90727" lon="7.07203">
        <ele>1201</ele>
        <time>2012-05-19T14:21:35Z</time>
      </trkpt>
      <trkpt lat="47.90727" lon="7.07213">
        <ele>1201</ele>
        <time>2012-05-19T14:21:37Z</time>
      </trkpt>
      <trkpt lat="47.90724" lon="7.07233">
        <ele>1204</ele>
        <time>2012-05-19T14:21:42Z</time>
      </trkpt>
      <trkpt lat="47.90722" lon="7.07248">
        <ele>1203</ele>
        <time>2012-05-19T14:21:45Z</time>
      </trkpt>
      <trkpt lat="47.90721" lon="7.07255">
        <ele>1204</ele>
        <time>2012-05-19T14:21:47Z</time>
      </trkpt>
      <trkpt lat="47.90721" lon="7.0727">
        <ele>1203</ele>
        <time>2012-05-19T14:21:52Z</time>
      </trkpt>
      <trkpt lat="47.90719" lon="7.07286">
        <ele>1204</ele>
        <time>2012-05-19T14:21:55Z</time>
      </trkpt>
      <trkpt lat="47.90715" lon="7.0731">
        <ele>1206</ele>
        <time>2012-05-19T14:22:01Z</time>
      </trkpt>
      <trkpt lat="47.90719" lon="7.07482">
        <ele>1210</ele>
        <time>2012-05-19T14:22:32Z</time>
      </trkpt>
      <trkpt lat="47.90731" lon="7.07526">
        <ele>1213</ele>
        <time>2012-05-19T14:22:41Z</time>
      </trkpt>
      <trkpt lat="47.90735" lon="7.07535">
        <ele>1213</ele>
        <time>2012-05-19T14:22:43Z</time>
      </trkpt>
      <trkpt lat="47.90741" lon="7.07555">
        <ele>1213</ele>
        <time>2012-05-19T14:22:46Z</time>
      </trkpt>
      <trkpt lat="47.90774" lon="7.07692">
        <ele>1213</ele>
        <time>2012-05-19T14:23:07Z</time>
      </trkpt>
      <trkpt lat="47.90791" lon="7.07914">
        <ele>1225</ele>
        <time>2012-05-19T14:23:38Z</time>
      </trkpt>
      <trkpt lat="47.90792" lon="7.07934">
        <ele>1225</ele>
        <time>2012-05-19T14:23:41Z</time>
      </trkpt>
      <trkpt lat="47.90779" lon="7.07999">
        <ele>1225</ele>
        <time>2012-05-19T14:23:50Z</time>
      </trkpt>
      <trkpt lat="47.90783" lon="7.08272">
        <ele>1233</ele>
        <time>2012-05-19T14:24:20Z</time>
      </trkpt>
      <trkpt lat="47.90814" lon="7.08521">
        <ele>1224</ele>
        <time>2012-05-19T14:24:48Z</time>
      </trkpt>
      <trkpt lat="47.90789" lon="7.08628">
        <ele>1229</ele>
        <time>2012-05-19T14:25:02Z</time>
      </trkpt>
      <trkpt lat="47.90616" lon="7.08712">
        <ele>1227</ele>
        <time>2012-05-19T14:25:29Z</time>
      </trkpt>
      <trkpt lat="47.90612" lon="7.08726">
        <ele>1228</ele>
        <time>2012-05-19T14:25:31Z</time>
      </trkpt>
      <trkpt lat="47.90601" lon="7.08857">
        <ele>1238</ele>
        <time>2012-05-19T14:25:48Z</time>
      </trkpt>
      <trkpt lat="47.906" lon="7.0887">
        <ele>1238</ele>
        <time>2012-05-19T14:25:50Z</time>
      </trkpt>
      <trkpt lat="47.90571" lon="7.08977">
        <ele>1231</ele>
        <time>2012-05-19T14:26:02Z</time>
      </trkpt>
      <trkpt lat="47.90505" lon="7.09033">
        <ele>1232</ele>
        <time>2012-05-19T14:26:16Z</time>
      </trkpt>
      <trkpt lat="47.90504" lon="7.09037">
        <ele>1229</ele>
        <time>2012-05-19T14:29:10Z</time>
      </trkpt>
      <trkpt lat="47.90499" lon="7.09042">
        <ele>1229</ele>
        <time>2012-05-19T14:29:12Z</time>
      </trkpt>
      <trkpt lat="47.90468" lon="7.09081">
        <ele>1234</ele>
        <time>2012-05-19T14:29:31Z</time>
      </trkpt>
      <trkpt lat="47.90465" lon="7.09086">
        <ele>1233</ele>
        <time>2012-05-19T14:29:33Z</time>
      </trkpt>
      <trkpt lat="47.90458" lon="7.09099">
        <ele>1233</ele>
        <time>2012-05-19T14:29:38Z</time>
      </trkpt>
      <trkpt lat="47.9044" lon="7.09164">
        <ele>1241</ele>
        <time>2012-05-19T14:30:08Z</time>
      </trkpt>
      <trkpt lat="47.90438" lon="7.09171">
        <ele>1241</ele>
        <time>2012-05-19T14:30:12Z</time>
      </trkpt>
      <trkpt lat="47.90434" lon="7.09176">
        <ele>1241</ele>
        <time>2012-05-19T14:30:15Z</time>
      </trkpt>
      <trkpt lat="47.90431" lon="7.09185">
        <ele>1242</ele>
        <time>2012-05-19T14:30:22Z</time>
      </trkpt>
      <trkpt lat="47.90424" lon="7.09209">
        <ele>1247</ele>
        <time>2012-05-19T14:31:03Z</time>
      </trkpt>
      <trkpt lat="47.90423" lon="7.09215">
        <ele>1246</ele>
        <time>2012-05-19T14:31:10Z</time>
      </trkpt>
      <trkpt lat="47.90419" lon="7.09229">
        <ele>1247</ele>
        <time>2012-05-19T14:31:26Z</time>
      </trkpt>
      <trkpt lat="47.90409" lon="7.09261">
        <ele>1252</ele>
        <time>2012-05-19T14:32:00Z</time>
      </trkpt>
      <trkpt lat="47.90398" lon="7.09293">
        <ele>1258</ele>
        <time>2012-05-19T14:32:33Z</time>
      </trkpt>
      <trkpt lat="47.90393" lon="7.09297">
        <ele>1259</ele>
        <time>2012-05-19T14:32:40Z</time>
      </trkpt>
      <trkpt lat="47.90378" lon="7.09297">
        <ele>1262</ele>
        <time>2012-05-19T14:32:58Z</time>
      </trkpt>
      <trkpt lat="47.90374" lon="7.09295">
        <ele>1262</ele>
        <time>2012-05-19T14:33:01Z</time>
      </trkpt>
      <trkpt lat="47.90317" lon="7.09285">
        <ele>1272</ele>
        <time>2012-05-19T14:33:34Z</time>
      </trkpt>
      <trkpt lat="47.90312" lon="7.09285">
        <ele>1273</ele>
        <time>2012-05-19T14:33:37Z</time>
      </trkpt>
      <trkpt lat="47.90306" lon="7.09286">
        <ele>1274</ele>
        <time>2012-05-19T14:33:41Z</time>
      </trkpt>
      <trkpt lat="47.90272" lon="7.09289">
        <ele>1281</ele>
        <time>2012-05-19T14:34:14Z</time>
      </trkpt>
      <trkpt lat="47.90232" lon="7.09304">
        <ele>1295</ele>
        <time>2012-05-19T14:34:45Z</time>
      </trkpt>
      <trkpt lat="47.90221" lon="7.09318">
        <ele>1300</ele>
        <time>2012-05-19T14:34:56Z</time>
      </trkpt>
      <trkpt lat="47.90212" lon="7.09329">
        <ele>1301</ele>
        <time>2012-05-19T14:35:02Z</time>
      </trkpt>
      <trkpt lat="47.90208" lon="7.09336">
        <ele>1301</ele>
        <time>2012-05-19T14:35:07Z</time>
      </trkpt>
      <trkpt lat="47.90203" lon="7.09341">
        <ele>1300</ele>
        <time>2012-05-19T14:35:11Z</time>
      </trkpt>
      <trkpt lat="47.90199" lon="7.09347">
        <ele>1299</ele>
        <time>2012-05-19T14:35:14Z</time>
      </trkpt>
      <trkpt lat="47.90198" lon="7.09356">
        <ele>1299</ele>
        <time>2012-05-19T14:35:17Z</time>
      </trkpt>
      <trkpt lat="47.90196" lon="7.09364">
        <ele>1298</ele>
        <time>2012-05-19T14:35:21Z</time>
      </trkpt>
      <trkpt lat="47.90192" lon="7.09378">
        <ele>1298</ele>
        <time>2012-05-19T14:35:25Z</time>
      </trkpt>
      <trkpt lat="47.90186" lon="7.09399">
        <ele>1299</ele>
        <time>2012-05-19T14:35:32Z</time>
      </trkpt>
      <trkpt lat="47.90187" lon="7.09408">
        <ele>1299</ele>
        <time>2012-05-19T14:35:34Z</time>
      </trkpt>
      <trkpt lat="47.90188" lon="7.09416">
        <ele>1298</ele>
        <time>2012-05-19T14:35:40Z</time>
      </trkpt>
      <trkpt lat="47.90189" lon="7.09422">
        <ele>1298</ele>
        <time>2012-05-19T14:35:43Z</time>
      </trkpt>
      <trkpt lat="47.90188" lon="7.09429">
        <ele>1298</ele>
        <time>2012-05-19T14:35:47Z</time>
      </trkpt>
      <trkpt lat="47.90187" lon="7.09459">
        <ele>1301</ele>
        <time>2012-05-19T14:36:03Z</time>
      </trkpt>
      <trkpt lat="47.90185" lon="7.09465">
        <ele>1301</ele>
        <time>2012-05-19T14:36:07Z</time>
      </trkpt>
      <trkpt lat="47.90156" lon="7.09497">
        <ele>1307</ele>
        <time>2012-05-19T14:36:34Z</time>
      </trkpt>
      <trkpt lat="47.90146" lon="7.09501">
        <ele>1308</ele>
        <time>2012-05-19T14:36:41Z</time>
      </trkpt>
      <trkpt lat="47.90144" lon="7.09507">
        <ele>1309</ele>
        <time>2012-05-19T14:36:46Z</time>
      </trkpt>
      <trkpt lat="47.90139" lon="7.09509">
        <ele>1311</ele>
        <time>2012-05-19T14:36:51Z</time>
      </trkpt>
      <trkpt lat="47.90095" lon="7.09542">
        <ele>1320</ele>
        <time>2012-05-19T14:37:24Z</time>
      </trkpt>
      <trkpt lat="47.90091" lon="7.09544">
        <ele>1321</ele>
        <time>2012-05-19T14:37:29Z</time>
      </trkpt>
      <trkpt lat="47.90088" lon="7.0955">
        <ele>1322</ele>
        <time>2012-05-19T14:37:37Z</time>
      </trkpt>
      <trkpt lat="47.90055" lon="7.09571">
        <ele>1328</ele>
        <time>2012-05-19T14:38:09Z</time>
      </trkpt>
      <trkpt lat="47.90046" lon="7.09577">
        <ele>1328</ele>
        <time>2012-05-19T14:38:14Z</time>
      </trkpt>
      <trkpt lat="47.90038" lon="7.09586">
        <ele>1330</ele>
        <time>2012-05-19T14:38:24Z</time>
      </trkpt>
      <trkpt lat="47.90025" lon="7.09609">
        <ele>1335</ele>
        <time>2012-05-19T14:38:55Z</time>
      </trkpt>
      <trkpt lat="47.90013" lon="7.09638">
        <ele>1340</ele>
        <time>2012-05-19T14:39:26Z</time>
      </trkpt>
      <trkpt lat="47.89997" lon="7.09664">
        <ele>1342</ele>
        <time>2012-05-19T14:39:40Z</time>
      </trkpt>
      <trkpt lat="47.89996" lon="7.0967">
        <ele>1343</ele>
        <time>2012-05-19T14:39:49Z</time>
      </trkpt>
      <trkpt lat="47.8998" lon="7.09703">
        <ele>1348</ele>
        <time>2012-05-19T14:42:57Z</time>
      </trkpt>
      <trkpt lat="47.89979" lon="7.0971">
        <ele>1350</ele>
        <time>2012-05-19T14:43:05Z</time>
      </trkpt>
      <trkpt lat="47.89976" lon="7.09715">
        <ele>1350</ele>
        <time>2012-05-19T14:43:12Z</time>
      </trkpt>
      <trkpt lat="47.8996" lon="7.09749">
        <ele>1356</ele>
        <time>2012-05-19T14:43:43Z</time>
      </trkpt>
      <trkpt lat="47.89948" lon="7.09766">
        <ele>1358</ele>
        <time>2012-05-19T14:44:02Z</time>
      </trkpt>
      <trkpt lat="47.89948" lon="7.09772">
        <ele>1358</ele>
        <time>2012-05-19T14:44:08Z</time>
      </trkpt>
      <trkpt lat="47.89941" lon="7.09783">
        <ele>1359</ele>
        <time>2012-05-19T14:44:18Z</time>
      </trkpt>
      <trkpt lat="47.89931" lon="7.09822">
        <ele>1365</ele>
        <time>2012-05-19T14:44:49Z</time>
      </trkpt>
      <trkpt lat="47.89926" lon="7.09836">
        <ele>1366</ele>
        <time>2012-05-19T14:45:00Z</time>
      </trkpt>
      <trkpt lat="47.89912" lon="7.09874">
        <ele>1372</ele>
        <time>2012-05-19T14:45:34Z</time>
      </trkpt>
      <trkpt lat="47.899" lon="7.09906">
        <ele>1373</ele>
        <time>2012-05-19T14:45:56Z</time>
      </trkpt>
      <trkpt lat="47.89899" lon="7.09919">
        <ele>1376</ele>
        <time>2012-05-19T14:46:05Z</time>
      </trkpt>
      <trkpt lat="47.89902" lon="7.09925">
        <ele>1377</ele>
        <time>2012-05-19T14:46:11Z</time>
      </trkpt>
      <trkpt lat="47.89932" lon="7.09955">
        <ele>1384</ele>
        <time>2012-05-19T14:46:44Z</time>
      </trkpt>
      <trkpt lat="47.89936" lon="7.09959">
        <ele>1384</ele>
        <time>2012-05-19T14:46:48Z</time>
      </trkpt>
      <trkpt lat="47.8994" lon="7.09965">
        <ele>1384</ele>
        <time>2012-05-19T14:46:52Z</time>
      </trkpt>
      <trkpt lat="47.89948" lon="7.09974">
        <ele>1385</ele>
        <time>2012-05-19T14:47:03Z</time>
      </trkpt>
      <trkpt lat="47.8995" lon="7.09981">
        <ele>1386</ele>
        <time>2012-05-19T14:47:08Z</time>
      </trkpt>
      <trkpt lat="47.89953" lon="7.09987">
        <ele>1387</ele>
        <time>2012-05-19T14:47:13Z</time>
      </trkpt>
      <trkpt lat="47.89962" lon="7.09992">
        <ele>1389</ele>
        <time>2012-05-19T14:47:25Z</time>
      </trkpt>
      <trkpt lat="47.89991" lon="7.09993">
        <ele>1396</ele>
        <time>2012-05-19T14:47:56Z</time>
      </trkpt>
      <trkpt lat="47.89995" lon="7.09992">
        <ele>1396</ele>
        <time>2012-05-19T14:48:01Z</time>
      </trkpt>
      <trkpt lat="47.90004" lon="7.09986">
        <ele>1397</ele>
        <time>2012-05-19T14:48:09Z</time>
      </trkpt>
      <trkpt lat="47.90022" lon="7.09972">
        <ele>1401</ele>
        <time>2012-05-19T14:48:27Z</time>
      </trkpt>
      <trkpt lat="47.90023" lon="7.09966">
        <ele>1401</ele>
        <time>2012-05-19T14:48:34Z</time>
      </trkpt>
      <trkpt lat="47.90021" lon="7.09963">
        <ele>1402</ele>
        <time>2012-05-19T14:48:40Z</time>
      </trkpt>
      <trkpt lat="47.90024" lon="7.09957">
        <ele>1403</ele>
        <time>2012-05-19T14:48:47Z</time>
      </trkpt>
      <trkpt lat="47.90039" lon="7.09921">
        <ele>1410</ele>
        <time>2012-05-19T14:49:18Z</time>
      </trkpt>
      <trkpt lat="47.90052" lon="7.09888">
        <ele>1415</ele>
        <time>2012-05-19T14:49:40Z</time>
      </trkpt>
      <trkpt lat="47.90056" lon="7.09885">
        <ele>1415</ele>
        <time>2012-05-19T14:49:43Z</time>
      </trkpt>
      <trkpt lat="47.90094" lon="7.09847">
        <ele>1421</ele>
        <time>2012-05-19T14:50:14Z</time>
      </trkpt>
      <trkpt lat="47.90099" lon="7.09842">
        <ele>1421</ele>
        <time>2012-05-19T14:50:18Z</time>
      </trkpt>
      <trkpt lat="47.90106" lon="7.09842">
        <ele>1424</ele>
        <time>2012-05-19T14:50:47Z</time>
      </trkpt>
      <trkpt lat="47.90116" lon="7.09839">
        <ele>1425</ele>
        <time>2012-05-19T14:51:00Z</time>
      </trkpt>
      <trkpt lat="47.90119" lon="7.09833">
        <ele>1425</ele>
        <time>2012-05-19T14:51:05Z</time>
      </trkpt>
      <trkpt lat="47.90118" lon="7.09833">
        <ele>1423</ele>
        <time>2012-05-19T14:53:50Z</time>
      </trkpt>
      <trkpt lat="47.90114" lon="7.0983">
        <ele>1423</ele>
        <time>2012-05-19T14:59:43Z</time>
      </trkpt>
      <trkpt lat="47.90113" lon="7.09835">
        <ele>1426</ele>
        <time>2012-05-19T15:01:00Z</time>
      </trkpt>
      <trkpt lat="47.9013" lon="7.09841">
        <ele>1425</ele>
        <time>2012-05-19T15:01:03Z</time>
      </trkpt>
      <trkpt lat="47.90125" lon="7.09838">
        <ele>1424</ele>
        <time>2012-05-19T15:01:07Z</time>
      </trkpt>
      <trkpt lat="47.90116" lon="7.09832">
        <ele>1424</ele>
        <time>2012-05-19T15:01:12Z</time>
      </trkpt>
      <trkpt lat="47.9012" lon="7.09832">
        <ele>1425</ele>
        <time>2012-05-19T15:10:16Z</time>
      </trkpt>
      <trkpt lat="47.90121" lon="7.09836">
        <ele>1425</ele>
        <time>2012-05-19T15:10:23Z</time>
      </trkpt>
      <trkpt lat="47.90124" lon="7.09837">
        <ele>1424</ele>
        <time>2012-05-19T15:19:26Z</time>
      </trkpt>
      <trkpt lat="47.90276" lon="7.09942">
        <ele>1412</ele>
        <time>2012-05-19T15:19:58Z</time>
      </trkpt>
      <trkpt lat="47.90281" lon="7.09948">
        <ele>1412</ele>
        <time>2012-05-19T15:20:00Z</time>
      </trkpt>
      <trkpt lat="47.90285" lon="7.09952">
        <ele>1412</ele>
        <time>2012-05-19T15:20:02Z</time>
      </trkpt>
      <trkpt lat="47.90294" lon="7.09967">
        <ele>1415</ele>
        <time>2012-05-19T15:20:08Z</time>
      </trkpt>
      <trkpt lat="47.90301" lon="7.09981">
        <ele>1415</ele>
        <time>2012-05-19T15:20:14Z</time>
      </trkpt>
      <trkpt lat="47.90296" lon="7.09982">
        <ele>1415</ele>
        <time>2012-05-19T15:20:19Z</time>
      </trkpt>
      <trkpt lat="47.90293" lon="7.09977">
        <ele>1415</ele>
        <time>2012-05-19T15:20:22Z</time>
      </trkpt>
      <trkpt lat="47.90292" lon="7.09972">
        <ele>1414</ele>
        <time>2012-05-19T15:43:26Z</time>
      </trkpt>
      <trkpt lat="47.90291" lon="7.09964">
        <ele>1414</ele>
        <time>2012-05-19T15:43:36Z</time>
      </trkpt>
      <trkpt lat="47.90287" lon="7.09958">
        <ele>1415</ele>
        <time>2012-05-19T15:43:38Z</time>
      </trkpt>
      <trkpt lat="47.90267" lon="7.09934">
        <ele>1414</ele>
        <time>2012-05-19T15:43:44Z</time>
      </trkpt>
      <trkpt lat="47.90263" lon="7.09927">
        <ele>1413</ele>
        <time>2012-05-19T15:43:46Z</time>
      </trkpt>
      <trkpt lat="47.90258" lon="7.09919">
        <ele>1410</ele>
        <time>2012-05-19T15:44:17Z</time>
      </trkpt>
      <trkpt lat="47.90252" lon="7.09915">
        <ele>1411</ele>
        <time>2012-05-19T15:44:19Z</time>
      </trkpt>
      <trkpt lat="47.90231" lon="7.09906">
        <ele>1410</ele>
        <time>2012-05-19T15:44:25Z</time>
      </trkpt>
      <trkpt lat="47.90229" lon="7.0991">
        <ele>1411</ele>
        <time>2012-05-19T15:44:50Z</time>
      </trkpt>
      <trkpt lat="47.90224" lon="7.09916">
        <ele>1410</ele>
        <time>2012-05-19T15:44:57Z</time>
      </trkpt>
      <trkpt lat="47.90222" lon="7.09922">
        <ele>1410</ele>
        <time>2012-05-19T15:45:01Z</time>
      </trkpt>
      <trkpt lat="47.90222" lon="7.09939">
        <ele>1410</ele>
        <time>2012-05-19T15:45:08Z</time>
      </trkpt>
      <trkpt lat="47.90237" lon="7.10068">
        <ele>1403</ele>
        <time>2012-05-19T15:45:27Z</time>
      </trkpt>
      <trkpt lat="47.90236" lon="7.10074">
        <ele>1401</ele>
        <time>2012-05-19T15:45:30Z</time>
      </trkpt>
      <trkpt lat="47.90229" lon="7.10074">
        <ele>1395</ele>
        <time>2012-05-19T15:45:48Z</time>
      </trkpt>
      <trkpt lat="47.90223" lon="7.10071">
        <ele>1393</ele>
        <time>2012-05-19T15:45:50Z</time>
      </trkpt>
      <trkpt lat="47.90211" lon="7.10054">
        <ele>1389</ele>
        <time>2012-05-19T15:46:08Z</time>
      </trkpt>
      <trkpt lat="47.90207" lon="7.10049">
        <ele>1389</ele>
        <time>2012-05-19T15:46:11Z</time>
      </trkpt>
      <trkpt lat="47.90174" lon="7.10015">
        <ele>1393</ele>
        <time>2012-05-19T15:46:33Z</time>
      </trkpt>
      <trkpt lat="47.90142" lon="7.0999">
        <ele>1400</ele>
        <time>2012-05-19T15:47:35Z</time>
      </trkpt>
      <trkpt lat="47.90142" lon="7.09991">
        <ele>1401</ele>
        <time>2012-05-19T15:47:55Z</time>
      </trkpt>
      <trkpt lat="47.90219" lon="7.10062">
        <ele>1396</ele>
        <time>2012-05-19T15:48:09Z</time>
      </trkpt>
      <trkpt lat="47.90221" lon="7.10069">
        <ele>1395</ele>
        <time>2012-05-19T15:48:10Z</time>
      </trkpt>
      <trkpt lat="47.90216" lon="7.10073">
        <ele>1394</ele>
        <time>2012-05-19T15:48:12Z</time>
      </trkpt>
      <trkpt lat="47.90067" lon="7.10107">
        <ele>1375</ele>
        <time>2012-05-19T15:48:43Z</time>
      </trkpt>
      <trkpt lat="47.89933" lon="7.10185">
        <ele>1352</ele>
        <time>2012-05-19T15:49:15Z</time>
      </trkpt>
      <trkpt lat="47.89918" lon="7.10192">
        <ele>1351</ele>
        <time>2012-05-19T15:49:18Z</time>
      </trkpt>
      <trkpt lat="47.89904" lon="7.10188">
        <ele>1350</ele>
        <time>2012-05-19T15:49:20Z</time>
      </trkpt>
      <trkpt lat="47.89898" lon="7.10182">
        <ele>1349</ele>
        <time>2012-05-19T15:49:22Z</time>
      </trkpt>
      <trkpt lat="47.89891" lon="7.10184">
        <ele>1347</ele>
        <time>2012-05-19T15:49:27Z</time>
      </trkpt>
      <trkpt lat="47.89869" lon="7.10179">
        <ele>1344</ele>
        <time>2012-05-19T15:49:32Z</time>
      </trkpt>
      <trkpt lat="47.89863" lon="7.10172">
        <ele>1343</ele>
        <time>2012-05-19T15:49:34Z</time>
      </trkpt>
      <trkpt lat="47.89859" lon="7.10179">
        <ele>1340</ele>
        <time>2012-05-19T15:49:39Z</time>
      </trkpt>
      <trkpt lat="47.89858" lon="7.10189">
        <ele>1337</ele>
        <time>2012-05-19T15:49:47Z</time>
      </trkpt>
      <trkpt lat="47.89857" lon="7.10198">
        <ele>1336</ele>
        <time>2012-05-19T15:49:49Z</time>
      </trkpt>
      <trkpt lat="47.8984" lon="7.10215">
        <ele>1334</ele>
        <time>2012-05-19T15:49:54Z</time>
      </trkpt>
      <trkpt lat="47.89837" lon="7.10228">
        <ele>1332</ele>
        <time>2012-05-19T15:49:56Z</time>
      </trkpt>
      <trkpt lat="47.89832" lon="7.1023">
        <ele>1331</ele>
        <time>2012-05-19T15:49:58Z</time>
      </trkpt>
      <trkpt lat="47.89788" lon="7.1021">
        <ele>1321</ele>
        <time>2012-05-19T15:50:10Z</time>
      </trkpt>
      <trkpt lat="47.89774" lon="7.10185">
        <ele>1315</ele>
        <time>2012-05-19T15:50:17Z</time>
      </trkpt>
      <trkpt lat="47.89768" lon="7.10189">
        <ele>1313</ele>
        <time>2012-05-19T15:50:20Z</time>
      </trkpt>
      <trkpt lat="47.89762" lon="7.10208">
        <ele>1309</ele>
        <time>2012-05-19T15:50:23Z</time>
      </trkpt>
      <trkpt lat="47.89742" lon="7.10297">
        <ele>1300</ele>
        <time>2012-05-19T15:50:32Z</time>
      </trkpt>
      <trkpt lat="47.89739" lon="7.10312">
        <ele>1293</ele>
        <time>2012-05-19T15:51:18Z</time>
      </trkpt>
      <trkpt lat="47.89738" lon="7.1032">
        <ele>1292</ele>
        <time>2012-05-19T15:51:20Z</time>
      </trkpt>
      <trkpt lat="47.89735" lon="7.10328">
        <ele>1289</ele>
        <time>2012-05-19T15:51:35Z</time>
      </trkpt>
      <trkpt lat="47.89734" lon="7.10336">
        <ele>1289</ele>
        <time>2012-05-19T15:51:38Z</time>
      </trkpt>
      <trkpt lat="47.89733" lon="7.10362">
        <ele>1287</ele>
        <time>2012-05-19T15:52:01Z</time>
      </trkpt>
      <trkpt lat="47.89723" lon="7.10382">
        <ele>1287</ele>
        <time>2012-05-19T15:52:06Z</time>
      </trkpt>
      <trkpt lat="47.89712" lon="7.10402">
        <ele>1286</ele>
        <time>2012-05-19T15:52:10Z</time>
      </trkpt>
      <trkpt lat="47.897" lon="7.10429">
        <ele>1287</ele>
        <time>2012-05-19T15:52:16Z</time>
      </trkpt>
      <trkpt lat="47.89696" lon="7.10437">
        <ele>1287</ele>
        <time>2012-05-19T15:52:18Z</time>
      </trkpt>
      <trkpt lat="47.89685" lon="7.10457">
        <ele>1286</ele>
        <time>2012-05-19T15:52:27Z</time>
      </trkpt>
      <trkpt lat="47.89682" lon="7.10464">
        <ele>1287</ele>
        <time>2012-05-19T15:52:31Z</time>
      </trkpt>
      <trkpt lat="47.89679" lon="7.1047">
        <ele>1287</ele>
        <time>2012-05-19T15:52:34Z</time>
      </trkpt>
      <trkpt lat="47.89676" lon="7.10478">
        <ele>1288</ele>
        <time>2012-05-19T15:52:39Z</time>
      </trkpt>
      <trkpt lat="47.89667" lon="7.10486">
        <ele>1287</ele>
        <time>2012-05-19T15:52:47Z</time>
      </trkpt>
      <trkpt lat="47.89664" lon="7.1049">
        <ele>1288</ele>
        <time>2012-05-19T15:52:51Z</time>
      </trkpt>
      <trkpt lat="47.89654" lon="7.10492">
        <ele>1289</ele>
        <time>2012-05-19T15:52:57Z</time>
      </trkpt>
      <trkpt lat="47.89648" lon="7.10494">
        <ele>1289</ele>
        <time>2012-05-19T15:53:00Z</time>
      </trkpt>
      <trkpt lat="47.89641" lon="7.10497">
        <ele>1290</ele>
        <time>2012-05-19T15:53:03Z</time>
      </trkpt>
      <trkpt lat="47.89626" lon="7.10513">
        <ele>1289</ele>
        <time>2012-05-19T15:53:09Z</time>
      </trkpt>
      <trkpt lat="47.8963" lon="7.10519">
        <ele>1287</ele>
        <time>2012-05-19T15:54:12Z</time>
      </trkpt>
      <trkpt lat="47.89633" lon="7.10522">
        <ele>1287</ele>
        <time>2012-05-19T15:54:34Z</time>
      </trkpt>
      <trkpt lat="47.89629" lon="7.10529">
        <ele>1287</ele>
        <time>2012-05-19T15:54:37Z</time>
      </trkpt>
      <trkpt lat="47.89628" lon="7.10537">
        <ele>1287</ele>
        <time>2012-05-19T15:54:39Z</time>
      </trkpt>
      <trkpt lat="47.89619" lon="7.10562">
        <ele>1286</ele>
        <time>2012-05-19T15:54:45Z</time>
      </trkpt>
      <trkpt lat="47.89604" lon="7.10582">
        <ele>1280</ele>
        <time>2012-05-19T15:54:59Z</time>
      </trkpt>
      <trkpt lat="47.89598" lon="7.1058">
        <ele>1279</ele>
        <time>2012-05-19T15:55:03Z</time>
      </trkpt>
      <trkpt lat="47.89583" lon="7.10574">
        <ele>1274</ele>
        <time>2012-05-19T15:55:17Z</time>
      </trkpt>
      <trkpt lat="47.89573" lon="7.10578">
        <ele>1273</ele>
        <time>2012-05-19T15:55:31Z</time>
      </trkpt>
      <trkpt lat="47.8957" lon="7.10577">
        <ele>1271</ele>
        <time>2012-05-19T15:55:39Z</time>
      </trkpt>
      <trkpt lat="47.89568" lon="7.10569">
        <ele>1270</ele>
        <time>2012-05-19T15:55:50Z</time>
      </trkpt>
      <trkpt lat="47.8956" lon="7.10565">
        <ele>1268</ele>
        <time>2012-05-19T15:55:58Z</time>
      </trkpt>
      <trkpt lat="47.89553" lon="7.10562">
        <ele>1268</ele>
        <time>2012-05-19T15:56:01Z</time>
      </trkpt>
      <trkpt lat="47.89546" lon="7.10562">
        <ele>1268</ele>
        <time>2012-05-19T15:56:03Z</time>
      </trkpt>
      <trkpt lat="47.89541" lon="7.10567">
        <ele>1267</ele>
        <time>2012-05-19T15:56:04Z</time>
      </trkpt>
      <trkpt lat="47.89535" lon="7.10576">
        <ele>1266</ele>
        <time>2012-05-19T15:56:06Z</time>
      </trkpt>
      <trkpt lat="47.89529" lon="7.10597">
        <ele>1264</ele>
        <time>2012-05-19T15:56:10Z</time>
      </trkpt>
      <trkpt lat="47.89523" lon="7.10597">
        <ele>1262</ele>
        <time>2012-05-19T15:56:13Z</time>
      </trkpt>
      <trkpt lat="47.89517" lon="7.10598">
        <ele>1260</ele>
        <time>2012-05-19T15:56:23Z</time>
      </trkpt>
      <trkpt lat="47.89512" lon="7.10602">
        <ele>1259</ele>
        <time>2012-05-19T15:56:25Z</time>
      </trkpt>
      <trkpt lat="47.89412" lon="7.10745">
        <ele>1251</ele>
        <time>2012-05-19T15:56:46Z</time>
      </trkpt>
      <trkpt lat="47.89391" lon="7.10735">
        <ele>1249</ele>
        <time>2012-05-19T15:56:51Z</time>
      </trkpt>
      <trkpt lat="47.89388" lon="7.10729">
        <ele>1248</ele>
        <time>2012-05-19T15:58:10Z</time>
      </trkpt>
      <trkpt lat="47.89381" lon="7.10709">
        <ele>1246</ele>
        <time>2012-05-19T15:58:15Z</time>
      </trkpt>
      <trkpt lat="47.89376" lon="7.10675">
        <ele>1245</ele>
        <time>2012-05-19T15:58:19Z</time>
      </trkpt>
      <trkpt lat="47.89378" lon="7.10653">
        <ele>1244</ele>
        <time>2012-05-19T15:58:21Z</time>
      </trkpt>
      <trkpt lat="47.89402" lon="7.10588">
        <ele>1242</ele>
        <time>2012-05-19T15:58:28Z</time>
      </trkpt>
      <trkpt lat="47.89401" lon="7.10577">
        <ele>1242</ele>
        <time>2012-05-19T15:58:29Z</time>
      </trkpt>
      <trkpt lat="47.89397" lon="7.1057">
        <ele>1241</ele>
        <time>2012-05-19T15:58:30Z</time>
      </trkpt>
      <trkpt lat="47.89392" lon="7.10565">
        <ele>1241</ele>
        <time>2012-05-19T15:58:31Z</time>
      </trkpt>
      <trkpt lat="47.89386" lon="7.10565">
        <ele>1241</ele>
        <time>2012-05-19T15:58:32Z</time>
      </trkpt>
      <trkpt lat="47.8938" lon="7.10569">
        <ele>1240</ele>
        <time>2012-05-19T15:58:34Z</time>
      </trkpt>
      <trkpt lat="47.89376" lon="7.10576">
        <ele>1237</ele>
        <time>2012-05-19T15:58:44Z</time>
      </trkpt>
      <trkpt lat="47.89181" lon="7.10747">
        <ele>1225</ele>
        <time>2012-05-19T15:59:12Z</time>
      </trkpt>
      <trkpt lat="47.88966" lon="7.10921">
        <ele>1204</ele>
        <time>2012-05-19T15:59:32Z</time>
      </trkpt>
      <trkpt lat="47.88954" lon="7.10992">
        <ele>1199</ele>
        <time>2012-05-19T15:59:37Z</time>
      </trkpt>
      <trkpt lat="47.88971" lon="7.11048">
        <ele>1193</ele>
        <time>2012-05-19T15:59:45Z</time>
      </trkpt>
      <trkpt lat="47.89161" lon="7.11269">
        <ele>1172</ele>
        <time>2012-05-19T16:00:10Z</time>
      </trkpt>
      <trkpt lat="47.89155" lon="7.11275">
        <ele>1170</ele>
        <time>2012-05-19T16:00:11Z</time>
      </trkpt>
      <trkpt lat="47.89139" lon="7.11278">
        <ele>1169</ele>
        <time>2012-05-19T16:00:13Z</time>
      </trkpt>
      <trkpt lat="47.89" lon="7.11328">
        <ele>1154</ele>
        <time>2012-05-19T16:00:26Z</time>
      </trkpt>
      <trkpt lat="47.88983" lon="7.11405">
        <ele>1149</ele>
        <time>2012-05-19T16:00:30Z</time>
      </trkpt>
      <trkpt lat="47.88992" lon="7.11454">
        <ele>1146</ele>
        <time>2012-05-19T16:00:33Z</time>
      </trkpt>
      <trkpt lat="47.89044" lon="7.11489">
        <ele>1141</ele>
        <time>2012-05-19T16:00:38Z</time>
      </trkpt>
      <trkpt lat="47.8924" lon="7.11675">
        <ele>1117</ele>
        <time>2012-05-19T16:01:00Z</time>
      </trkpt>
      <trkpt lat="47.89232" lon="7.11672">
        <ele>1113</ele>
        <time>2012-05-19T16:01:08Z</time>
      </trkpt>
      <trkpt lat="47.89209" lon="7.11644">
        <ele>1112</ele>
        <time>2012-05-19T16:01:19Z</time>
      </trkpt>
      <trkpt lat="47.89204" lon="7.11645">
        <ele>1111</ele>
        <time>2012-05-19T16:01:22Z</time>
      </trkpt>
      <trkpt lat="47.89198" lon="7.11654">
        <ele>1110</ele>
        <time>2012-05-19T16:01:24Z</time>
      </trkpt>
      <trkpt lat="47.8919" lon="7.11688">
        <ele>1108</ele>
        <time>2012-05-19T16:01:29Z</time>
      </trkpt>
      <trkpt lat="47.89072" lon="7.11933">
        <ele>1077</ele>
        <time>2012-05-19T16:02:03Z</time>
      </trkpt>
      <trkpt lat="47.89068" lon="7.11938">
        <ele>1076</ele>
        <time>2012-05-19T16:02:13Z</time>
      </trkpt>
      <trkpt lat="47.89052" lon="7.11952">
        <ele>1076</ele>
        <time>2012-05-19T16:02:18Z</time>
      </trkpt>
      <trkpt lat="47.89045" lon="7.11959">
        <ele>1075</ele>
        <time>2012-05-19T16:02:20Z</time>
      </trkpt>
      <trkpt lat="47.89" lon="7.1199">
        <ele>1072</ele>
        <time>2012-05-19T16:02:29Z</time>
      </trkpt>
      <trkpt lat="47.88998" lon="7.12004">
        <ele>1071</ele>
        <time>2012-05-19T16:02:33Z</time>
      </trkpt>
      <trkpt lat="47.88989" lon="7.12019">
        <ele>1071</ele>
        <time>2012-05-19T16:02:37Z</time>
      </trkpt>
      <trkpt lat="47.88979" lon="7.12027">
        <ele>1071</ele>
        <time>2012-05-19T16:02:40Z</time>
      </trkpt>
      <trkpt lat="47.88966" lon="7.12054">
        <ele>1062</ele>
        <time>2012-05-19T16:03:22Z</time>
      </trkpt>
      <trkpt lat="47.88814" lon="7.12336">
        <ele>1047</ele>
        <time>2012-05-19T16:03:52Z</time>
      </trkpt>
      <trkpt lat="47.88779" lon="7.12471">
        <ele>1037</ele>
        <time>2012-05-19T16:04:02Z</time>
      </trkpt>
      <trkpt lat="47.88748" lon="7.12499">
        <ele>1027</ele>
        <time>2012-05-19T16:04:10Z</time>
      </trkpt>
      <trkpt lat="47.88752" lon="7.12519">
        <ele>1024</ele>
        <time>2012-05-19T16:04:13Z</time>
      </trkpt>
      <trkpt lat="47.88775" lon="7.12554">
        <ele>1019</ele>
        <time>2012-05-19T16:04:16Z</time>
      </trkpt>
      <trkpt lat="47.88801" lon="7.12568">
        <ele>1015</ele>
        <time>2012-05-19T16:04:20Z</time>
      </trkpt>
      <trkpt lat="47.88821" lon="7.12559">
        <ele>1009</ele>
        <time>2012-05-19T16:04:24Z</time>
      </trkpt>
      <trkpt lat="47.88827" lon="7.12572">
        <ele>1005</ele>
        <time>2012-05-19T16:04:27Z</time>
      </trkpt>
      <trkpt lat="47.88836" lon="7.12573">
        <ele>1001</ele>
        <time>2012-05-19T16:04:31Z</time>
      </trkpt>
      <trkpt lat="47.88845" lon="7.12556">
        <ele>999</ele>
        <time>2012-05-19T16:04:33Z</time>
      </trkpt>
      <trkpt lat="47.88839" lon="7.12553">
        <ele>991</ele>
        <time>2012-05-19T16:04:49Z</time>
      </trkpt>
      <trkpt lat="47.88686" lon="7.12781">
        <ele>968</ele>
        <time>2012-05-19T16:05:20Z</time>
      </trkpt>
      <trkpt lat="47.88679" lon="7.12807">
        <ele>964</ele>
        <time>2012-05-19T16:05:24Z</time>
      </trkpt>
      <trkpt lat="47.88674" lon="7.12811">
        <ele>963</ele>
        <time>2012-05-19T16:05:28Z</time>
      </trkpt>
      <trkpt lat="47.88672" lon="7.12803">
        <ele>962</ele>
        <time>2012-05-19T16:05:31Z</time>
      </trkpt>
      <trkpt lat="47.88675" lon="7.12813">
        <ele>960</ele>
        <time>2012-05-19T16:05:51Z</time>
      </trkpt>
      <trkpt lat="47.88669" lon="7.12814">
        <ele>960</ele>
        <time>2012-05-19T16:05:54Z</time>
      </trkpt>
      <trkpt lat="47.88653" lon="7.12822">
        <ele>956</ele>
        <time>2012-05-19T16:06:00Z</time>
      </trkpt>
      <trkpt lat="47.88632" lon="7.12839">
        <ele>956</ele>
        <time>2012-05-19T16:06:06Z</time>
      </trkpt>
      <trkpt lat="47.88533" lon="7.12861">
        <ele>971</ele>
        <time>2012-05-19T16:06:37Z</time>
      </trkpt>
      <trkpt lat="47.88502" lon="7.12872">
        <ele>973</ele>
        <time>2012-05-19T16:06:48Z</time>
      </trkpt>
      <trkpt lat="47.88409" lon="7.12957">
        <ele>971</ele>
        <time>2012-05-19T16:07:03Z</time>
      </trkpt>
      <trkpt lat="47.88367" lon="7.1295">
        <ele>968</ele>
        <time>2012-05-19T16:07:08Z</time>
      </trkpt>
      <trkpt lat="47.8825" lon="7.12886">
        <ele>956</ele>
        <time>2012-05-19T16:07:22Z</time>
      </trkpt>
      <trkpt lat="47.88239" lon="7.12881">
        <ele>948</ele>
        <time>2012-05-19T16:08:02Z</time>
      </trkpt>
      <trkpt lat="47.88151" lon="7.1284">
        <ele>923</ele>
        <time>2012-05-19T16:08:36Z</time>
      </trkpt>
      <trkpt lat="47.88136" lon="7.12835">
        <ele>919</ele>
        <time>2012-05-19T16:08:41Z</time>
      </trkpt>
      <trkpt lat="47.88132" lon="7.12838">
        <ele>918</ele>
        <time>2012-05-19T16:08:43Z</time>
      </trkpt>
      <trkpt lat="47.88124" lon="7.12854">
        <ele>917</ele>
        <time>2012-05-19T16:08:47Z</time>
      </trkpt>
      <trkpt lat="47.88118" lon="7.12855">
        <ele>917</ele>
        <time>2012-05-19T16:08:50Z</time>
      </trkpt>
      <trkpt lat="47.88114" lon="7.12858">
        <ele>916</ele>
        <time>2012-05-19T16:08:52Z</time>
      </trkpt>
      <trkpt lat="47.88105" lon="7.12869">
        <ele>916</ele>
        <time>2012-05-19T16:08:58Z</time>
      </trkpt>
      <trkpt lat="47.88075" lon="7.12906">
        <ele>911</ele>
        <time>2012-05-19T16:09:12Z</time>
      </trkpt>
      <trkpt lat="47.88052" lon="7.12906">
        <ele>906</ele>
        <time>2012-05-19T16:09:23Z</time>
      </trkpt>
      <trkpt lat="47.88049" lon="7.12904">
        <ele>900</ele>
        <time>2012-05-19T16:23:49Z</time>
      </trkpt>
      <trkpt lat="47.88043" lon="7.12898">
        <ele>901</ele>
        <time>2012-05-19T16:25:16Z</time>
      </trkpt>
      <trkpt lat="47.88037" lon="7.12899">
        <ele>889</ele>
        <time>2012-05-19T16:26:04Z</time>
      </trkpt>
      <trkpt lat="47.88033" lon="7.12896">
        <ele>890</ele>
        <time>2012-05-19T16:26:05Z</time>
      </trkpt>
      <trkpt lat="47.87998" lon="7.12871">
        <ele>893</ele>
        <time>2012-05-19T16:26:12Z</time>
      </trkpt>
      <trkpt lat="47.88002" lon="7.12874">
        <ele>900</ele>
        <time>2012-05-19T16:26:29Z</time>
      </trkpt>
      <trkpt lat="47.88038" lon="7.1291">
        <ele>914</ele>
        <time>2012-05-19T16:26:48Z</time>
      </trkpt>
      <trkpt lat="47.88043" lon="7.12905">
        <ele>916</ele>
        <time>2012-05-19T16:26:55Z</time>
      </trkpt>
      <trkpt lat="47.88053" lon="7.129">
        <ele>906</ele>
        <time>2012-05-19T16:27:36Z</time>
      </trkpt>
      <trkpt lat="47.88072" lon="7.129">
        <ele>911</ele>
        <time>2012-05-19T16:27:41Z</time>
      </trkpt>
      <trkpt lat="47.88097" lon="7.12876">
        <ele>913</ele>
        <time>2012-05-19T16:27:48Z</time>
      </trkpt>
      <trkpt lat="47.88107" lon="7.12868">
        <ele>916</ele>
        <time>2012-05-19T16:27:53Z</time>
      </trkpt>
      <trkpt lat="47.88111" lon="7.12859">
        <ele>917</ele>
        <time>2012-05-19T16:27:58Z</time>
      </trkpt>
      <trkpt lat="47.88118" lon="7.12854">
        <ele>918</ele>
        <time>2012-05-19T16:28:03Z</time>
      </trkpt>
      <trkpt lat="47.88122" lon="7.12851">
        <ele>918</ele>
        <time>2012-05-19T16:28:05Z</time>
      </trkpt>
      <trkpt lat="47.88132" lon="7.12846">
        <ele>919</ele>
        <time>2012-05-19T16:28:09Z</time>
      </trkpt>
      <trkpt lat="47.88142" lon="7.12843">
        <ele>918</ele>
        <time>2012-05-19T16:28:13Z</time>
      </trkpt>
      <trkpt lat="47.8815" lon="7.12847">
        <ele>919</ele>
        <time>2012-05-19T16:28:18Z</time>
      </trkpt>
      <trkpt lat="47.88202" lon="7.12876">
        <ele>929</ele>
        <time>2012-05-19T16:28:54Z</time>
      </trkpt>
      <trkpt lat="47.88239" lon="7.12895">
        <ele>941</ele>
        <time>2012-05-19T16:29:25Z</time>
      </trkpt>
      <trkpt lat="47.88233" lon="7.1289">
        <ele>938</ele>
        <time>2012-05-19T16:29:44Z</time>
      </trkpt>
      <trkpt lat="47.88224" lon="7.12884">
        <ele>937</ele>
        <time>2012-05-19T16:29:46Z</time>
      </trkpt>
      <trkpt lat="47.88141" lon="7.1284">
        <ele>919</ele>
        <time>2012-05-19T16:29:56Z</time>
      </trkpt>
      <trkpt lat="47.88118" lon="7.12851">
        <ele>916</ele>
        <time>2012-05-19T16:30:00Z</time>
      </trkpt>
      <trkpt lat="47.88108" lon="7.12859">
        <ele>916</ele>
        <time>2012-05-19T16:30:02Z</time>
      </trkpt>
      <trkpt lat="47.88065" lon="7.12912">
        <ele>914</ele>
        <time>2012-05-19T16:30:10Z</time>
      </trkpt>
      <trkpt lat="47.88054" lon="7.12908">
        <ele>912</ele>
        <time>2012-05-19T16:30:13Z</time>
      </trkpt>
      <trkpt lat="47.88042" lon="7.12905">
        <ele>912</ele>
        <time>2012-05-19T16:30:16Z</time>
      </trkpt>
      <trkpt lat="47.87998" lon="7.12875">
        <ele>909</ele>
        <time>2012-05-19T16:30:24Z</time>
      </trkpt>
      <trkpt lat="47.87956" lon="7.12846">
        <ele>902</ele>
        <time>2012-05-19T16:30:31Z</time>
      </trkpt>
      <trkpt lat="47.87949" lon="7.12838">
        <ele>902</ele>
        <time>2012-05-19T16:30:32Z</time>
      </trkpt>
      <trkpt lat="47.87782" lon="7.12735">
        <ele>867</ele>
        <time>2012-05-19T16:31:04Z</time>
      </trkpt>
      <trkpt lat="47.87734" lon="7.12725">
        <ele>862</ele>
        <time>2012-05-19T16:31:11Z</time>
      </trkpt>
      <trkpt lat="47.87718" lon="7.12731">
        <ele>862</ele>
        <time>2012-05-19T16:31:14Z</time>
      </trkpt>
      <trkpt lat="47.87693" lon="7.12758">
        <ele>863</ele>
        <time>2012-05-19T16:31:21Z</time>
      </trkpt>
      <trkpt lat="47.87672" lon="7.12762">
        <ele>862</ele>
        <time>2012-05-19T16:31:25Z</time>
      </trkpt>
      <trkpt lat="47.87621" lon="7.12733">
        <ele>853</ele>
        <time>2012-05-19T16:31:33Z</time>
      </trkpt>
      <trkpt lat="47.87617" lon="7.12724">
        <ele>850</ele>
        <time>2012-05-19T16:31:35Z</time>
      </trkpt>
      <trkpt lat="47.87615" lon="7.12714">
        <ele>848</ele>
        <time>2012-05-19T16:31:37Z</time>
      </trkpt>
      <trkpt lat="47.87609" lon="7.12709">
        <ele>846</ele>
        <time>2012-05-19T16:31:39Z</time>
      </trkpt>
      <trkpt lat="47.87577" lon="7.12711">
        <ele>842</ele>
        <time>2012-05-19T16:31:44Z</time>
      </trkpt>
      <trkpt lat="47.87536" lon="7.12743">
        <ele>836</ele>
        <time>2012-05-19T16:31:52Z</time>
      </trkpt>
      <trkpt lat="47.87533" lon="7.12735">
        <ele>833</ele>
        <time>2012-05-19T16:32:29Z</time>
      </trkpt>
      <trkpt lat="47.8753" lon="7.12723">
        <ele>833</ele>
        <time>2012-05-19T16:32:32Z</time>
      </trkpt>
      <trkpt lat="47.87527" lon="7.12716">
        <ele>833</ele>
        <time>2012-05-19T16:32:33Z</time>
      </trkpt>
      <trkpt lat="47.87523" lon="7.12711">
        <ele>831</ele>
        <time>2012-05-19T16:32:41Z</time>
      </trkpt>
      <trkpt lat="47.87517" lon="7.12721">
        <ele>830</ele>
        <time>2012-05-19T16:32:45Z</time>
      </trkpt>
      <trkpt lat="47.87511" lon="7.12722">
        <ele>830</ele>
        <time>2012-05-19T16:32:47Z</time>
      </trkpt>
      <trkpt lat="47.87506" lon="7.12718">
        <ele>829</ele>
        <time>2012-05-19T16:32:50Z</time>
      </trkpt>
      <trkpt lat="47.87482" lon="7.12698">
        <ele>834</ele>
        <time>2012-05-19T16:33:05Z</time>
      </trkpt>
      <trkpt lat="47.87461" lon="7.1269">
        <ele>835</ele>
        <time>2012-05-19T16:33:15Z</time>
      </trkpt>
      <trkpt lat="47.87421" lon="7.12674">
        <ele>844</ele>
        <time>2012-05-19T16:33:41Z</time>
      </trkpt>
      <trkpt lat="47.87415" lon="7.12673">
        <ele>844</ele>
        <time>2012-05-19T16:33:45Z</time>
      </trkpt>
      <trkpt lat="47.87409" lon="7.12671">
        <ele>843</ele>
        <time>2012-05-19T16:33:48Z</time>
      </trkpt>
      <trkpt lat="47.87394" lon="7.1266">
        <ele>846</ele>
        <time>2012-05-19T16:33:58Z</time>
      </trkpt>
      <trkpt lat="47.87388" lon="7.12655">
        <ele>846</ele>
        <time>2012-05-19T16:34:02Z</time>
      </trkpt>
      <trkpt lat="47.87378" lon="7.12646">
        <ele>847</ele>
        <time>2012-05-19T16:34:08Z</time>
      </trkpt>
      <trkpt lat="47.87372" lon="7.12642">
        <ele>847</ele>
        <time>2012-05-19T16:34:11Z</time>
      </trkpt>
      <trkpt lat="47.87366" lon="7.1264">
        <ele>846</ele>
        <time>2012-05-19T16:34:14Z</time>
      </trkpt>
      <trkpt lat="47.87361" lon="7.12639">
        <ele>846</ele>
        <time>2012-05-19T16:34:16Z</time>
      </trkpt>
      <trkpt lat="47.87351" lon="7.1264">
        <ele>846</ele>
        <time>2012-05-19T16:34:21Z</time>
      </trkpt>
      <trkpt lat="47.87332" lon="7.12649">
        <ele>847</ele>
        <time>2012-05-19T16:34:31Z</time>
      </trkpt>
      <trkpt lat="47.87317" lon="7.12667">
        <ele>850</ele>
        <time>2012-05-19T16:34:43Z</time>
      </trkpt>
      <trkpt lat="47.87315" lon="7.12689">
        <ele>851</ele>
        <time>2012-05-19T16:34:52Z</time>
      </trkpt>
      <trkpt lat="47.87316" lon="7.12697">
        <ele>851</ele>
        <time>2012-05-19T16:34:55Z</time>
      </trkpt>
      <trkpt lat="47.87316" lon="7.12705">
        <ele>851</ele>
        <time>2012-05-19T16:34:58Z</time>
      </trkpt>
      <trkpt lat="47.87313" lon="7.12754">
        <ele>857</ele>
        <time>2012-05-19T16:35:16Z</time>
      </trkpt>
      <trkpt lat="47.87313" lon="7.12763">
        <ele>857</ele>
        <time>2012-05-19T16:35:20Z</time>
      </trkpt>
      <trkpt lat="47.87308" lon="7.12773">
        <ele>857</ele>
        <time>2012-05-19T16:35:26Z</time>
      </trkpt>
      <trkpt lat="47.87303" lon="7.12775">
        <ele>857</ele>
        <time>2012-05-19T16:35:28Z</time>
      </trkpt>
      <trkpt lat="47.87297" lon="7.12772">
        <ele>858</ele>
        <time>2012-05-19T16:35:31Z</time>
      </trkpt>
      <trkpt lat="47.87261" lon="7.12739">
        <ele>864</ele>
        <time>2012-05-19T16:35:53Z</time>
      </trkpt>
      <trkpt lat="47.87261" lon="7.12747">
        <ele>866</ele>
        <time>2012-05-19T16:35:59Z</time>
      </trkpt>
      <trkpt lat="47.87262" lon="7.12746">
        <ele>866</ele>
        <time>2012-05-19T16:36:11Z</time>
      </trkpt>
      <trkpt lat="47.87255" lon="7.12745">
        <ele>865</ele>
        <time>2012-05-19T16:36:14Z</time>
      </trkpt>
      <trkpt lat="47.8725" lon="7.12746">
        <ele>866</ele>
        <time>2012-05-19T16:36:16Z</time>
      </trkpt>
      <trkpt lat="47.87234" lon="7.12747">
        <ele>870</ele>
        <time>2012-05-19T16:36:25Z</time>
      </trkpt>
      <trkpt lat="47.8722" lon="7.12736">
        <ele>872</ele>
        <time>2012-05-19T16:36:54Z</time>
      </trkpt>
      <trkpt lat="47.8721" lon="7.12724">
        <ele>872</ele>
        <time>2012-05-19T16:37:00Z</time>
      </trkpt>
      <trkpt lat="47.87206" lon="7.1272">
        <ele>872</ele>
        <time>2012-05-19T16:37:03Z</time>
      </trkpt>
      <trkpt lat="47.872" lon="7.12717">
        <ele>872</ele>
        <time>2012-05-19T16:37:06Z</time>
      </trkpt>
      <trkpt lat="47.87157" lon="7.12652">
        <ele>879</ele>
        <time>2012-05-19T16:37:33Z</time>
      </trkpt>
      <trkpt lat="47.87119" lon="7.1258">
        <ele>887</ele>
        <time>2012-05-19T16:38:00Z</time>
      </trkpt>
      <trkpt lat="47.87096" lon="7.12553">
        <ele>898</ele>
        <time>2012-05-19T16:38:15Z</time>
      </trkpt>
      <trkpt lat="47.8709" lon="7.12549">
        <ele>898</ele>
        <time>2012-05-19T16:38:22Z</time>
      </trkpt>
      <trkpt lat="47.87087" lon="7.12544">
        <ele>897</ele>
        <time>2012-05-19T16:38:31Z</time>
      </trkpt>
      <trkpt lat="47.87082" lon="7.12542">
        <ele>898</ele>
        <time>2012-05-19T16:38:38Z</time>
      </trkpt>
      <trkpt lat="47.8708" lon="7.12529">
        <ele>897</ele>
        <time>2012-05-19T16:38:46Z</time>
      </trkpt>
      <trkpt lat="47.87076" lon="7.12519">
        <ele>897</ele>
        <time>2012-05-19T16:39:02Z</time>
      </trkpt>
      <trkpt lat="47.87073" lon="7.12513">
        <ele>898</ele>
        <time>2012-05-19T16:39:10Z</time>
      </trkpt>
      <trkpt lat="47.87072" lon="7.1251">
        <ele>899</ele>
        <time>2012-05-19T16:39:22Z</time>
      </trkpt>
      <trkpt lat="47.87071" lon="7.12503">
        <ele>902</ele>
        <time>2012-05-19T16:39:34Z</time>
      </trkpt>
      <trkpt lat="47.87056" lon="7.12475">
        <ele>910</ele>
        <time>2012-05-19T16:40:00Z</time>
      </trkpt>
      <trkpt lat="47.87048" lon="7.12466">
        <ele>913</ele>
        <time>2012-05-19T16:40:11Z</time>
      </trkpt>
      <trkpt lat="47.87044" lon="7.12464">
        <ele>912</ele>
        <time>2012-05-19T16:40:17Z</time>
      </trkpt>
      <trkpt lat="47.8704" lon="7.12463">
        <ele>911</ele>
        <time>2012-05-19T16:40:21Z</time>
      </trkpt>
      <trkpt lat="47.87031" lon="7.12454">
        <ele>914</ele>
        <time>2012-05-19T16:40:35Z</time>
      </trkpt>
      <trkpt lat="47.87027" lon="7.12445">
        <ele>915</ele>
        <time>2012-05-19T16:42:32Z</time>
      </trkpt>
      <trkpt lat="47.87027" lon="7.12425">
        <ele>916</ele>
        <time>2012-05-19T16:42:35Z</time>
      </trkpt>
      <trkpt lat="47.87028" lon="7.12409">
        <ele>916</ele>
        <time>2012-05-19T16:42:37Z</time>
      </trkpt>
      <trkpt lat="47.87019" lon="7.12386">
        <ele>915</ele>
        <time>2012-05-19T16:42:41Z</time>
      </trkpt>
      <trkpt lat="47.86894" lon="7.1226">
        <ele>888</ele>
        <time>2012-05-19T16:43:05Z</time>
      </trkpt>
      <trkpt lat="47.86816" lon="7.12283">
        <ele>871</ele>
        <time>2012-05-19T16:43:21Z</time>
      </trkpt>
      <trkpt lat="47.86811" lon="7.1229">
        <ele>869</ele>
        <time>2012-05-19T16:43:23Z</time>
      </trkpt>
      <trkpt lat="47.86812" lon="7.123">
        <ele>868</ele>
        <time>2012-05-19T16:43:25Z</time>
      </trkpt>
      <trkpt lat="47.86811" lon="7.12325">
        <ele>865</ele>
        <time>2012-05-19T16:43:31Z</time>
      </trkpt>
      <trkpt lat="47.8681" lon="7.1233">
        <ele>862</ele>
        <time>2012-05-19T16:43:40Z</time>
      </trkpt>
      <trkpt lat="47.86806" lon="7.1233">
        <ele>858</ele>
        <time>2012-05-19T16:45:42Z</time>
      </trkpt>
      <trkpt lat="47.86803" lon="7.12336">
        <ele>859</ele>
        <time>2012-05-19T16:45:44Z</time>
      </trkpt>
      <trkpt lat="47.86796" lon="7.12349">
        <ele>862</ele>
        <time>2012-05-19T16:45:51Z</time>
      </trkpt>
      <trkpt lat="47.86783" lon="7.12374">
        <ele>863</ele>
        <time>2012-05-19T16:46:01Z</time>
      </trkpt>
      <trkpt lat="47.86774" lon="7.12399">
        <ele>860</ele>
        <time>2012-05-19T16:46:06Z</time>
      </trkpt>
      <trkpt lat="47.86764" lon="7.12423">
        <ele>861</ele>
        <time>2012-05-19T16:46:11Z</time>
      </trkpt>
      <trkpt lat="47.86752" lon="7.12437">
        <ele>863</ele>
        <time>2012-05-19T16:46:20Z</time>
      </trkpt>
      <trkpt lat="47.86742" lon="7.12447">
        <ele>868</ele>
        <time>2012-05-19T16:46:34Z</time>
      </trkpt>
      <trkpt lat="47.86735" lon="7.12455">
        <ele>868</ele>
        <time>2012-05-19T16:46:38Z</time>
      </trkpt>
      <trkpt lat="47.86728" lon="7.12455">
        <ele>868</ele>
        <time>2012-05-19T16:46:41Z</time>
      </trkpt>
      <trkpt lat="47.86723" lon="7.12457">
        <ele>869</ele>
        <time>2012-05-19T16:46:45Z</time>
      </trkpt>
      <trkpt lat="47.86718" lon="7.12464">
        <ele>869</ele>
        <time>2012-05-19T16:46:47Z</time>
      </trkpt>
      <trkpt lat="47.86714" lon="7.12472">
        <ele>870</ele>
        <time>2012-05-19T16:46:49Z</time>
      </trkpt>
      <trkpt lat="47.86713" lon="7.12488">
        <ele>870</ele>
        <time>2012-05-19T16:46:52Z</time>
      </trkpt>
      <trkpt lat="47.86698" lon="7.12519">
        <ele>867</ele>
        <time>2012-05-19T16:46:58Z</time>
      </trkpt>
      <trkpt lat="47.86695" lon="7.12524">
        <ele>867</ele>
        <time>2012-05-19T16:46:59Z</time>
      </trkpt>
      <trkpt lat="47.86689" lon="7.12535">
        <ele>868</ele>
        <time>2012-05-19T16:47:01Z</time>
      </trkpt>
      <trkpt lat="47.86672" lon="7.12559">
        <ele>866</ele>
        <time>2012-05-19T16:47:07Z</time>
      </trkpt>
      <trkpt lat="47.8667" lon="7.12565">
        <ele>866</ele>
        <time>2012-05-19T16:47:08Z</time>
      </trkpt>
      <trkpt lat="47.86661" lon="7.12606">
        <ele>865</ele>
        <time>2012-05-19T16:47:17Z</time>
      </trkpt>
      <trkpt lat="47.86657" lon="7.12618">
        <ele>866</ele>
        <time>2012-05-19T16:47:20Z</time>
      </trkpt>
      <trkpt lat="47.8665" lon="7.12628">
        <ele>866</ele>
        <time>2012-05-19T16:47:23Z</time>
      </trkpt>
      <trkpt lat="47.86647" lon="7.12636">
        <ele>865</ele>
        <time>2012-05-19T16:47:25Z</time>
      </trkpt>
      <trkpt lat="47.86644" lon="7.12655">
        <ele>864</ele>
        <time>2012-05-19T16:47:30Z</time>
      </trkpt>
      <trkpt lat="47.86641" lon="7.12667">
        <ele>865</ele>
        <time>2012-05-19T16:47:33Z</time>
      </trkpt>
      <trkpt lat="47.86639" lon="7.12675">
        <ele>868</ele>
        <time>2012-05-19T16:47:39Z</time>
      </trkpt>
      <trkpt lat="47.86625" lon="7.12696">
        <ele>874</ele>
        <time>2012-05-19T16:47:53Z</time>
      </trkpt>
      <trkpt lat="47.86622" lon="7.12701">
        <ele>873</ele>
        <time>2012-05-19T16:47:55Z</time>
      </trkpt>
      <trkpt lat="47.86599" lon="7.12738">
        <ele>864</ele>
        <time>2012-05-19T16:48:14Z</time>
      </trkpt>
      <trkpt lat="47.86576" lon="7.12752">
        <ele>862</ele>
        <time>2012-05-19T16:48:19Z</time>
      </trkpt>
      <trkpt lat="47.86569" lon="7.12755">
        <ele>860</ele>
        <time>2012-05-19T16:48:27Z</time>
      </trkpt>
      <trkpt lat="47.86552" lon="7.12767">
        <ele>868</ele>
        <time>2012-05-19T16:49:18Z</time>
      </trkpt>
      <trkpt lat="47.86544" lon="7.1278">
        <ele>870</ele>
        <time>2012-05-19T16:49:25Z</time>
      </trkpt>
      <trkpt lat="47.86539" lon="7.12791">
        <ele>871</ele>
        <time>2012-05-19T16:49:32Z</time>
      </trkpt>
      <trkpt lat="47.86526" lon="7.12794">
        <ele>872</ele>
        <time>2012-05-19T16:49:43Z</time>
      </trkpt>
      <trkpt lat="47.86517" lon="7.12804">
        <ele>880</ele>
        <time>2012-05-19T16:50:01Z</time>
      </trkpt>
      <trkpt lat="47.86516" lon="7.12819">
        <ele>884</ele>
        <time>2012-05-19T16:50:06Z</time>
      </trkpt>
      <trkpt lat="47.86517" lon="7.12833">
        <ele>887</ele>
        <time>2012-05-19T16:50:10Z</time>
      </trkpt>
      <trkpt lat="47.86519" lon="7.12847">
        <ele>888</ele>
        <time>2012-05-19T16:50:13Z</time>
      </trkpt>
      <trkpt lat="47.86519" lon="7.12856">
        <ele>887</ele>
        <time>2012-05-19T16:50:16Z</time>
      </trkpt>
      <trkpt lat="47.86517" lon="7.12871">
        <ele>887</ele>
        <time>2012-05-19T16:50:20Z</time>
      </trkpt>
      <trkpt lat="47.86517" lon="7.12879">
        <ele>887</ele>
        <time>2012-05-19T16:50:23Z</time>
      </trkpt>
      <trkpt lat="47.86526" lon="7.12888">
        <ele>886</ele>
        <time>2012-05-19T16:50:29Z</time>
      </trkpt>
      <trkpt lat="47.86528" lon="7.12902">
        <ele>885</ele>
        <time>2012-05-19T16:50:32Z</time>
      </trkpt>
      <trkpt lat="47.86523" lon="7.12953">
        <ele>877</ele>
        <time>2012-05-19T16:50:47Z</time>
      </trkpt>
      <trkpt lat="47.86503" lon="7.12977">
        <ele>871</ele>
        <time>2012-05-19T16:51:00Z</time>
      </trkpt>
      <trkpt lat="47.86501" lon="7.12991">
        <ele>870</ele>
        <time>2012-05-19T16:51:07Z</time>
      </trkpt>
      <trkpt lat="47.86492" lon="7.13002">
        <ele>866</ele>
        <time>2012-05-19T16:51:15Z</time>
      </trkpt>
      <trkpt lat="47.86482" lon="7.13004">
        <ele>866</ele>
        <time>2012-05-19T16:51:21Z</time>
      </trkpt>
      <trkpt lat="47.86476" lon="7.1301">
        <ele>864</ele>
        <time>2012-05-19T16:51:24Z</time>
      </trkpt>
      <trkpt lat="47.86458" lon="7.13027">
        <ele>864</ele>
        <time>2012-05-19T16:51:31Z</time>
      </trkpt>
      <trkpt lat="47.86451" lon="7.13054">
        <ele>866</ele>
        <time>2012-05-19T16:51:39Z</time>
      </trkpt>
      <trkpt lat="47.8645" lon="7.13067">
        <ele>867</ele>
        <time>2012-05-19T16:51:42Z</time>
      </trkpt>
      <trkpt lat="47.86452" lon="7.1313">
        <ele>878</ele>
        <time>2012-05-19T16:51:57Z</time>
      </trkpt>
      <trkpt lat="47.86448" lon="7.13137">
        <ele>878</ele>
        <time>2012-05-19T16:51:59Z</time>
      </trkpt>
      <trkpt lat="47.86446" lon="7.13144">
        <ele>878</ele>
        <time>2012-05-19T16:52:02Z</time>
      </trkpt>
      <trkpt lat="47.86434" lon="7.13211">
        <ele>874</ele>
        <time>2012-05-19T16:52:20Z</time>
      </trkpt>
      <trkpt lat="47.86427" lon="7.13231">
        <ele>876</ele>
        <time>2012-05-19T16:52:26Z</time>
      </trkpt>
      <trkpt lat="47.86423" lon="7.1324">
        <ele>876</ele>
        <time>2012-05-19T16:52:29Z</time>
      </trkpt>
      <trkpt lat="47.86417" lon="7.13254">
        <ele>877</ele>
        <time>2012-05-19T16:52:33Z</time>
      </trkpt>
      <trkpt lat="47.8641" lon="7.13265">
        <ele>877</ele>
        <time>2012-05-19T16:52:35Z</time>
      </trkpt>
      <trkpt lat="47.86403" lon="7.13271">
        <ele>876</ele>
        <time>2012-05-19T16:52:37Z</time>
      </trkpt>
      <trkpt lat="47.86382" lon="7.13283">
        <ele>871</ele>
        <time>2012-05-19T16:52:47Z</time>
      </trkpt>
      <trkpt lat="47.86377" lon="7.13285">
        <ele>871</ele>
        <time>2012-05-19T16:52:49Z</time>
      </trkpt>
      <trkpt lat="47.86369" lon="7.13289">
        <ele>871</ele>
        <time>2012-05-19T16:52:52Z</time>
      </trkpt>
      <trkpt lat="47.8636" lon="7.13298">
        <ele>871</ele>
        <time>2012-05-19T16:52:56Z</time>
      </trkpt>
      <trkpt lat="47.86357" lon="7.13304">
        <ele>870</ele>
        <time>2012-05-19T16:52:58Z</time>
      </trkpt>
      <trkpt lat="47.86353" lon="7.13313">
        <ele>874</ele>
        <time>2012-05-19T16:53:16Z</time>
      </trkpt>
      <trkpt lat="47.86325" lon="7.13345">
        <ele>871</ele>
        <time>2012-05-19T16:53:27Z</time>
      </trkpt>
      <trkpt lat="47.86318" lon="7.13349">
        <ele>871</ele>
        <time>2012-05-19T16:53:29Z</time>
      </trkpt>
      <trkpt lat="47.86308" lon="7.13353">
        <ele>870</ele>
        <time>2012-05-19T16:53:33Z</time>
      </trkpt>
      <trkpt lat="47.86301" lon="7.13351">
        <ele>870</ele>
        <time>2012-05-19T16:53:35Z</time>
      </trkpt>
      <trkpt lat="47.86289" lon="7.13349">
        <ele>870</ele>
        <time>2012-05-19T16:53:40Z</time>
      </trkpt>
      <trkpt lat="47.86278" lon="7.13349">
        <ele>870</ele>
        <time>2012-05-19T16:53:43Z</time>
      </trkpt>
      <trkpt lat="47.86266" lon="7.13347">
        <ele>869</ele>
        <time>2012-05-19T16:53:46Z</time>
      </trkpt>
      <trkpt lat="47.8626" lon="7.13346">
        <ele>865</ele>
        <time>2012-05-19T16:54:00Z</time>
      </trkpt>
      <trkpt lat="47.86254" lon="7.13338">
        <ele>863</ele>
        <time>2012-05-19T16:54:48Z</time>
      </trkpt>
      <trkpt lat="47.86221" lon="7.13316">
        <ele>871</ele>
        <time>2012-05-19T16:55:06Z</time>
      </trkpt>
      <trkpt lat="47.86211" lon="7.13311">
        <ele>870</ele>
        <time>2012-05-19T16:55:10Z</time>
      </trkpt>
      <trkpt lat="47.86191" lon="7.13314">
        <ele>871</ele>
        <time>2012-05-19T16:55:21Z</time>
      </trkpt>
      <trkpt lat="47.86167" lon="7.13316">
        <ele>871</ele>
        <time>2012-05-19T16:55:29Z</time>
      </trkpt>
      <trkpt lat="47.8616" lon="7.13316">
        <ele>872</ele>
        <time>2012-05-19T16:55:31Z</time>
      </trkpt>
      <trkpt lat="47.86134" lon="7.13309">
        <ele>873</ele>
        <time>2012-05-19T16:55:39Z</time>
      </trkpt>
      <trkpt lat="47.86106" lon="7.13312">
        <ele>872</ele>
        <time>2012-05-19T16:55:46Z</time>
      </trkpt>
      <trkpt lat="47.86097" lon="7.13301">
        <ele>871</ele>
        <time>2012-05-19T16:56:11Z</time>
      </trkpt>
      <trkpt lat="47.86097" lon="7.13299">
        <ele>875</ele>
        <time>2012-05-19T16:56:48Z</time>
      </trkpt>
      <trkpt lat="47.86087" lon="7.13301">
        <ele>873</ele>
        <time>2012-05-19T16:56:54Z</time>
      </trkpt>
      <trkpt lat="47.86083" lon="7.13314">
        <ele>874</ele>
        <time>2012-05-19T16:56:59Z</time>
      </trkpt>
      <trkpt lat="47.8608" lon="7.13327">
        <ele>875</ele>
        <time>2012-05-19T16:57:02Z</time>
      </trkpt>
      <trkpt lat="47.8608" lon="7.13342">
        <ele>875</ele>
        <time>2012-05-19T16:57:07Z</time>
      </trkpt>
      <trkpt lat="47.86074" lon="7.13355">
        <ele>874</ele>
        <time>2012-05-19T16:57:11Z</time>
      </trkpt>
      <trkpt lat="47.86066" lon="7.13366">
        <ele>873</ele>
        <time>2012-05-19T16:57:14Z</time>
      </trkpt>
      <trkpt lat="47.86063" lon="7.13373">
        <ele>869</ele>
        <time>2012-05-19T16:57:33Z</time>
      </trkpt>
      <trkpt lat="47.86065" lon="7.13381">
        <ele>868</ele>
        <time>2012-05-19T16:58:00Z</time>
      </trkpt>
      <trkpt lat="47.86062" lon="7.13405">
        <ele>882</ele>
        <time>2012-05-19T16:58:25Z</time>
      </trkpt>
      <trkpt lat="47.86054" lon="7.13435">
        <ele>881</ele>
        <time>2012-05-19T16:58:47Z</time>
      </trkpt>
      <trkpt lat="47.86048" lon="7.13446">
        <ele>877</ele>
        <time>2012-05-19T16:58:54Z</time>
      </trkpt>
      <trkpt lat="47.86043" lon="7.1346">
        <ele>877</ele>
        <time>2012-05-19T16:58:58Z</time>
      </trkpt>
      <trkpt lat="47.86025" lon="7.135">
        <ele>882</ele>
        <time>2012-05-19T16:59:12Z</time>
      </trkpt>
      <trkpt lat="47.86029" lon="7.13509">
        <ele>885</ele>
        <time>2012-05-19T16:59:27Z</time>
      </trkpt>
      <trkpt lat="47.86032" lon="7.13515">
        <ele>884</ele>
        <time>2012-05-19T16:59:31Z</time>
      </trkpt>
      <trkpt lat="47.86025" lon="7.13531">
        <ele>882</ele>
        <time>2012-05-19T16:59:47Z</time>
      </trkpt>
      <trkpt lat="47.86021" lon="7.13543">
        <ele>882</ele>
        <time>2012-05-19T16:59:50Z</time>
      </trkpt>
      <trkpt lat="47.86022" lon="7.13558">
        <ele>882</ele>
        <time>2012-05-19T16:59:54Z</time>
      </trkpt>
      <trkpt lat="47.8602" lon="7.13573">
        <ele>882</ele>
        <time>2012-05-19T16:59:58Z</time>
      </trkpt>
      <trkpt lat="47.86017" lon="7.13587">
        <ele>882</ele>
        <time>2012-05-19T17:00:02Z</time>
      </trkpt>
      <trkpt lat="47.86019" lon="7.13601">
        <ele>883</ele>
        <time>2012-05-19T17:00:07Z</time>
      </trkpt>
      <trkpt lat="47.86024" lon="7.13616">
        <ele>881</ele>
        <time>2012-05-19T17:00:14Z</time>
      </trkpt>
      <trkpt lat="47.86025" lon="7.13674">
        <ele>870</ele>
        <time>2012-05-19T17:00:32Z</time>
      </trkpt>
      <trkpt lat="47.86022" lon="7.13688">
        <ele>871</ele>
        <time>2012-05-19T17:00:41Z</time>
      </trkpt>
      <trkpt lat="47.8603" lon="7.13704">
        <ele>872</ele>
        <time>2012-05-19T17:00:51Z</time>
      </trkpt>
      <trkpt lat="47.86074" lon="7.1375">
        <ele>867</ele>
        <time>2012-05-19T17:01:09Z</time>
      </trkpt>
      <trkpt lat="47.86082" lon="7.13758">
        <ele>864</ele>
        <time>2012-05-19T17:01:14Z</time>
      </trkpt>
      <trkpt lat="47.86101" lon="7.13846">
        <ele>859</ele>
        <time>2012-05-19T17:01:28Z</time>
      </trkpt>
      <trkpt lat="47.86102" lon="7.13873">
        <ele>858</ele>
        <time>2012-05-19T17:01:33Z</time>
      </trkpt>
      <trkpt lat="47.86094" lon="7.13909">
        <ele>853</ele>
        <time>2012-05-19T17:01:41Z</time>
      </trkpt>
      <trkpt lat="47.86089" lon="7.13914">
        <ele>852</ele>
        <time>2012-05-19T17:01:43Z</time>
      </trkpt>
      <trkpt lat="47.86079" lon="7.13904">
        <ele>850</ele>
        <time>2012-05-19T17:01:48Z</time>
      </trkpt>
      <trkpt lat="47.86063" lon="7.1389">
        <ele>849</ele>
        <time>2012-05-19T17:01:52Z</time>
      </trkpt>
      <trkpt lat="47.86058" lon="7.13891">
        <ele>849</ele>
        <time>2012-05-19T17:01:53Z</time>
      </trkpt>
      <trkpt lat="47.86036" lon="7.13911">
        <ele>846</ele>
        <time>2012-05-19T17:02:01Z</time>
      </trkpt>
      <trkpt lat="47.86009" lon="7.13993">
        <ele>857</ele>
        <time>2012-05-19T17:02:35Z</time>
      </trkpt>
      <trkpt lat="47.86009" lon="7.13998">
        <ele>863</ele>
        <time>2012-05-19T17:03:08Z</time>
      </trkpt>
      <trkpt lat="47.86013" lon="7.14017">
        <ele>863</ele>
        <time>2012-05-19T17:03:17Z</time>
      </trkpt>
      <trkpt lat="47.86012" lon="7.14034">
        <ele>865</ele>
        <time>2012-05-19T17:03:20Z</time>
      </trkpt>
      <trkpt lat="47.86011" lon="7.14048">
        <ele>865</ele>
        <time>2012-05-19T17:03:23Z</time>
      </trkpt>
      <trkpt lat="47.86008" lon="7.14061">
        <ele>864</ele>
        <time>2012-05-19T17:03:28Z</time>
      </trkpt>
      <trkpt lat="47.86008" lon="7.14109">
        <ele>863</ele>
        <time>2012-05-19T17:03:41Z</time>
      </trkpt>
      <trkpt lat="47.86011" lon="7.14115">
        <ele>862</ele>
        <time>2012-05-19T17:03:44Z</time>
      </trkpt>
      <trkpt lat="47.86012" lon="7.14134">
        <ele>861</ele>
        <time>2012-05-19T17:03:50Z</time>
      </trkpt>
      <trkpt lat="47.86011" lon="7.1416">
        <ele>855</ele>
        <time>2012-05-19T17:04:05Z</time>
      </trkpt>
      <trkpt lat="47.86011" lon="7.14167">
        <ele>857</ele>
        <time>2012-05-19T17:04:10Z</time>
      </trkpt>
      <trkpt lat="47.86013" lon="7.14173">
        <ele>857</ele>
        <time>2012-05-19T17:04:20Z</time>
      </trkpt>
      <trkpt lat="47.86011" lon="7.1418">
        <ele>857</ele>
        <time>2012-05-19T17:04:27Z</time>
      </trkpt>
      <trkpt lat="47.86015" lon="7.14196">
        <ele>866</ele>
        <time>2012-05-19T17:05:32Z</time>
      </trkpt>
      <trkpt lat="47.86015" lon="7.14212">
        <ele>866</ele>
        <time>2012-05-19T17:05:36Z</time>
      </trkpt>
      <trkpt lat="47.86018" lon="7.14225">
        <ele>867</ele>
        <time>2012-05-19T17:05:39Z</time>
      </trkpt>
      <trkpt lat="47.86013" lon="7.14241">
        <ele>869</ele>
        <time>2012-05-19T17:05:56Z</time>
      </trkpt>
      <trkpt lat="47.86006" lon="7.14266">
        <ele>867</ele>
        <time>2012-05-19T17:06:15Z</time>
      </trkpt>
      <trkpt lat="47.86007" lon="7.14274">
        <ele>868</ele>
        <time>2012-05-19T17:06:18Z</time>
      </trkpt>
      <trkpt lat="47.86012" lon="7.14286">
        <ele>869</ele>
        <time>2012-05-19T17:06:29Z</time>
      </trkpt>
      <trkpt lat="47.86014" lon="7.14296">
        <ele>872</ele>
        <time>2012-05-19T17:06:38Z</time>
      </trkpt>
      <trkpt lat="47.86016" lon="7.14302">
        <ele>873</ele>
        <time>2012-05-19T17:06:43Z</time>
      </trkpt>
      <trkpt lat="47.86018" lon="7.14311">
        <ele>872</ele>
        <time>2012-05-19T17:06:46Z</time>
      </trkpt>
      <trkpt lat="47.86016" lon="7.14317">
        <ele>873</ele>
        <time>2012-05-19T17:06:51Z</time>
      </trkpt>
      <trkpt lat="47.86016" lon="7.14355">
        <ele>881</ele>
        <time>2012-05-19T17:07:16Z</time>
      </trkpt>
      <trkpt lat="47.86013" lon="7.14369">
        <ele>880</ele>
        <time>2012-05-19T17:07:22Z</time>
      </trkpt>
      <trkpt lat="47.86012" lon="7.14376">
        <ele>878</ele>
        <time>2012-05-19T17:07:26Z</time>
      </trkpt>
      <trkpt lat="47.86013" lon="7.14384">
        <ele>879</ele>
        <time>2012-05-19T17:07:34Z</time>
      </trkpt>
      <trkpt lat="47.86008" lon="7.14414">
        <ele>883</ele>
        <time>2012-05-19T17:07:56Z</time>
      </trkpt>
      <trkpt lat="47.86004" lon="7.14421">
        <ele>883</ele>
        <time>2012-05-19T17:08:05Z</time>
      </trkpt>
      <trkpt lat="47.86001" lon="7.14462">
        <ele>893</ele>
        <time>2012-05-19T17:08:39Z</time>
      </trkpt>
      <trkpt lat="47.86001" lon="7.14469">
        <ele>892</ele>
        <time>2012-05-19T17:08:44Z</time>
      </trkpt>
      <trkpt lat="47.86" lon="7.14475">
        <ele>892</ele>
        <time>2012-05-19T17:08:50Z</time>
      </trkpt>
      <trkpt lat="47.85997" lon="7.14483">
        <ele>892</ele>
        <time>2012-05-19T17:08:55Z</time>
      </trkpt>
      <trkpt lat="47.85992" lon="7.1449">
        <ele>894</ele>
        <time>2012-05-19T17:09:03Z</time>
      </trkpt>
      <trkpt lat="47.8599" lon="7.14497">
        <ele>896</ele>
        <time>2012-05-19T17:09:08Z</time>
      </trkpt>
      <trkpt lat="47.8599" lon="7.14502">
        <ele>899</ele>
        <time>2012-05-19T17:09:18Z</time>
      </trkpt>
      <trkpt lat="47.85984" lon="7.14506">
        <ele>899</ele>
        <time>2012-05-19T17:09:54Z</time>
      </trkpt>
      <trkpt lat="47.85984" lon="7.14518">
        <ele>901</ele>
        <time>2012-05-19T17:10:02Z</time>
      </trkpt>
      <trkpt lat="47.85973" lon="7.14531">
        <ele>903</ele>
        <time>2012-05-19T17:10:15Z</time>
      </trkpt>
      <trkpt lat="47.85966" lon="7.14559">
        <ele>909</ele>
        <time>2012-05-19T17:10:34Z</time>
      </trkpt>
      <trkpt lat="47.85963" lon="7.14566">
        <ele>908</ele>
        <time>2012-05-19T17:10:38Z</time>
      </trkpt>
      <trkpt lat="47.8596" lon="7.14572">
        <ele>909</ele>
        <time>2012-05-19T17:10:41Z</time>
      </trkpt>
      <trkpt lat="47.85952" lon="7.14583">
        <ele>910</ele>
        <time>2012-05-19T17:10:47Z</time>
      </trkpt>
      <trkpt lat="47.85945" lon="7.14594">
        <ele>910</ele>
        <time>2012-05-19T17:10:51Z</time>
      </trkpt>
      <trkpt lat="47.85945" lon="7.14602">
        <ele>910</ele>
        <time>2012-05-19T17:10:56Z</time>
      </trkpt>
      <trkpt lat="47.8594" lon="7.14615">
        <ele>908</ele>
        <time>2012-05-19T17:11:04Z</time>
      </trkpt>
      <trkpt lat="47.85934" lon="7.14624">
        <ele>909</ele>
        <time>2012-05-19T17:11:09Z</time>
      </trkpt>
      <trkpt lat="47.85927" lon="7.14661">
        <ele>912</ele>
        <time>2012-05-19T17:11:21Z</time>
      </trkpt>
      <trkpt lat="47.85923" lon="7.14688">
        <ele>913</ele>
        <time>2012-05-19T17:11:27Z</time>
      </trkpt>
      <trkpt lat="47.8591" lon="7.14724">
        <ele>909</ele>
        <time>2012-05-19T17:11:42Z</time>
      </trkpt>
      <trkpt lat="47.85906" lon="7.14729">
        <ele>911</ele>
        <time>2012-05-19T17:11:51Z</time>
      </trkpt>
      <trkpt lat="47.85902" lon="7.14729">
        <ele>910</ele>
        <time>2012-05-19T17:12:05Z</time>
      </trkpt>
      <trkpt lat="47.859" lon="7.14735">
        <ele>917</ele>
        <time>2012-05-19T17:13:53Z</time>
      </trkpt>
      <trkpt lat="47.85895" lon="7.1474">
        <ele>915</ele>
        <time>2012-05-19T17:14:33Z</time>
      </trkpt>
      <trkpt lat="47.85893" lon="7.14746">
        <ele>915</ele>
        <time>2012-05-19T17:14:35Z</time>
      </trkpt>
      <trkpt lat="47.85892" lon="7.14756">
        <ele>916</ele>
        <time>2012-05-19T17:14:38Z</time>
      </trkpt>
      <trkpt lat="47.85888" lon="7.148">
        <ele>919</ele>
        <time>2012-05-19T17:14:52Z</time>
      </trkpt>
      <trkpt lat="47.85876" lon="7.14833">
        <ele>912</ele>
        <time>2012-05-19T17:15:05Z</time>
      </trkpt>
      <trkpt lat="47.85882" lon="7.14834">
        <ele>912</ele>
        <time>2012-05-19T17:15:09Z</time>
      </trkpt>
      <trkpt lat="47.85879" lon="7.14826">
        <ele>912</ele>
        <time>2012-05-19T17:15:14Z</time>
      </trkpt>
      <trkpt lat="47.85875" lon="7.14831">
        <ele>912</ele>
        <time>2012-05-19T17:15:16Z</time>
      </trkpt>
      <trkpt lat="47.8585" lon="7.14866">
        <ele>911</ele>
        <time>2012-05-19T17:15:28Z</time>
      </trkpt>
      <trkpt lat="47.8584" lon="7.14868">
        <ele>910</ele>
        <time>2012-05-19T17:15:32Z</time>
      </trkpt>
      <trkpt lat="47.85767" lon="7.14841">
        <ele>908</ele>
        <time>2012-05-19T17:15:52Z</time>
      </trkpt>
      <trkpt lat="47.85767" lon="7.14849">
        <ele>907</ele>
        <time>2012-05-19T17:15:55Z</time>
      </trkpt>
      <trkpt lat="47.85772" lon="7.14848">
        <ele>907</ele>
        <time>2012-05-19T17:15:58Z</time>
      </trkpt>
      <trkpt lat="47.85777" lon="7.14846">
        <ele>907</ele>
        <time>2012-05-19T17:16:00Z</time>
      </trkpt>
      <trkpt lat="47.85781" lon="7.1485">
        <ele>907</ele>
        <time>2012-05-19T17:16:02Z</time>
      </trkpt>
      <trkpt lat="47.85784" lon="7.14859">
        <ele>907</ele>
        <time>2012-05-19T17:16:04Z</time>
      </trkpt>
      <trkpt lat="47.85791" lon="7.1487">
        <ele>909</ele>
        <time>2012-05-19T17:16:08Z</time>
      </trkpt>
      <trkpt lat="47.858" lon="7.14874">
        <ele>910</ele>
        <time>2012-05-19T17:16:11Z</time>
      </trkpt>
      <trkpt lat="47.85806" lon="7.14874">
        <ele>910</ele>
        <time>2012-05-19T17:16:14Z</time>
      </trkpt>
      <trkpt lat="47.85799" lon="7.14863">
        <ele>912</ele>
        <time>2012-05-19T17:16:18Z</time>
      </trkpt>
      <trkpt lat="47.85793" lon="7.14856">
        <ele>912</ele>
        <time>2012-05-19T17:16:20Z</time>
      </trkpt>
      <trkpt lat="47.85768" lon="7.14806">
        <ele>911</ele>
        <time>2012-05-19T17:16:29Z</time>
      </trkpt>
      <trkpt lat="47.85762" lon="7.14799">
        <ele>911</ele>
        <time>2012-05-19T17:16:32Z</time>
      </trkpt>
      <trkpt lat="47.85747" lon="7.14765">
        <ele>910</ele>
        <time>2012-05-19T17:16:42Z</time>
      </trkpt>
      <trkpt lat="47.85738" lon="7.14746">
        <ele>913</ele>
        <time>2012-05-19T17:16:48Z</time>
      </trkpt>
      <trkpt lat="47.85734" lon="7.14738">
        <ele>913</ele>
        <time>2012-05-19T17:16:51Z</time>
      </trkpt>
      <trkpt lat="47.8573" lon="7.1473">
        <ele>912</ele>
        <time>2012-05-19T17:16:54Z</time>
      </trkpt>
      <trkpt lat="47.85721" lon="7.14719">
        <ele>916</ele>
        <time>2012-05-19T17:17:02Z</time>
      </trkpt>
      <trkpt lat="47.85724" lon="7.14713">
        <ele>919</ele>
        <time>2012-05-19T17:17:07Z</time>
      </trkpt>
      <trkpt lat="47.85731" lon="7.14708">
        <ele>927</ele>
        <time>2012-05-19T17:17:21Z</time>
      </trkpt>
      <trkpt lat="47.85736" lon="7.1471">
        <ele>929</ele>
        <time>2012-05-19T17:17:58Z</time>
      </trkpt>
      <trkpt lat="47.85741" lon="7.14706">
        <ele>931</ele>
        <time>2012-05-19T17:18:28Z</time>
      </trkpt>
      <trkpt lat="47.85745" lon="7.14702">
        <ele>931</ele>
        <time>2012-05-19T17:18:34Z</time>
      </trkpt>
      <trkpt lat="47.85753" lon="7.14697">
        <ele>931</ele>
        <time>2012-05-19T17:18:40Z</time>
      </trkpt>
    </trkseg>
  </trk>
</gpx>